     2              OBSERVATION DATA    GPS                 RINEX VERSION / TYPE
teqc 1997Sep10 19970910 19:05:32UTC                         PGM / RUN BY / DATE
                                                            COMMENT
BIT 2 OF LLI FLAGS DATA COLLECTED UNDER A-S CONDITION       COMMENT
BIT 2 OF LLI FLAGS DATA COLLECTED UNDER A-S CONDITION       COMMENT
Original Marker Name: unknown                               COMMENT
Campaign Name: STRC 1988 NGS                                COMMENT
4-Character Station Name: RYAN                              COMMENT
6-Character Antenna Code: TI4100                            COMMENT
Vertical Measurement Point: PAE                             COMMENT
Vertical Offset to Rinex Ref. Point: 0.0000                 COMMENT
Radial Measurement Point: RRP                               COMMENT
Radial Offset to Rinex Ref. Point: 0.0000                   COMMENT
Antenna Height from Field Measurement: 0.9901 m             COMMENT
Original XYZ: 0.0000 0.0000 0.0000                          COMMENT
New XYZ position is based on association with SCEC monument COMMENT
E1D0O8P4+0011. Position of that monument is believed to be  COMMENT
valid to within 1 m horizontally; vertical accuracy         COMMENT
should be no worse than 3-times this value.                 COMMENT
                                                            COMMENT
Revised Rinex header created by UCSD GPS archive for        COMMENT
GSAC on 12-Apr-1999 (1999:102) 19:43:40 GMT                 COMMENT
For assistance contact dagnew@ucsd.edu or hjohnson@ucsd.edu COMMENT
                                                            COMMENT
(RYAN AIRPORT)                                              MARKER NAME
unknown NATIONAL GEODETIC SURVEY                            OBSERVER / AGENCY
0103 TI 4100 GSI TI 4100                                    REC # / TYPE / VERS
133 TI 4100                                                 ANT # / TYPE
 -2412027.0000 -4730451.0000  3522421.0000                  APPROX POSITION XYZ
        0.9901        0.0000        0.0000                  ANTENNA: DELTA H/E/N
     1     1     0                                          WAVELENGTH FACT L1/2
     6    L1    L2    P1    P2    D1    D2                  # / TYPES OF OBSERV
     0                                                      INTERVAL
  1988     4     2     2    11   38.000000                  TIME OF FIRST OBS
  1988     4     2     7    47   59.000000                  TIME OF LAST OBS
     0                                                      # OF SATELLITES
                                                            END OF HEADER
 88  4  2  2 11 37.9800000  0  3G 6G 9G11
   4363452.431 8  -7117368.158 8  17114458.812    17114463.636        1946.397
      1510.037
    137609.385 8                                                        -0.500 1
      2828.217
    102977.393 6                                                        -0.500 1
      3585.917
 88  4  2  3  8 29.0800000  0  3G 6G 9G11
  -1314436.380 9 -11541691.666 8  16033987.304    16033992.345        1267.157
       966.492
  -9868713.024 8  -7780956.770 8  18163365.474    18163371.718        2961.285
      2302.499
 -10476910.284 9  -8175030.137 7  16856386.658    16856391.504        2383.471
      1863.905
 88  4  2  3  8 59.0800000  0  3G 6G 9G11
  -1351811.643 8 -11570815.211 8  16026874.667    16026879.456        1252.971
       961.763
  -9957343.117 8  -7850019.126 8  18146499.098    18146505.868        2968.821
      2300.616
 -10548293.979 8  -8230653.757 8  16842802.534    16842805.868        2381.382
      1843.481
 88  4  2  3  9 29.0800000  0  3G 6G 9G11
  -1388886.564 9 -11599704.706 8  16019819.564    16019824.250        1243.258
       948.783
 -10045928.057 8  -7919046.284 8  18129642.329    18129647.887        2959.555
      2300.734
 -10619214.403 9  -8285916.382 8  16829306.344    16829311.555        2362.443
      1837.957
 88  4  2  3  9 59.0800000  0  3G 6G 9G11
  -1425659.084 9 -11628358.598 8  16012822.389    16012826.847        1239.279
       964.230
 -10134466.252 8  -7988037.033 8  18112794.885    18112799.189        2954.659
      2310.658
 -10689669.870 8  -8340816.689 9  16815898.916    16815904.375        2372.443
      1835.067
 88  4  2  3 10 29.0800000  0  3G 6G 9G11
  -1462127.703 9 -11656775.659 8  16005882.907    16005885.367        1221.041
       938.232
 -10222956.891 8  -8056990.705 8  18095955.181    18095959.608        2935.034
      2297.547
 -10759659.360 8  -8395353.903 8  16802579.423    16802586.020        2345.513
      1795.156
 88  4  2  3 10 59.0800000  0  3G 6G 9G11
  -1498289.135 8 -11684953.370 8  15999002.133    15999004.782        1197.509
       945.552
 -10311396.638 8  -8125904.725 9  18079125.146    18079130.646        2947.888
      2302.344
 -10829179.836 8  -8449525.660 7  16789349.872    16789355.905        2308.265
      1792.434
 88  4  2  3 11 29.0800000  0  3G 6G 9G11
  -1534139.215 9 -11712888.451 7  15992180.213    15992182.617        1199.048
       924.344
 -10399781.868 7  -8194776.255 9  18062305.951    18062311.174        2939.946
      2295.844
 -10898228.071 8  -8503329.436 8  16776211.623    16776217.666        2294.214
      1795.392
 88  4  2  3 11 59.0800000  0  3G 6G 9G11
  -1569677.056 9 -11740580.241 7  15985416.936    15985420.255        1177.645
       926.401
 -10488112.060 7  -8263604.890 8  18045497.620    18045502.405        2934.523
      2290.053
 -10966803.433 8  -8556764.742 7  16763162.455    16763166.733        2293.999
      1770.400
 88  4  2  3 12 29.0800000  0  3G 6G 9G11
  -1604903.429 9 -11768029.337 8  15978713.379    15978717.347        1177.501
       915.682
 -10576388.445 8  -8332391.609 8  18028699.128    18028704.096        2951.915
      2270.529
 -11034907.119 9  -8609832.497 7  16750202.415    16750207.533        2251.552
      1763.012
 88  4  2  3 12 59.0800000  0  3G 6G 9G11
  -1639814.124 8 -11795232.450 7  15972069.733    15972074.577        1167.597
       909.959
 -10664606.869 8  -8401133.149 8  18011912.437    18011916.807        2961.955
      2293.495
 -11102535.523 9  -8662529.908 8  16737332.889    16737337.867        2256.655
      1747.956
 88  4  2  3 13 29.0800000  0  3G 6G 9G11
  -1674404.518 9 -11822185.974 7  15965487.528    15965491.402        1168.474
       877.622
 -10752763.269 9  -8469826.373 8  17995136.876    17995140.812        2932.976
      2300.517
 -11169684.639 8  -8714853.856 7  16724555.541    16724560.140        2234.207
      1742.879
 88  4  2  3 13 59.0800000  0  3G 6G 9G11
  -1708673.079 8 -11848888.709 7  15958966.954    15958970.150        1133.244
       881.282
 -10840856.387 9  -8538470.269 8  17978371.978    17978377.592        2932.721
      2290.463
 -11236353.584 9  -8766803.654 7  16711868.451    16711873.877        2200.835
      1742.662
 88  4  2  3 14 29.0800000  0  3G 6G 9G11
  -1742619.811 9 -11875340.695 8  15952506.468    15952510.428        1128.786
       883.842
 -10928886.385 9  -8607065.010 8  17961621.012    17961625.994        2937.554
      2286.368
 -11302543.010 8  -8818379.765 8  16699273.058    16699277.130        2202.310
      1716.521
 88  4  2  3 14 59.0800000  0  3G 6G 9G11
  -1776241.994 9 -11901539.748 8  15946108.950    15946112.575        1118.579
       868.066
 -11016850.971 9  -8675608.749 8  17944881.588    17944887.074        2939.475
      2292.234
 -11368250.680 8  -8869580.516 7  16686769.481    16686775.111        2185.939
      1688.360
 88  4  2  3 15 29.0800000  0  3G 6G 9G11
  -1809536.423 9 -11927483.434 8  15939773.036    15939777.166        1099.417
       858.583
 -11104747.119 8  -8744099.183 8  17928154.952    17928159.898        2937.873
      2288.257
 -11433474.116 8  -8920403.942 8  16674357.128    16674362.765        2187.573
      1705.746
 88  4  2  3 15 59.0800000  0  3G 6G 9G11
  -1842502.244 9 -11953171.058 8  15933499.656    15933503.268        1107.518
       860.926
 -11192574.352 9  -8812535.932 8  17911442.369    17911446.807        2928.909
      2281.851
 -11498213.368 8  -8970850.052 7  16662038.387    16662043.446        2161.625
      1662.517
 88  4  2  3 16 29.0800000  0  3G 6G 9G11
  -1875135.829 9 -11978599.788 8  15927289.785    15927292.730        1107.144
       850.959
 -11280329.248 8  -8880916.310 7  17894743.194    17894748.465        2923.862
      2291.004
 -11562465.134 8  -9020916.321 7  16649811.653    16649816.384        2139.041
      1659.944
 88  4  2  3 16 59.0800000  0  3G 6G 9G11
  -1907434.763 8 -12003767.765 7  15921143.142    15921147.320        1084.640
       837.475
 -11368009.467 8  -8949238.499 7  17878058.782    17878062.320        2940.815
      2271.144
 -11626227.869 8  -9070601.534 7  16637678.442    16637683.621        2118.874
      1654.737
 88  4  2  3 17 29.0800000  0  3G 6G 9G11
  -1939397.178 9 -12028673.517 8  15915061.017    15915064.501        1059.457
       824.569
 -11455613.700 8  -9017501.470 9  17861387.868    17861392.844        2927.091
      2272.443
 -11689500.406 8  -9119904.777 7  16625637.313    16625642.039        2101.785
      1631.230
 88  4  2  3 17 59.0800000  0  3G 6G 9G11
  -1971022.602 9 -12053316.679 8  15909042.312    15909046.652        1058.827
       820.431
 -11543141.072 8  -9085704.549 8  17844731.496    17844736.087        2932.546
      2275.991
 -11752282.878 8  -9168826.138 8  16613690.164    16613695.028        2090.023
      1629.776
 88  4  2  3 18 29.0800000  0  3G 6G 9G11
  -2002307.263 8 -12077694.308 9  15903089.861    15903093.756        1031.324
       799.037
 -11630588.684 9  -9153845.489 9  17828091.239    17828095.055        2908.176
      2293.091
 -11814572.280 8  -9217363.292 8  16601836.903    16601842.991        2081.953
      1636.239
 88  4  2  3 18 59.0800000  0  3G 6G 9G11
  -2033248.074 9 -12101804.000 9  15897201.456    15897205.582        1033.556
       800.920
 -11717953.183 9  -9221921.648 8  17811465.854    17811470.701        2917.578
      2262.228
 -11876366.601 9  -9265514.676 7  16590077.815    16590083.704        2056.419
      1602.081
 88  4  2  3 19 29.0800000  0  3G 6G 9G11
  -2063844.852 9 -12125645.620 8  15891378.636    15891382.325        1028.221
       806.238
 -11805235.005 9  -9289933.384 8  17794856.554    17794860.653        2904.691
      2265.297
 -11937666.488 8  -9313280.784 7  16578412.282    16578418.606        2040.096
      1586.951
 88  4  2  3 19 59.0800000  0  3G 6G 9G11
  -2094094.252 8 -12149216.566 7  15885622.897    15885626.832        1038.469
       779.470
 -11892430.175 8  -9357877.589 8  17778263.691    17778267.918        2903.583
      2258.245
 -11998469.013 9  -9360659.353 7  16566842.771    16566846.495        2022.592
      1566.557
 88  4  2  3 20 29.0800000  0  3G 6G 9G11
  -2123993.297 9 -12172514.493 7  15879932.841    15879938.417        1007.791
       772.815
 -11979536.597 9  -9425752.640 8  17761689.168    17761691.945        2903.934
      2267.957
 -12058772.277 8  -9407648.870 7  16555366.806    16555371.922        2011.133
      1565.103
 88  4  2  3 20 59.0800000  0  3G 6G 9G11
  -2153540.264 9 -12195538.075 8  15874311.120    15874314.175         970.902
       778.289
 -12066552.217 8  -9493556.933 8  17745129.447    17745134.127        2903.056
      2259.351
 -12118575.011 8  -9454248.370 8  16543987.985    16543990.307        1985.742
      1553.086
 88  4  2  3 21 29.0800000  0  3G 6G 9G11
  -2182733.246 8 -12218285.827 8  15868755.499    15868759.230         973.677
       761.791
 -12153475.475 8  -9561289.254 8  17728588.512    17728592.734        2901.382
      2265.260
 -12177876.309 9  -9500457.136 7  16532703.092    16532707.476        1968.972
      1524.707
 88  4  2  3 21 59.0800000  0  3G 6G 9G11
  -2211570.537 9 -12240756.428 8  15863267.788    15863272.500         944.100
       734.034
 -12240304.623 8  -9628948.223 8  17712065.828    17712069.663        2888.695
      2257.356
 -12236675.612 8  -9546274.739 7  16521513.564    16521518.078        1949.746
      1519.258
 88  4  2  3 22 29.0800000  0  3G 6G 9G11
  -2240048.954 7 -12262947.359 8  15857849.247    15857851.755         937.513
       727.386
 -12327036.666 8  -9696531.543 7  17695561.060    17695566.055        2893.463
      2260.332
 -12294970.552 9  -9591699.326 6  16510419.147    16510424.929        1940.687
      1510.726
 88  4  2  3 22 59.0800000  0  3G 6G 9G11
  -2268167.391 9 -12284857.815 8  15852498.411    15852502.674         923.359
       726.615
 -12413670.511 8  -9764038.344 8  17679074.411    17679079.799        2895.162
      2243.462
 -12352760.769 8  -9636730.623 7  16499423.412    16499427.916        1924.013
      1507.874
 88  4  2  3 23 29.0800000  0  3G 6G 9G11
  -2295922.773 9 -12306485.355 8  15847216.460    15847221.212         909.053
       717.885
 -12500202.963 8  -9831466.141 9  17662608.515    17662612.494        2877.283
      2238.429
 -12410044.493 8  -9681367.263 7  16488522.422    16488526.400        1891.214
      1477.072
 88  4  2  3 23 59.0800000  0  3G 6G 9G11
  -2323312.263 9 -12327827.779 7  15842004.787    15842008.634         916.963
       702.624
 -12586631.532 9  -9898812.991 8  17646161.143    17646165.714        2885.210
      2251.304
 -12466819.583 9  -9725607.558 7  16477718.009    16477722.251        1875.194
      1497.056
 88  4  2  3 24 29.0800000  0  3G 6G 9G11
  -2350333.680 8 -12348883.402 7  15836862.897    15836865.432         893.559
       691.308
 -12672953.735 8  -9966076.960 8  17629734.677    17629739.428        2863.607
      2244.947
 -12523084.714 8  -9769450.478 7  16467011.604    16467016.112        1881.350
      1448.197
 88  4  2  3 24 59.0800000  0  3G 6G 9G11
  -2376987.376 8 -12369652.492 8  15831789.197    15831794.294         887.538
       687.002
 -12759170.272 9 -10033258.611 8  17613327.783    17613332.401        2872.961
      2239.348
 -12578841.444 8  -9812897.249 7  16456401.537    16456405.280        1844.485
      1465.465
 88  4  2  3 25 29.0800000  0  3G 6G 9G11
  -2403271.145 8 -12390133.328 8  15826788.675    15826791.790         879.779
       685.946
 -12845278.417 9 -10100355.799 8  17596942.170    17596946.483        2860.505
      2238.429
 -12634088.347 8  -9855946.748 8  16445887.485    16445892.096        1840.394
      1425.952
 88  4  2  3 25 59.0800000  0  3G 6G 9G11
  -2429179.933 8 -12410321.952 8  15821858.798    15821861.614         863.926
       660.594
 -12931273.435 9 -10167364.841 7  17580578.330    17580582.157        2863.185
      2235.073
 -12688821.579 8  -9898595.984 7  16435472.100    16435476.781        1813.249
      1426.250
 88  4  2  3 26 29.0800000  0  3G 6G 9G11
  -2454712.103 8 -12430217.129 8  15817000.368    15817003.604         851.207
       658.885
 -13017153.648 8 -10234284.434 9  17564235.482    17564238.692        2849.301
      2249.129
 -12743040.606 8  -9940844.545 8  16425155.038    16425159.992        1799.908
      1379.671
 88  4  2  3 26 59.0800000  0  3G 6G 9G11
  -2479866.451 9 -12449817.891 8  15812212.910    15812216.695         815.195
       673.114
 -13102917.643 9 -10301113.454 8  17547915.184    17547918.886        2865.083
      2233.831
 -12796745.161 9  -9982692.212 6  16414935.301    16414940.737        1780.219
      1389.850
 88  4  2  3 27 29.0800000  0  3G 6G 9G11
  -2504639.273 8 -12469121.359 9  15807499.497    15807502.671         809.525
       636.795
 -13188561.688 8 -10367849.039 7  17531617.311    17531622.445        2858.408
      2227.343
 -12849932.613 8 -10024136.941 8  16404813.460    16404818.848        1756.240
      1368.803
 88  4  2  3 27 59.0800000  0  3G 6G 9G11
  -2529029.344 9 -12488126.582 8  15802858.300    15802860.177         804.118
       620.465
 -13274084.569 8 -10434490.210 8  17515342.517    17515346.468        2857.116
      2222.012
 -12902602.930 8 -10065178.718 7  16394791.045    16394796.976        1734.143
      1353.064
 88  4  2  3 28 29.0800000  0  3G 6G 9G11
  -2553036.531 9 -12506833.458 7  15798288.381    15798292.082         806.670
       630.830
 -13359485.981 9 -10501036.733 8  17499092.516    17499096.022        2854.564
      2247.532
 -12954756.980 9 -10105818.204 8  16384866.749    16384872.631        1741.528
      1324.220
 88  4  2  3 28 59.0800000  0  3G 6G 9G11
  -2576659.901 8 -12525241.251 8  15793793.418    15793798.378         775.825
       607.652
 -13444764.569 9 -10567487.544 8  17482863.231    17482867.573        2840.394
      2216.432
 -13006394.864 9 -10146055.470 7  16375040.577    16375045.072        1724.606
      1339.686
 88  4  2  3 29 29.0800000  0  3G 6G 9G11
  -2599893.255 8 -12543345.135 8  15789371.754    15789376.507         770.275
       592.379
 -13529914.365 8 -10633838.001 8  17466660.371    17466663.867        2816.981
      2224.696
 -13057511.871 8 -10185886.888 7  16365312.347    16365317.906        1695.093
      1335.106
 88  4  2  3 29 59.0800000  0  3G 6G 9G11
  -2622734.352 8 -12561143.374 8  15785025.816    15785029.760         759.677
       576.540
 -13614932.691 9 -10700086.010 9  17450481.908    17450485.730        2824.764
      2207.062
 -13108106.742 8 -10225311.414 8  16355685.110    16355689.661        1677.462
      1305.628
 88  4  2  3 30 29.0800000  0  3G 6G 9G11
  -2645180.514 9 -12578633.867 7  15780755.025    15780758.220         737.835
       591.086
 -13699816.685 8 -10766229.356 8  17434329.126    17434332.447        2834.748
      2203.849
 -13158177.694 8 -10264327.726 7  16346157.385    16346161.185        1674.551
      1290.317
 88  4  2  3 30 59.0800000  0  3G 6G 9G11
  -2667230.440 9 -12595815.604 8  15776558.456    15776562.319         720.882
       570.028
 -13784565.022 9 -10832266.974 8  17418202.354    17418205.259        2819.166
      2200.904
 -13207724.807 7 -10302935.825 8  16336727.386    16336733.135        1641.426
      1286.962
 88  4  2  3 31 29.0800000  0  3G 6G 9G11
  -2688885.082 1 -12612689.327 1  15772434.905    15772438.389         717.269
       560.949
 -13869178.384 9 -10898199.426 8  17402099.794    17402104.903        2804.214
      2200.382
 -13256750.143 9 -10341137.352 8  16327399.077    16327403.171        1631.928
      1255.321
 88  4  2  3 31 59.0800000  0  3G 6G 9G11
  -2710142.534 1 -12629253.552 1  15768391.934    15768399.603         697.668
       531.658
 -13953654.620 9 -10964025.016 7  17386024.898    17386028.917        2816.016
      2207.465
 -13305253.041 9 -10378931.772 7  16318170.175    16318173.895        1617.128
      1262.554
 88  4  2  3 32 29.0800000  0  3G 6G 9G11
  -2730997.525 9 -12645504.166 8  15764423.630    15764427.601         704.941
       527.035
 -14037988.246 9 -11029739.481 8  17369976.909    17369981.050        2802.165
      2187.880
 -13353229.608 8 -10416316.092 7  16309040.541    16309044.913        1599.855
      1237.599
 88  4  2  3 32 59.0800000  0  3G 6G 9G11
  -2751446.943 9 -12661438.768 8  15760533.158    15760535.478         661.608
       526.792
 -14122175.812 9 -11095340.122 7  17353955.486    17353960.523        2799.597
      2174.650
 -13400677.897 8 -10453288.755 6  16300010.741    16300015.959        1558.189
      1194.637
 88  4  2  3 33 29.0800000  0  3G 6G 9G11
  -2771489.628 9 -12677056.417 8  15756718.130    15756722.454         669.631
       523.710
 -14206215.897 9 -11160825.850 8  17337963.542    17337967.732        2790.004
      2186.587
 -13447598.022 8 -10489849.852 7  16291082.024    16291085.935        1564.736
      1219.250
 88  4  2  3 33 59.0800000  0  3G 6G 9G11
  -2791125.707 9 -12692357.230 7  15752982.108    15752984.932         654.830
       527.122
 -14290108.346 8 -11226196.522 8  17321999.603    17322004.789        2793.776
      2176.620
 -13493991.549 8 -10526000.612 6  16282252.918    16282257.332        1522.153
      1176.170
 88  4  2  3 34 29.0800000  0  3G 6G 9G11
  -2810353.580 8 -12707339.961 7  15749322.498    15749326.473         639.216
       492.262
 -14373851.188 9 -11291450.619 7  17306063.727    17306067.344        2792.604
      2185.761
 -13539858.074 7 -10561740.731 7  16273524.985    16273529.613        1527.512
      1177.817
 88  4  2  3 34 59.0800000  0  3G 6G 9G11
  -2829170.104 9 -12722002.173 8  15745742.509    15745745.421         615.485
       480.810
 -14457440.685 9 -11356585.212 7  17290156.806    17290160.583        2785.825
      2165.007
 -13585195.450 9 -10597068.524 7  16264898.498    16264901.920        1495.933
      1184.093
 88  4  2  3 35 29.0800000  0  3G 6G 9G11
  -2847571.965 8 -12736341.265 9  15742239.332    15742242.948         618.108
       488.901
 -14540873.469 9 -11421597.697 7  17274280.403    17274285.547        2779.462
      2158.227
 -13630001.804 9 -10631982.544 6  16256371.262    16256375.805        1506.468
      1167.868
 88  4  2  3 35 59.0800000  0  3G 6G 9G11
  -2865555.579 9 -12750354.454 8  15738818.760    15738821.647         580.637
       473.907
 -14624145.562 9 -11486484.970 7  17258433.451    17258437.743        2781.599
      2166.964
 -13674274.890 7 -10666481.023 6  16247945.682    16247951.441        1482.521
      1146.642
 88  4  2  3 36 29.0800000  0  3G 6G 9G11
  -2883121.182 9 -12764041.914 8  15735474.879    15735479.320         593.659
       450.350
 -14707256.799 8 -11551246.889 8  17242617.973    17242622.272        2739.295
      2168.418
 -13718016.337 9 -10700565.229 7  16239622.583    16239626.781        1453.031
      1131.934
 88  4  2  3 36 59.0800000  0  3G 6G 9G11
  -2900268.379 9 -12777403.342 8  15732213.105    15732216.773         583.835
       442.962
 -14790206.301 8 -11615882.789 8  17226834.474    17226837.203        2757.827
      2166.473
 -13761227.220 8 -10734236.009 6  16231399.791    16231404.448        1437.768
      1109.521
 88  4  2  3 37 29.0800000  0  3G 6G 9G11
  -2916992.882 9 -12790435.395 8  15729030.314    15729033.946         552.647
       424.557
 -14872989.463 8 -11680389.082 8  17211081.005    17211083.925        2762.158
      2135.516
 -13803904.612 9 -10767491.101 6  16223278.790    16223282.376        1402.968
      1087.015
 88  4  2  3 37 59.0800000  0  3G 6G 9G11
  -2933292.333 9 -12803136.255 8  15725928.747    15725931.683         543.317
       408.575
 -14955603.285 9 -11744763.411 8  17195359.904    17195362.486        2765.060
      2151.492
 -13846047.569 8 -10800329.720 6  16215260.597    16215263.536        1416.764
      1102.885
 88  4  2  3 38 29.0800000  0  3G 6G 9G11
  -2949166.153 9 -12815505.441 8  15722907.752    15722912.360         513.397
       397.893
 -15038046.752 9 -11809005.008 7  17179670.282    17179675.127        2737.262
      2126.494
 -13887656.760 8 -10832752.436 6  16207341.195    16207344.920        1372.195
      1070.995
 88  4  2  3 38 59.0800000  0  3G 6G 9G11
  -2964612.407 9 -12827541.451 8  15719968.414    15719971.834         502.998
       388.977
 -15120317.413 9 -11873111.937 8  17164014.964    17164018.806        2750.850
      2139.170
 -13928731.821 7 -10864758.964 7  16199524.439    16199529.826        1363.543
      1052.764
 88  4  2  3 39 29.0800000  0  3G 6G 9G11
  -2979629.190 9 -12839242.824 8  15717110.907    15717113.818         495.901
       389.045
 -15202412.980 9 -11937082.433 8  17148392.763    17148397.313        2736.807
      2132.664
 -13969272.409 8 -10896349.002 7  16191809.825    16191813.839        1338.894
      1034.707
 88  4  2  3 39 59.0800000  0  3G 6G 9G11
  -2994214.634 8 -12850608.082 7  15714335.729    15714339.408         460.702
       369.882
 -15284331.245 9 -12000914.770 9  17132804.696    17132808.475        2730.180
      2121.572
 -14009278.178 8 -10927522.286 8  16184197.675    16184201.250        1312.436
      1064.645
 88  4  2  3 40 29.0800000  0  3G 6G 9G11
  -3008366.729 9 -12861635.666 8  15711643.081    15711645.377         481.189
       366.129
 -15366069.252 8 -12064606.632 7  17117250.117    17117254.007        2724.630
      2128.743
 -14048748.265 8 -10958278.178 5  16176685.126    16176690.712        1293.042
      1011.629
 88  4  2  3 40 59.0800000  0  3G 6G 9G11
  -3022079.216 9 -12872320.701 9  15709032.985    15709036.156         460.057
       349.072
 -15447620.409 8 -12128152.909 8  17101731.301    17101735.213        2727.142
      2127.861
 -14087677.918 8 -10988612.936 7  16169278.822    16169283.307        1297.157
      1009.522
 88  4  2  3 41 29.0800000  0  4G 6G 9G11G13
  -3035351.786 9 -12882662.951 9  15706506.539    15706510.674         453.924
       335.370
 -15528983.780 9 -12191552.852 8  17086247.720    17086251.151        2706.855
      2120.684
 -14126068.041 6 -11018527.282 6  16161972.449    16161977.877        1257.971
       980.405
 -32302313.640 7                                  40972359.000 1      3665.405

 88  4  2  3 41 59.0800000  0  4G 6G 9G11G13
  -3048187.380 8 -12892664.694 9  15704064.729    15704068.969         434.212
       325.770
 -15610161.713 8 -12254808.292 8  17070800.255    17070805.399        2711.401
      2104.553
 -14163923.181 7 -11048024.758 7  16154770.003    16154773.971        1255.754
       948.851
 -32412000.277 7  40900679.120 8  19035493.122    19035497.415        3645.142
      2839.954
 88  4  2  3 42 29.0800000  0  4G 6G 9G11G13
  -3060582.511 9 -12902323.218 8  15701705.022    15701709.448         403.319
       315.020
 -15691149.888 9 -12317915.881 8  17055388.224    17055393.204        2687.462
      2086.048
 -14201241.880 8 -11077104.241 7  16147667.745    16147671.864        1251.464
       962.093
 -32521459.770 8  40815386.097 8  19014662.317    19014667.268        3651.896
      2847.001
 88  4  2  3 42 59.0800000  0  4G 6G 9G11G13
  -3072532.738 8 -12911635.065 9  15699431.665    15699435.769         405.257
       308.284
 -15771943.557 8 -12380871.904 9  17040014.701    17040018.352        2686.505
      2095.294
 -14238020.960 8 -11105763.234 8  16140669.015    16140674.084        1227.859
       940.661
 -32630687.203 7  40730273.899 8  18993876.757    18993883.169        3621.482
      2825.103
 88  4  2  3 43 29.0800000  0  4G 6G 9G11G13
  -3084036.008 8 -12920598.631 8  15697242.762    15697245.342         372.713
       305.849
 -15852539.501 9 -12443673.854 9  17024678.002    17024681.135        2683.778
      2085.290
 -14274259.828 9 -11134001.290 8  16133773.097    16133777.220        1203.179
       948.273
 -32739679.672 8  40645344.794 7  18973136.710    18973142.406        3621.450
      2823.935
 88  4  2  3 43 59.0800000  0  4G 6G 9G11G13
  -3095092.473 9 -12929214.038 9  15695138.317    15695142.036         351.908
       282.069
 -15932937.886 8 -12506321.879 8  17009378.182    17009382.866        2667.661
      2089.093
 -14309960.274 8 -11161819.791 8  16126978.643    16126982.797        1195.954
       919.696
 -32848436.554 8  40560599.254 8  18952440.412    18952446.708        3638.635
      2835.990
 88  4  2  3 44 29.0800000  0  4G 6G 9G11G13
  -3105700.174 8 -12937479.765 8  15693120.315    15693122.353         364.261
       284.585
 -16013135.620 8 -12568813.541 9  16994116.888    16994121.462        2669.727
      2078.964
 -14345121.332 8 -11189217.991 8  16120288.460    16120292.659        1153.682
       910.574
 -32956956.008 9  40476038.725 8  18931789.810    18931795.834        3626.251
      2829.130
 88  4  2  3 44 59.0800000  0  4G 6G 9G11G13
  -3115856.479 9 -12945393.763 9  15691187.455    15691191.408         323.719
       253.274
 -16093129.285 8 -12631146.191 8  16978894.693    16978897.695        2667.215
      2065.275
 -14379742.801 8 -11216195.720 7  16113700.566    16113704.683        1159.695
       891.318
 -33065234.938 8  40391665.603 8  18911185.199    18911191.240        3600.693
      2789.995
 88  4  2  3 45 29.0800000  0  4G 6G 9G11G13
  -3125559.765 8 -12952954.737 9  15689341.121    15689343.962         312.962
       237.174
 -16172916.677 8 -12693318.118 8  16963712.072    16963715.186        2654.161
      2075.323
 -14413824.210 8 -11242752.649 7  16107212.914    16107217.654        1149.599
       892.896
 -33173271.485 8  40307481.361 8  18890625.635    18890632.030        3603.963
      2812.769
 88  4  2  3 45 59.0800000  0  4G 6G 9G11G13
  -3134807.691 8 -12960160.908 9  15687581.710    15687584.361         306.558
       240.088
 -16252494.758 8 -12755326.956 8  16948568.288    16948572.400        2656.051
      2071.067
 -14447364.852 7 -11268888.181 8  16100831.251    16100835.982        1112.008
       866.115
 -33281062.558 9  40223488.389 8  18870113.881    18870119.502        3580.741
      2798.608
 88  4  2  3 46 29.0800000  0  4G 6G 9G11G13
  -3143599.191 8 -12967011.409 9  15685907.982    15685911.999         271.694
       219.005
 -16331861.130 9 -12817170.828 9  16933465.571    16933469.578        2640.485
      2051.108
 -14480365.038 8 -11294602.584 8  16094552.923    16094557.272        1069.465
       855.414
 -33388605.958 9  40139688.413 8  18849649.411    18849654.964        3601.140
      2797.663
 88  4  2  3 46 59.0800000  0  4G 6G 9G11G13
  -3151932.194 8 -12973504.644 9  15684321.807    15684326.511         247.038
       213.114
 -16411013.709 8 -12878848.107 8  16918403.329    16918406.874        2648.411
      2060.715
 -14512824.644 9 -11319895.746 9  16088375.794    16088380.626        1078.316
       828.962
 -33495899.370 9  40056083.229 8  18829232.286    18829237.880        3575.534
      2788.672
 88  4  2  3 47 29.0800000  0  4G 6G 9G11G13
  -3159804.286 9 -12979638.727 8  15682824.035    15682828.748         258.329
       190.359
 -16489948.654 9 -12940355.819 8  16903382.414    16903385.935        2643.675
      2044.683
 -14544742.719 8 -11344766.943 7  16082301.268    16082306.416        1058.684
       806.823
 -33602940.375 8  39972674.715 9  18808863.193    18808868.156        3559.888
      2787.174
 88  4  2  3 47 59.0800000  0  4G 6G 9G11G13
  -3167212.990 8 -12985411.735 8  15681413.758    15681417.892         247.835
       187.464
 -16568663.317 8 -13001691.859 7  16888403.987    16888406.405        2636.258
      2050.070
 -14576118.237 8 -11369215.372 7  16076331.097    16076335.956        1030.590
       804.648
 -33709725.857 8  39889465.301 9  18788542.554    18788548.207        3558.405
      2767.607
 88  4  2  3 48 29.0800000  0  4G 6G 9G11G13
  -3174158.397 9 -12990823.727 9  15680092.936    15680096.316         218.290
       172.426
 -16647155.925 9 -13062854.889 8  16873467.198    16873469.520        2619.464
      2030.342
 -14606953.233 8 -11393242.622 7  16070463.670    16070468.099        1006.667
       790.095
 -33816254.881 9  39806455.734 7  18768270.017    18768275.958        3550.072
      2759.796
 88  4  2  3 48 59.0800000  0  4G 6G 9G11G13
  -3180639.793 8 -12995874.155 8  15678859.018    15678862.372         196.983
       157.557
 -16725425.800 8 -13123844.368 9  16858572.830    16858576.286        2603.269
      2048.051
 -14637248.498 8 -11416849.285 8  16064697.739    16064701.520        1004.394
       775.083
 -33922526.731 9  39723646.572 8  18748047.820    18748052.713        3524.402
      2752.464
 88  4  2  3 49 29.0800000  0  4G 6G 9G11G13
  -3186653.422 8 -13000560.082 9  15677715.046    15677719.163         193.123
       131.434
 -16803467.601 8 -13184656.115 8  16843721.482    16843724.729        2606.187
      2025.383
 -14667002.150 8 -11440033.924 7  16059036.831    16059041.117         984.865
       772.709
 -34028536.793 9  39641041.402 7  18727874.266    18727880.061        3534.546
      2751.476
 88  4  2  3 49 59.0800000  0  4G 6G 9G11G13
  -3192196.700 8 -13004879.506 8  15676660.520    15676663.481         175.516
       144.241
 -16881278.204 9 -13245287.716 9  16828915.613    16828917.855        2583.500
      2032.423
 -14696213.264 8 -11462795.808 8  16053477.524    16053480.786         967.417
       769.422
 -34134282.109 9  39558642.520 8  18707751.665    18707757.386        3508.262
      2742.255
 88  4  2  3 50 29.0800000  0  4G 6G 9G11G13
  -3197268.940 9 -13008831.894 8  15675695.225    15675697.897         167.294
       137.064
 -16958855.772 9 -13305737.745 8  16814151.437    16814156.091        2569.202
      1993.469
 -14724882.611 8 -11485135.539 7  16048021.962    16048026.337         939.307
       724.850
 -34239761.447 8  39476450.881 8  18687680.022    18687685.586        3498.940
      2739.011
 88  4  2  3 50 59.0800000  0  4G 6G 9G11G13
  -3201867.669 8 -13012415.300 8  15674819.358    15674823.316         145.739
       118.037
 -17036197.057 9 -13366003.628 8  16799434.598    16799437.301        2566.913
      2005.312
 -14753009.349 9 -11507052.457 7  16042669.218    16042673.512         930.105
       727.528
 -34344971.449 9  39394469.125 8  18667658.558    18667664.181        3512.257
      2742.398
 88  4  2  3 51 29.0800000  0  4G 6G 9G11G13
  -3205991.980 8 -13015629.036 8  15674035.656    15674038.388         116.202
        96.842
 -17113299.818 9 -13426083.664 9  16784763.166    16784765.588        2575.805
      1998.558
 -14780594.304 8 -11528547.200 6  16037420.014    16037424.689         913.048
       704.134
 -34449911.189 8  39312697.968 8  18647688.010    18647693.816        3480.807
      2731.275
 88  4  2  3 51 59.0800000  0  4G 6G 9G11G13
  -3209641.895 9 -13018473.104 8  15673340.234    15673343.862         106.474
       100.719
 -17190163.598 9 -13485977.469 8  16770136.219    16770138.527        2563.764
      2007.599
 -14807639.472 8 -11549621.334 7  16032274.046    16032277.440         879.986
       689.102
 -34554579.815 7  39231138.062 7  18627770.550    18627777.504        3480.543
      2717.126
 88  4  2  3 52 29.0800000  0  4G 6G 9G11G13
  -3212814.825 8 -13020945.516 8  15672736.263    15672739.970          96.577
        70.359
 -17266784.486 9 -13545682.015 9  16755555.105    16755558.982        2562.727
      1989.691
 -14834144.092 8 -11570274.251 7  16027230.202    16027234.184         855.130
       700.206
 -34658974.575 8  39149791.571 7  18607905.646    18607910.796        3463.686
      2706.302
 88  4  2  3 52 59.0800000  0  4G 6G 9G11G13
  -3215505.941 8 -13023042.467 8  15672224.470    15672227.411          77.375
        78.325
 -17343156.389 8 -13605192.540 8  16741022.509    16741024.414        2542.879
      1986.106
 -14860104.826 8 -11590503.362 7  16022289.162    16022293.709         833.049
       674.662
 -34763089.603 8  39068663.046 8  18588092.619    18588098.460        3470.520
      2684.554
 88  4  2  3 53 29.0800000  0  4G 6G 9G11G13
  -3217716.761 8 -13024765.184 9  15671803.697    15671807.542          68.683
        34.586
 -17419279.846 9 -13664509.468 9  16726535.723    16726539.819        2544.657
      1973.417
 -14885524.962 8 -11610311.240 8  16017452.014    16017457.511         852.698
       659.941
 -34866925.465 8  38987752.043 8  18568333.641    18568338.694        3466.931
      2690.395
 88  4  2  3 53 59.0800000  0  4G 6G 9G11G13
  -3219447.181 8 -13026113.542 9  15671474.698    15671478.149          59.194
        46.286
 -17495154.092 8 -13723632.196 9  16712098.241    16712101.499        2522.313
      1962.468
 -14910406.179 8 -11629699.181 7  16012718.022    16012722.542         827.363
       621.888
 -34970482.140 8  38907058.586 9  18548627.497    18548631.301        3434.005
      2690.295
 88  4  2  3 54 29.0800000  0  4G 6G 9G11G13
  -3220692.159 9 -13027083.649 9  15671237.258    15671241.100          12.504
        29.180
 -17570772.419 8 -13782555.525 8  16697708.102    16697711.414        2521.715
      1964.457
 -14934744.956 8 -11648664.435 8  16008085.203    16008090.101         794.278
       653.609
 -35073754.100 8  38826586.987 7  18528975.496    18528982.235        3430.345
      2681.571
 88  4  2  3 54 59.0800000  0  4G 6G 9G11G13
  -3221451.087 8 -13027675.007 9  15671093.460    15671095.805          36.275
         9.737
 -17646133.225 9 -13841278.162 9  16683366.601    16683369.846        2513.892
      1942.454
 -14958542.676 8 -11667208.088 7  16003557.657    16003561.777         778.991
       623.410
 -35176739.632 8  38746338.584 8  18509378.133    18509382.996        3433.750
      2686.840
 88  4  2  3 55 29.0800000  0  4G 6G 9G11G13
  -3221721.017 8 -13027885.324 9  15671041.943    15671045.257           5.973
        11.042
 -17721233.016 8 -13899797.426 8  16669075.804    16669080.432        2504.139
      1952.321
 -14981798.102 8 -11685329.172 7  15999132.077    15999136.142         797.372
       576.676
 -35279435.081 8  38666316.222 8  18489835.845    18489840.766        3413.774
      2670.697
 88  4  2  3 55 59.0800000  0  4G 6G 9G11G13
  -3221502.967 8 -13027715.414 8  15671083.382    15671086.122          -8.006
        -4.884
 -17796070.419 9 -13958112.231 8  16654836.124    16654837.900        2486.604
      1942.087
 -15004513.985 8 -11703029.843 7  15994809.403    15994812.340         754.837
       577.459
 -35381841.210 9  38586519.290 7  18470348.221    18470353.289        3403.368
      2631.606
 88  4  2  3 56 29.0800000  0  4G 6G 9G11G13
  -3220795.284 9 -13027163.960 9  15671217.704    15671221.229         -18.333
       -24.923
 -17870643.489 8 -14016221.070 8  16640644.090    16640647.094        2481.444
      1936.681
 -15026690.355 8 -11720310.092 7  15990589.196    15990593.352         727.421
       577.261
 -35483956.158 8  38506949.250 8  18450917.032    18450922.582        3405.911
      2662.544
 88  4  2  3 56 59.0800000  0  4G 6G 9G11G13
  -3219595.663 8 -13026229.177 8  15671446.523    15671449.582         -44.449
       -39.607
 -17944948.573 8 -14074121.088 8  16626504.476    16626506.966        2476.349
      1944.181
 -15048326.761 8 -11737169.604 7  15986472.646    15986476.991         690.970
       575.620
 -35585776.355 9  38427608.880 8  18431540.576    18431546.285        3391.629
      2641.884
 88  4  2  3 57 29.0800000  0  4G 6G 9G11G13
  -3217900.629 8 -13024908.354 8  15671768.850    15671772.181         -53.596
       -48.635
 -18018980.847 9 -14131808.511 7  16612416.205    16612420.282        2448.494
      1922.526
 -15069421.771 8 -11753607.253 7  15982457.219    15982460.820         693.976
       540.736
 -35687297.716 9  38348501.392 8  18412221.822    18412227.258        3373.017
      2635.365
 88  4  2  3 57 59.0800000  0  4G 6G 9G11G13
  -3215711.056 9 -13023202.181 8  15672185.957    15672187.726         -91.562
       -65.692
 -18092739.822 9 -14189283.004 8  16598380.700    16598383.569        2455.193
      1913.361
 -15089977.650 8 -11769624.788 7  15978544.918    15978551.050         681.042
       532.117
 -35788520.530 9  38269626.512 8  18392959.336    18392965.830        3360.442
      2635.695
 88  4  2  3 58 29.0800000  0  4G 6G 9G11G13
  -3213025.726 8 -13021109.720 8  15672694.767    15672699.551         -86.729
       -68.954
 -18166223.170 8 -14246542.704 9  16584397.861    16584401.162        2443.072
      1901.070
 -15109995.326 7 -11785222.985 8  15974737.192    15974741.351         666.848
       520.286
 -35889443.225 8  38190985.506 8  18373755.284    18373759.991        3355.354
      2617.911
 88  4  2  3 58 59.0800000  0  4G 6G 9G11G13
  -3209842.615 8 -13018629.375 8  15673302.311    15673305.391        -111.410
      -101.943
 -18239427.392 9 -14303584.915 8  16570466.470    16570470.188        2436.270
      1902.101
 -15129474.609 8 -11800401.609 7  15971030.752    15971033.367         647.845
       499.414
 -35990062.514 9  38112580.924 8  18354607.574    18354612.185        3359.293
      2601.233
 88  4  2  3 59 29.0800000  0  4G 6G 9G11G13
  -3206158.676 8 -13015758.747 8  15674003.885    15674007.086        -135.628
      -101.179
 -18312347.942 9 -14360406.073 8  16556590.270    16556594.354        2423.479
      1886.921
 -15148414.330 8 -11815159.806 8  15967426.295    15967429.901         608.260
       487.018
 -36090375.275 8  38034415.195 8  18335518.171    18335524.081        3327.380
      2591.943
 88  4  2  3 59 59.0800000  0  4G 6G 9G11G13
  -3201973.636 9 -13012497.671 8  15674799.817    15674801.877        -127.358
      -100.508
 -18384983.568 8 -14417005.213 9  16542768.665    16542772.194        2427.593
      1888.239
 -15166815.654 7 -11829498.481 8  15963923.237    15963928.624         599.018
       478.033
 -36190380.563 8  37956489.055 8  18316488.522    18316493.928        3337.771
      2607.888
 88  4  2  4  0 29.0800000  0  4G 6G 9G11G13
  -3197287.628 7 -13008846.233 8  15675691.362    15675694.424        -157.717
      -124.617
 -18457332.964 8 -14473381.329 9  16529000.938    16529004.199        2418.742
      1869.784
 -15184680.761 8 -11843419.327 8  15960525.125    15960529.136         595.182
       450.040
 -36290077.714 9  37878803.011 7  18297516.542    18297522.700        3342.571
      2575.812
 88  4  2  4  0 59.0800000  0  4G 6G 9G11G13
  -3192097.899 7 -13004802.281 8  15676679.281    15676682.485        -190.005
      -139.729
 -18529391.871 9 -14529531.083 9  16515288.493    16515292.141        2386.757
      1866.024
 -15202008.513 7 -11856921.442 8  15957227.333    15957230.939         562.647
       441.924
 -36389463.546 8  37801359.549 8  18278604.233    18278609.256        3319.134
      2581.678
 88  4  2  4  1 29.0800000  0  4G 6G 9G11G13
  -3186402.358 8 -13000364.189 8  15677762.864    15677766.190        -202.477
      -152.374
 -18601156.794 9 -14585451.750 9  16501631.080    16501634.949        2389.253
      1861.494
 -15218798.661 8 -11870004.656 7  15954031.515    15954036.355         553.014
       422.686
 -36488534.701 8  37724161.301 8  18259751.333    18259757.513        3300.219
      2582.592
 88  4  2  4  1 59.0800000  0  4G 6G 9G11G13
  -3180200.591 9 -12995531.640 8  15678941.930    15678946.120        -228.465
      -158.197
 -18672625.953 8 -14641141.963 8  16488031.324    16488035.044        2394.540
      1839.187
 -15235052.822 7 -11882670.209 7  15950938.797    15950943.067         519.123
       422.786
 -36587290.489 8  37647208.792 8  18240958.100    18240963.927        3310.817
      2563.379
 88  4  2  4  2 29.0800000  0  4G 6G 9G11G13
  -3173491.026 8 -12990303.393 8  15680220.197    15680222.396        -234.558
      -177.633
 -18743796.226 9 -14696599.285 8  16474488.535    16474491.918        2359.142
      1839.522
 -15250771.247 7 -11894918.311 7  15947949.004    15947951.973         511.714
       412.198
 -36685728.800 8  37570503.678 8  18222226.545    18222231.639        3291.049
      2565.516
 88  4  2  4  2 59.0800000  0  4G 6G 9G11G13
  -3166272.767 8 -12984678.785 8  15681593.071    15681596.446        -225.491
      -205.794
 -18814665.278 9 -14751821.883 9  16461002.420    16461004.970        2353.591
      1836.422
 -15265955.031 7 -11906749.815 7  15945059.764    15945063.160         495.375
       402.858
 -36783847.812 8  37494047.352 8  18203554.259    18203560.826        3257.732
      2541.046
 88  4  2  4  3 29.0800000  0  4G 6G 9G11G13
  -3158544.162 9 -12978656.483 8  15683063.403    15683066.753        -271.846
      -201.122
 -18885230.056 9 -14806807.394 9  16447575.404    16447577.778        2352.547
      1838.758
 -15280604.158 8 -11918164.691 7  15942270.616    15942274.882         491.180
       378.755
 -36881645.248 8  37417841.612 8  18184945.528    18184949.507        3261.831
      2542.345
 88  4  2  4  3 59.0800000  0  4G 6G 9G11G13
  -3150303.750 8 -12972235.373 8  15684631.827    15684634.901        -306.064
      -204.620
 -18955487.283 7 -14861553.251 8  16434204.134    16434207.602        2340.569
      1814.114
 -15294718.987 7 -11929163.237 8  15939585.677    15939591.167         456.915
       351.421
 -36979118.458 8  37341888.503 7  18166396.205    18166400.126        3245.667
      2532.434
 88  4  2  4  4 29.0800000  0  4G 6G 9G11G13
  -3141549.027 8 -12965413.517 9  15686298.770    15686301.329        -300.067
      -225.579
 -19025433.413 9 -14916056.684 8  16420894.053    16420897.845        2327.507
      1809.603
 -15308299.169 8 -11939745.185 7  15937000.000    15937005.420         459.698
       339.950
 -37076264.656 8  37266190.218 8  18147909.856    18147915.395        3243.418
      2517.589
 88  4  2  4  4 59.0800000  0  4G 6G 9G11G13
  -3132279.772 9 -12958190.714 8  15688061.536    15688065.222        -312.938
      -253.696
 -19095066.154 8 -14970315.932 9  16407642.963    16407647.280        2308.831
      1798.362
 -15321346.147 8 -11949911.635 7  15934517.809    15934521.756         398.925
       333.401
 -37173082.656 8  37190747.673 8  18129485.118    18129491.070        3216.552
      2518.267
 88  4  2  4  5 29.0800000  0  4G 6G 9G11G13
  -3122497.514 9 -12950568.166 8  15689923.185    15689927.478        -330.744
      -258.201
 -19164385.866 8 -15024331.264 8  16394452.611    16394454.766        2319.477
      1793.783
 -15333863.285 8 -11959665.232 7  15932135.488    15932138.972         421.373
       298.610
 -37269573.332 8  37115560.192 8  18111125.135    18111129.773        3209.200
      2493.094
 88  4  2  4  5 59.0800000  0  4G 6G 9G11G13
  -3112198.155 9 -12942542.707 8  15691883.456    15691886.603        -348.152
      -263.614
 -19233386.342 9 -15078097.837 8  16381321.584    16381325.255        2291.128
      1786.885
 -15345848.393 7 -11969004.252 7  15929855.547    15929859.847         371.350
       306.973
 -37365731.909 9  37040631.472 8  18092825.927    18092830.462        3205.117
      2503.155
 88  4  2  4  6 29.0800000  0  4G 6G 9G11G13
  -3101379.874 8 -12934112.861 9  15693941.138    15693945.646        -371.055
      -291.016
 -19302064.581 9 -15131613.314 8  16368253.148    16368256.840        2295.825
      1783.238
 -15357301.616 8 -11977928.824 8  15927675.926    15927680.319         364.978
       292.992
 -37461555.687 9  36965963.640 8  18074591.181    18074596.345        3182.103
      2492.249
 88  4  2  4  6 59.0800000  0  4G 6G 9G11G13
  -3090042.200 8 -12925278.304 8  15696099.837    15696103.124        -380.185
      -302.450
 -19370418.248 9 -15184875.874 8  16355246.662    16355248.676        2254.861
      1774.098
 -15368224.145 7 -11986439.868 8  15925597.833    15925601.891         360.329
       274.115
 -37557043.757 9  36891557.402 7  18056420.312    18056424.676        3182.948
      2474.323
 88  4  2  4  7 29.0800000  0  4G 6G 9G11G13
  -3078182.806 9 -12916037.224 8  15698355.397    15698360.048        -401.509
      -314.262
 -19438443.490 9 -15237882.530 8  16342301.098    16342304.296        2243.386
      1768.741
 -15378615.816 8 -11994537.253 8  15923619.359    15923624.318         341.972
       272.108
 -37652193.083 9  36817415.113 7  18038314.566    18038318.712        3140.756
      2470.041
 88  4  2  4  7 59.0800000  0  4G 6G 9G11G13
  -3065802.551 8 -12906390.278 8  15700712.050    15700715.657        -405.360
      -318.960
 -19506139.371 8 -15290632.548 8  16329418.819    16329422.338        2263.904
      1738.548
 -15388479.126 8 -12002222.922 7  15921743.605    15921748.192         324.429
       258.997
 -37747003.302 9  36743537.054 7  18020272.787    18020277.452        3154.974
      2460.217
 88  4  2  4  8 29.0800000  0  4G 6G 9G11G13
  -3052902.463 9 -12896338.248 8  15703167.677    15703170.216        -438.821
      -338.483
 -19573505.045 9 -15343125.242 7  16316599.200    16316602.666        2231.927
      1742.960
 -15397816.856 8 -12009499.069 8  15919965.384    15919970.082         311.853
       228.506
 -37841474.906 8  36669922.865 8  18002295.435    18002299.642        3142.096
      2447.995
 88  4  2  4  8 59.0800000  0  4G 6G 9G11G13
  -3039478.493 8 -12885878.007 8  15705720.773    15705724.427        -460.065
      -355.006
 -19640535.079 9 -15395356.406 8  16303844.288    16303846.884        2236.289
      1740.649
 -15406626.875 8 -12016363.990 8  15918290.485    15918292.802         278.544
       226.579
 -37935602.662 8  36596576.610 9  17984381.997    17984388.008        3125.932
      2426.619
 88  4  2  4  9 29.0800000  0  4G 6G 9G11G13
  -3025529.797 8 -12875008.914 7  15708375.606    15708380.270        -475.216
      -362.158
 -19707226.766 9 -15447323.937 7  16291153.066    16291157.271        2214.136
      1726.028
 -15414910.374 8 -12022818.652 7  15916712.114    15916716.380         272.755
       208.323
 -38029385.492 8  36523499.124 7  17966537.378    17966541.771        3117.447
      2435.915
 88  4  2  4  9 59.0800000  0  4G 6G 9G11G13
  -3011056.946 8 -12863731.366 8  15711130.316    15711132.617        -496.499
      -395.364
 -19773578.720 9 -15499026.734 8  16278527.090    16278529.794        2214.694
      1730.520
 -15422670.007 7 -12028865.110 6  15915236.201    15915239.426         266.798
       186.830
 -38122822.844 9  36450690.854 7  17948755.753    17948760.128        3117.599
      2405.828
 88  4  2  4 10 29.0800000  0  4G 6G 9G11G13
  -2996055.349 9 -12852041.805 8  15713984.794    15713987.898        -514.808
      -406.736
 -19839584.843 9 -15550460.050 8  16265966.007    16265969.767        2193.307
      1718.447
 -15429903.046 9 -12034501.218 6  15913859.933    15913865.622         240.507
       192.484
 -38215909.330 8  36378155.962 8  17931041.597    17931047.593        3109.449
      2407.077
 88  4  2  4 10 59.0800000  0  4G 6G 9G11G13
  -2980524.385 9 -12839939.738 7  15716939.528    15716942.830        -534.401
      -397.589
 -19905242.328 9 -15601621.683 8  16253472.853    16253475.458        2182.789
      1697.432
 -15436610.641 9 -12039727.876 7  15912582.977    15912587.479         211.663
       158.594
 -38308643.856 8  36305895.338 7  17913396.030    17913400.095        3096.897
      2406.418
 88  4  2  4 11 29.0800000  0  4G 6G 9G11G13
  -2964464.464 8 -12827425.524 7  15719995.881    15719998.722        -561.642
      -410.010
 -19970550.016 8 -15652510.789 8  16241043.893    16241048.357        2160.795
      1692.343
 -15442794.864 9 -12044546.757 6  15911406.193    15911410.709         196.959
       154.680
 -38401025.579 9  36233909.640 8  17895815.720    17895820.559        3056.316
      2395.308
 88  4  2  4 11 59.0800000  0  4G 6G 9G11G13
  -2947877.427 9 -12814500.549 8  15723151.929    15723156.253        -569.792
      -444.621
 -20035507.773 9 -15703127.185 7  16228683.830    16228686.190        2157.095
      1676.951
 -15448459.491 8 -12048960.721 7  15910328.166    15910332.125         174.487
       129.688
 -38493055.635 8  36162197.950 7  17878303.105    17878307.339        3058.333
      2401.522
 88  4  2  4 12 29.0800000  0  4G 6G 9G11G13
  -2930760.330 9 -12801162.566 7  15726409.115    15726412.701        -580.134
      -461.597
 -20100110.705 9 -15753467.108 7  16216390.126    16216393.963        2153.611
      1656.775
 -15453603.587 8 -12052969.081 7  15909350.347    15909353.608         164.942
       140.637
 -38584730.425 8  36090763.090 8  17860857.906    17860863.096        3051.882
      2374.306
 88  4  2  4 12 59.0800000  0  4G 6G 9G11G13
  -2913109.931 8 -12787409.009 8  15729767.979    15729771.512        -601.394
      -458.577
 -20164353.990 8 -15803526.792 7  16204165.252    16204168.885        2132.758
      1663.107
 -15458225.999 8 -12056570.943 7  15908470.934    15908474.814         139.830
        96.208
 -38676045.829 8  36019608.293 7  17843481.311    17843485.360        3033.804
      2355.857
 88  4  2  4 13 29.0800000  0  4G 6G 9G11G13
  -2894927.007 8 -12773240.483 8  15733229.062    15733231.127        -596.306
      -476.641
 -20228236.273 9 -15853305.174 7  16192008.457    16192011.805        2121.881
      1655.663
 -15462329.045 8 -12059768.124 7  15907689.794    15907693.761         128.116
       103.646
 -38767001.562 9  35948733.729 8  17826172.667    17826176.939        3025.136
      2358.119
 88  4  2  4 13 59.0800000  0  4G 6G 9G11G13
  -2876211.708 9 -12758657.143 8  15736789.358    15736792.919        -629.512
      -481.040
 -20291755.801 8 -15902800.894 8  16179921.575    16179923.782        2129.026
      1639.265
 -15465914.810 8 -12062562.206 7  15907006.284    15907010.009         117.678
        82.190
 -38857596.480 9  35878140.331 8  17808933.009    17808937.833        3016.882
      2353.123
 88  4  2  4 14 29.0800000  0  4G 6G 9G11G13
  -2856963.215 8 -12743658.321 8  15740452.809    15740456.449        -649.041
      -516.073
 -20354909.772 8 -15952011.748 7  16167903.454    16167906.343        2092.009
      1632.212
 -15468984.600 8 -12064954.229 7  15906421.938    15906428.328         102.797
        90.858
 -38947829.813 9  35807828.703 7  17791761.943    17791766.305        3005.511
      2349.450
 88  4  2  4 14 59.0800000  0  4G 6G 9G11G13
  -2837177.067 8 -12728240.542 7  15744218.232    15744221.253        -668.945
      -506.933
 -20417691.761 9 -16000932.757 7  16155956.299    16155958.888        2092.471
      1631.516
 -15471535.839 9 -12066942.187 7  15905937.473    15905940.741          57.926
        69.799
 -39037696.100 8  35737803.069 8  17774660.080    17774666.999        2993.541
      2355.211
 88  4  2  4 15 29.0800000  0  4G 6G 9G11G13
  -2816854.767 7 -12712404.984 8  15748086.294    15748088.606        -683.873
      -514.613
 -20480101.195 9 -16049563.451 7  16144080.380    16144083.456        2075.876
      1607.618
 -15473571.512 8 -12068528.403 7  15905549.834    15905554.094          72.742
        51.494
 -39127195.796 9  35668063.086 7  17757630.556    17757635.373        2965.520
      2319.842
 88  4  2  4 15 59.0800000  0  4G 6G 9G11G13
  -2795997.929 8 -12696152.905 7  15752053.647    15752057.966        -699.375
      -538.058
 -20542137.733 8 -16097903.607 7  16132274.962    16132276.764        2069.019
      1621.903
 -15475095.390 7 -12069715.846 7  15905260.936    15905265.537          26.555
        39.433
 -39216329.393 9  35598608.384 8  17740668.251    17740673.650        2969.180
      2305.587
 88  4  2  4 16 29.0800000  0  4G 6G 9G11G13
  -2774604.316 7 -12679482.559 7  15756125.111    15756128.036        -719.024
      -557.370
 -20603797.077 9 -16145949.831 7  16120541.133    16120544.968        2063.381
      1603.902
 -15476107.147 8 -12070504.203 7  15905067.663    15905072.437          31.778
        23.457
 -39305093.646 8  35529441.490 7  17723776.173    17723781.006        2954.204
      2285.908
 88  4  2  4 16 59.0800000  0  4G 6G 9G11G13
  -2752669.509 8 -12662390.500 8  15760298.997    15760301.173        -727.963
      -569.736
 -20665072.774 8 -16193697.089 7  16108880.801    16108884.896        2051.379
      1581.290
 -15476603.995 7 -12070891.334 7  15904972.740    15904976.377          15.406
         9.153
 -39393483.263 9  35460566.510 7  17706957.161    17706961.092        2930.935
      2279.415
 88  4  2  4 17 29.0800000  0  4G 6G 9G11G13
  -2730194.403 8 -12644877.444 9  15764575.464    15764578.275        -757.731
      -586.445
 -20725963.755 8 -16241144.595 8  16097294.015    16097296.347        2029.147
      1576.636
 -15476588.680 8 -12070879.391 6  15904974.754    15904980.206         -10.430
         1.833
 -39481498.173 8  35391983.496 8  17690208.201    17690213.295        2935.121
      2293.794
 88  4  2  4 17 59.0800000  0  4G 6G 9G11G13
  -2707181.644 9 -12626945.419 8  15768955.453    15768958.026        -789.748
      -608.404
 -20786470.437 8 -16288292.634 8  16085779.984    16085783.729        2000.120
      1573.871
 -15476065.726 9 -12070471.879 6  15905076.351    15905080.737         -37.719
       -19.648
 -39569140.406 9  35323690.892 8  17673529.915    17673535.063        2902.993
      2258.897
 88  4  2  4 18 29.0800000  0  4G 6G 9G11G13
  -2683631.051 8 -12608594.314 8  15773436.633    15773439.464        -757.891
      -623.839
 -20846590.505 9 -16335139.417 7  16074339.384    16074341.384        1973.884
      1550.308
 -15475036.891 8 -12069670.172 7  15905270.486    15905275.759         -32.480
       -14.192
 -39656408.733 8  35255689.636 8  17656923.032    17656928.195        2899.620
      2257.542
 88  4  2  4 18 59.0800000  0  4G 6G 9G11G13
  -2659538.209 8 -12589820.671 7  15778021.355    15778025.596        -819.174
      -633.862
 -20906317.417 9 -16381679.847 9  16062973.417    16062975.461        1978.725
      1548.748
 -15473499.703 8 -12068472.337 7  15905564.078    15905567.364         -36.331
       -39.470
 -39743297.978 9  35187983.777 7  17640388.641    17640393.710        2899.635
      2262.091
 88  4  2  4 19 29.0800000  0  4G 6G 9G11G13
  -2634901.975 8 -12570623.609 8  15782711.225    15782713.146        -833.105
      -648.110
 -20965648.147 9 -16427911.568 7  16051683.040    16051685.555        1973.876
      1551.613
 -15471455.185 8 -12066879.198 7  15905952.185    15905955.849         -86.633
       -60.174
 -39829806.048 8  35120574.943 8  17623926.045    17623932.364        2883.440
      2235.017
 88  4  2  4 19 59.0800000  0  4G 6G 9G11G13
  -2609721.725 9 -12551002.626 8  15787500.741    15787504.545        -874.619
      -671.443
 -21024579.578 9 -16473832.149 7  16040469.302    16040471.076        1959.794
      1520.681
 -15468904.329 7 -12064891.495 8  15906437.629    15906442.294         -81.075
       -54.072
 -39915930.975 9  35053464.664 7  17607537.171    17607541.599        2862.523
      2232.296
 88  4  2  4 20 29.0800000  0  4G 6G 9G11G13
  -2584000.396 8 -12530960.048 8  15792395.315    15792398.114        -870.513
      -661.109
 -21083112.339 8 -16519442.074 7  16029331.622    16029333.011        1960.232
      1518.711
 -15465851.820 8 -12062512.903 8  15907019.429    15907023.253        -114.384
      -102.608
 -40001674.844 9  34986651.285 8  17591221.618    17591225.849        2859.923
      2216.569
 88  4  2  4 20 59.0800000  0  4G 6G 9G11G13
  -2557737.008 9 -12510495.072 7  15797393.492    15797395.650        -874.548
      -686.368
 -21141243.546 9 -16564739.077 8  16018268.950    16018271.535        1905.050
      1506.426
 -15462298.467 8 -12059744.044 7  15907695.027    15907698.786        -115.540
      -101.800
 -40087036.323 9  34920135.920 8  17574977.367    17574981.555        2828.337
      2212.996
 88  4  2  4 21 29.0800000  0  4G 6G 9G11G13
  -2530928.959 8 -12489605.699 7  15802494.720    15802497.883        -888.838
      -696.671
 -21198968.451 8 -16609719.514 7  16007283.816    16007286.435        1915.743
      1478.856
 -15458243.492 8 -12056584.310 7  15908466.350    15908470.659        -139.830
      -105.578
 -40172011.130 8  34853921.803 8  17558808.073    17558813.410        2816.965
      2202.401
 88  4  2  4 21 59.0800000  0  4G 6G 9G11G13
  -2503575.275 8 -12468291.130 8  15807701.142    15807703.685        -918.431
      -711.764
 -21256283.582 8 -16654380.644 8  15996376.439    15996380.146        1912.610
      1483.889
 -15453687.857 8 -12053034.449 7  15909335.050    15909337.246        -161.361
      -106.952
 -40256597.454 9  34788010.423 7  17542710.776    17542715.788        2821.551
      2190.558
 88  4  2  4 22 29.0800000  0  4G 6G 9G11G13
  -2475674.802 8 -12446550.513 8  15813009.730    15813013.177        -938.765
      -722.974
 -21313185.440 8 -16698719.738 7  15985549.260    15985551.865        1902.514
      1469.790
 -15448631.935 8 -12049094.756 7  15910296.063    15910298.406        -171.688
      -144.595
 -40340793.245 8  34722403.354 7  17526689.446    17526692.881        2803.249
      2177.254
 88  4  2  4 22 59.0800000  0  4G 6G 9G11G13
  -2447228.967 8 -12424384.929 7  15818422.583    15818427.239        -961.907
      -734.830
 -21369673.433 9 -16742736.334 7  15974800.237    15974802.193        1872.953
      1477.371
 -15443079.330 8 -12044768.036 7  15911352.478    15911356.568        -185.284
      -169.158
 -40424598.672 8  34657100.463 8  17510741.413    17510745.460        2805.825
      2163.814
 88  4  2  4 23 29.0800000  0  4G 6G 9G11G13
  -2418238.514 8 -12401794.972 7  15823939.781    15823943.561        -962.553
      -765.122
 -21425745.837 8 -16786429.110 7  15964128.504    15964133.142        1858.272
      1440.734
 -15437032.470 8 -12040056.196 7  15912501.982    15912507.211        -199.271
      -176.117
 -40508013.579 9  34592101.869 7  17494867.832    17494872.537        2772.102
      2157.830
 88  4  2  4 23 59.0800000  0  4G 6G 9G11G13
  -2388702.941 8 -12378780.243 8  15829559.700    15829561.463       -1010.096
      -760.437
 -21481399.920 9 -16829795.913 8  15953539.261    15953542.095        1843.512
      1427.201
 -15430492.945 8 -12034960.429 7  15913746.795    15913749.987        -234.598
      -187.203
 -40591036.775 8  34527408.512 7  17479069.455    17479073.590        2750.332
      2158.526
 88  4  2  4 24 29.0800000  0  4G 6G 9G11G13
  -2358619.581 8 -12355338.673 8  15835284.876    15835287.163        -996.810
      -782.962
 -21536630.627 8 -16872832.806 8  15943029.059    15943032.138        1855.840
      1424.634
 -15423459.498 7 -12029479.798 7  15915086.446    15915089.182        -230.291
      -189.322
 -40673663.969 8  34463023.720 7  17463345.509    17463351.431        2750.308
      2128.358
 88  4  2  4 24 59.0800000  0  4G 6G 9G11G13
  -2327988.128 8 -12331470.020 7  15841113.619    15841117.036       -1033.453
      -810.669
 -21591435.212 8 -16915537.662 8  15932599.110    15932602.973        1817.930
      1421.335
 -15415933.589 7 -12023615.456 7  15916518.177    15916522.156        -253.856
      -201.774
 -40755894.254 9  34398948.215 7  17447698.050    17447703.210        2737.341
      2143.234
 88  4  2  4 25 29.0800000  0  4G 6G 9G11G13
  -2296807.689 9 -12307173.578 9  15847046.617    15847048.731       -1046.866
      -810.843
 -21645810.679 8 -16957908.139 7  15922252.668    15922254.912        1823.249
      1431.886
 -15407916.382 8 -12017368.264 8  15918042.368    15918047.801        -247.293
      -202.781
 -40837725.786 8  34335183.430 8  17432126.396    17432131.673        2731.002
      2105.634
 88  4  2  4 25 59.0800000  0  4G 6G 9G11G13
  -2265078.457 9 -12282449.507 8  15853084.503    15853086.870       -1068.962
      -831.560
 -21699754.588 8 -16999942.339 8  15911986.960    15911990.335        1773.345
      1392.950
 -15399409.667 8 -12010739.657 7  15919661.929    15919667.190        -276.846
      -216.532
 -40919157.410 8  34271730.247 8  17416628.649    17416633.095        2709.965
      2120.646
 88  4  2  4 26 29.0800000  0  4G 6G 9G11G13
  -2232800.623 8 -12257297.950 7  15859226.640    15859229.990       -1061.498
      -843.068
 -21753264.802 8 -17041638.592 8  15901803.845    15901807.809        1785.530
      1385.320
 -15390415.807 8 -12003731.441 7  15921372.994    15921378.254        -302.906
      -229.307
 -41000188.291 9  34208589.358 7  17401210.390    17401214.777        2682.629
      2120.939
 88  4  2  4 26 59.0800000  0  4G 6G 9G11G13
  -2199974.355 9 -12231719.048 8  15865474.280    15865477.660       -1093.077
      -867.028
 -21806339.043 8 -17082995.130 7  15891704.126    15891707.728        1757.971
      1388.601
 -15380936.329 8 -11996344.813 7  15923176.713    15923181.553        -315.856
      -256.281
 -41080817.623 8  34145761.323 7  17385866.896    17385871.143        2681.090
      2086.085
 88  4  2  4 27 29.0800000  0  4G 6G 9G11G13
  -2166600.434 9 -12205713.412 7  15871824.814    15871828.238       -1114.448
      -867.674
 -21858975.678 9 -17124010.673 8  15881689.259    15881690.845        1745.052
      1373.930
 -15370973.951 8 -11988581.913 8  15925072.569    15925076.613        -323.942
      -252.447
 -41161045.873 8  34083245.846 7  17370600.207    17370604.214        2673.985
      2078.511
 88  4  2  4 27 59.0800000  0  4G 6G 9G11G13
  -2132678.428 8 -12179280.695 7  15878279.988    15878283.338       -1141.768
      -891.784
 -21911171.812 8 -17164682.969 8  15871755.563    15871758.008        1735.180
      1355.146
 -15360529.788 8 -11980443.589 8  15927059.531    15927064.319        -374.197
      -286.642
 -41240870.422 8  34021044.938 8  17355410.084    17355415.202        2653.842
      2075.907
 88  4  2  4 28 29.0800000  0  4G 6G 9G11G13
  -2098204.370 9 -12152417.794 8  15884840.053    15884842.995       -1156.178
      -909.891
 -21962921.082 9 -17205007.070 8  15861908.437    15861911.139        1710.204
      1337.119
 -15349601.907 9 -11971928.346 8  15929139.949    15929143.051        -366.972
      -302.785
 -41320286.493 9  33959162.328 7  17340297.360    17340302.093        2645.094
      2059.093
 88  4  2  4 28 59.0800000  0  4G 6G 9G11G13
  -2063179.134 9 -12125125.415 8  15891505.009    15891508.175       -1174.894
      -916.086
 -22014221.890 8 -17244981.707 8  15852146.498    15852149.304        1723.833
      1327.550
 -15338192.659 8 -11963038.025 8  15931311.771    15931314.575        -375.768
      -283.796
 -41399293.813 9  33897598.222 8  17325263.381    17325267.323        2626.107
      2033.324
 88  4  2  4 29 29.0800000  0  4G 6G 9G11G13
  -2027605.364 9 -12097405.607 7  15898275.033    15898276.850       -1196.050
      -935.659
 -22065074.256 9 -17284606.915 7  15842469.339    15842471.371        1699.367
      1310.120
 -15326306.945 8 -11953776.416 8  15933574.536    15933575.836        -364.564
      -295.596
 -41477894.515 9  33836350.952 7  17310306.060    17310311.181        2609.050
      2048.188
 88  4  2  4 29 59.0800000  0  4G 6G 9G11G13
  -1991481.853 8 -12069257.422 8  15905148.581    15905151.488       -1223.027
      -943.290
 -22115474.498 8 -17323879.830 7  15832879.493    15832881.197        1665.317
      1284.433
 -15313944.767 8 -11944143.533 8  15935925.497    15935929.385        -412.394
      -332.630
 -41556086.060 8  33775422.507 8  17295425.948    17295431.957        2599.226
      2053.270
 88  4  2  4 30 29.0800000  0  4G 6G 9G11G13
  -1954806.210 8 -12040679.013 8  15912126.815    15912130.305       -1221.568
      -941.432
 -22165417.696 8 -17362796.593 8  15823375.310    15823377.140        1652.494
      1287.434
 -15301105.583 8 -11934138.977 7  15938368.127    15938371.095        -417.840
      -348.450
 -41633864.422 9  33714816.032 6  17280626.021    17280630.698        2592.216
      2017.740
 88  4  2  4 30 59.0800000  0  4G 6G 9G11G13
  -1917579.811 8 -12011671.438 7  15919211.642    15919214.318       -1241.504
      -969.922
 -22214902.748 9 -17401356.369 8  15813958.665    15813960.406        1625.700
      1287.608
 -15287792.664 9 -11923765.249 7  15940902.824    15940906.222        -462.951
      -349.215
 -41711230.234 9  33654531.027 8  17265903.323    17265907.814        2578.787
      1994.165
 88  4  2  4 31 29.0800000  0  4G 6G 9G11G13
  -1879804.186 8 -11982235.898 7  15926399.784    15926403.492       -1277.348
     -1009.013
 -22263928.510 9 -17439558.250 9  15804629.134    15804632.498        1627.734
      1250.555
 -15274009.113 8 -11913024.817 7  15943525.015    15943528.103        -450.001
      -362.643
 -41788184.140 9  33594566.976 8  17251259.606    17251263.395        2563.787
      1993.773
 88  4  2  4 31 59.0800000  0  4G 6G 9G11G13
  -1841478.546 8 -11952371.779 8  15933692.938    15933696.797       -1304.525
     -1009.933
 -22312491.575 9 -17477399.585 7  15795387.978    15795389.552        1619.305
      1253.724
 -15259755.580 8 -11901918.157 8  15946237.508    15946241.613        -480.487
      -348.239
 -41864724.031 9  33534925.545 8  17236693.845    17236699.191        2549.186
      1976.381
 88  4  2  4 32 29.0800000  0  4G 6G 9G11G13
  -1802601.881 9 -11922078.271 8  15941091.407    15941094.579       -1309.900
     -1014.692
 -22360588.265 8 -17514877.521 8  15786235.082    15786237.502        1595.350
      1231.553
 -15245033.144 9 -11890446.126 8  15949038.917    15949043.110        -496.276
      -383.353
 -41940847.301 9  33475608.741 7  17222209.355    17222213.373        2522.289
      1982.850
 88  4  2  4 32 59.0800000  0  4G 6G 9G11G13
  -1763174.163 8 -11891355.386 8  15948594.631    15948597.722       -1311.790
     -1035.080
 -22408216.163 9 -17551990.155 7  15777171.479    15777175.211        1585.565
      1248.076
 -15229843.250 8 -11878609.824 7  15951929.317    15951933.197        -515.112
      -410.271
 -42016553.424 9  33416616.993 7  17207801.457    17207807.537        2530.176
      1954.105
 88  4  2  4 33 29.0800000  0  4G 6G 9G11G13
  -1723195.400 9 -11860203.107 8  15956202.371    15956205.004       -1342.953
     -1048.912
 -22455372.656 8 -17588735.470 8  15768198.800    15768199.584        1570.318
      1244.671
 -15214187.408 8 -11866410.449 7  15954907.505    15954912.301        -526.914
      -425.302
 -42091841.108 9  33357951.304 8  17193475.483    17193478.450        2497.202
      1959.560
 88  4  2  4 33 59.0800000  0  4G 6G 9G11G13
  -1682665.334 9 -11828621.260 8  15963913.955    15963917.038       -1370.138
     -1066.211
 -22502054.638 9 -17625111.041 6  15759314.382    15759316.955        1554.114
      1216.404
 -15198066.928 8 -11853849.038 7  15957975.770    15957980.159        -529.194
      -422.544
 -42166708.687 9  33299612.954 8  17179228.953    17179232.177        2492.935
      1936.321
 88  4  2  4 34 29.0800000  0  4G 6G 9G11G13
  -1641584.052 9 -11796609.874 7  15971732.732    15971735.136       -1375.529
     -1075.165
 -22548259.747 9 -17661115.008 8  15750521.802    15750524.162        1529.290
      1189.530
 -15181483.967 8 -11840927.235 8  15961130.399    15961136.600        -531.786
      -434.977
 -42241154.833 8  33241603.011 8  17165062.329    17165064.690        2462.242
      1944.970
 88  4  2  4 34 59.0800000  0  4G 6G 9G11G13
  -1599953.194 8 -11764170.254 8  15979653.124    15979657.498       -1387.227
     -1073.835
 -22593986.860 7 -17696746.522 7  15741821.025    15741822.785        1523.405
      1180.097
 -15164442.027 9 -11827647.786 7  15964375.427    15964378.547        -553.572
      -467.898
 -42315180.501 9  33183920.707 8  17150975.319    17150979.386        2457.537
      1917.611
 88  4  2  4 35 29.0800000  0  4G 6G 9G11G13
  -1557772.305 8 -11731302.052 8  15987680.613    15987683.692       -1390.162
     -1097.833
 -22639232.829 9 -17732003.093 8  15733210.205    15733213.692        1485.750
      1176.002
 -15146941.597 8 -11814011.091 8  15967705.227    15967710.045        -576.004
      -456.303
 -42388783.700 9  33126567.604 7  17136969.272    17136973.804        2456.229
      1911.727
 88  4  2  4 35 59.0800000  0  4G 6G 9G11G13
  -1515040.732 8 -11698004.739 8  15995812.797    15995815.914       -1432.904
     -1124.111
 -22683994.397 8 -17766882.238 8  15724691.703    15724695.578        1472.266
      1155.211
 -15128983.895 7 -11800018.063 6  15971121.751    15971126.509        -580.701
      -452.500
 -42461963.011 9  33069544.805 8  17123042.940    17123047.257        2434.906
      1904.891
 88  4  2  4 36 29.0800000  0  4G 6G 9G11G13
  -1471758.036 8 -11664277.954 8  16004048.031    16004051.308       -1439.323
     -1124.745
 -22728268.364 8 -17801381.425 7  15716267.415    15716270.319        1479.395
      1149.724
 -15110570.300 8 -11785669.802 7  15974625.918    15974628.792        -619.496
      -461.050
 -42534716.633 8  33012853.706 7  17109198.270    17109202.436        2439.730
      1902.679
 88  4  2  4 36 59.0800000  0  4G 6G 9G11G13
  -1427923.409 8 -11630121.125 8  16012390.248    16012394.325       -1494.028
     -1155.522
 -22772051.363 8 -17835498.036 7  15707936.774    15707937.786        1445.352
      1139.272
 -15091701.348 8 -11770966.723 7  15978217.433    15978219.746        -653.100
      -507.194
 -42607042.503 9  32956495.908 7  17095435.298    17095440.542        2414.811
      1881.173
 88  4  2  4 37 29.0800000  0  4G 6G 9G11G13
  -1383539.974 9 -11595536.642 7  16020836.080    16020839.984       -1496.428
     -1147.692
 -22815343.457 9 -17869232.135 8  15699697.388    15699700.720        1447.003
      1126.745
 -15072381.897 8 -11755912.604 6  15981893.774    15981895.836        -653.602
      -499.601
 -42678942.784 9  32900469.749 7  17081754.108    17081756.865        2400.401
      1878.091
 88  4  2  4 37 59.0800000  0  4G 6G 9G11G13
  -1338608.887 9 -11560525.408 7  16029386.275    16029389.326       -1511.117
     -1164.494
 -22858143.211 9 -17902582.583 7  15691552.471    15691555.692        1437.354
      1102.810
 -15052614.824 8 -11740509.663 7  15985653.918    15985658.760        -697.142
      -513.196
 -42750417.487 9  32844775.206 7  17068152.122    17068155.417        2372.905
      1853.851
 88  4  2  4 38 29.0800000  0  4G 6G 9G11G13
  -1293128.475 8 -11525086.152 8  16038040.916    16038044.208       -1524.888
     -1192.357
 -22900446.270 8 -17935546.002 7  15683503.291    15683505.508        1393.965
      1091.650
 -15032399.591 8 -11724757.523 7  15989501.067    15989505.895        -677.246
      -511.401
 -42821463.776 9  32789414.486 7  17054632.329    17054636.720        2372.212
      1864.651
 88  4  2  4 38 59.0800000  0  4G 6G 9G11G13
  -1247098.140 8 -11489218.365 7  16046800.062    16046802.140       -1538.915
     -1214.658
 -22942249.292 9 -17968119.779 7  15675548.725    15675551.704        1400.337
      1070.144
 -15011737.330 8 -11708657.051 7  15993432.703    15993437.535        -685.723
      -539.835
 -42892079.137 8  32734389.563 7  17041194.592    17041197.857        2338.624
      1836.950
 88  4  2  4 39 29.0800000  0  4G 6G 9G11G13
  -1200516.561 8 -11452921.041 7  16055663.967    16055666.719       -1533.987
     -1207.394
 -22983548.114 9 -18000300.679 8  15667689.030    15667692.336        1382.044
      1068.572
 -14990628.247 8 -11692208.406 8  15997450.384    15997455.048        -697.637
      -566.113
 -42962261.439 8  32679702.098 7  17027839.614    17027845.060        2345.466
      1815.929
 88  4  2  4 39 59.0800000  0  4G 6G 9G11G13
  -1153386.177 9 -11416196.074 8  16064633.148    16064636.155       -1579.441
     -1221.599
 -23024342.278 8 -18032088.327 8  15659926.988    15659929.534        1340.067
      1040.579
 -14969076.465 8 -11675414.806 7  16001552.515    16001556.758        -732.485
      -570.512
 -43032011.626 9  32625351.324 8  17014565.893    17014570.209        2332.316
      1806.192
 88  4  2  4 40 29.0800000  0  4G 6G 9G11G13
  -1105707.890 8 -11379044.180 8  16073706.146    16073708.894       -1593.994
     -1243.782
 -23064630.052 8 -18063481.394 7  15652259.774    15652263.147        1323.663
      1052.882
 -14947084.107 8 -11658277.900 7  16005736.328    16005741.195        -739.247
      -584.357
 -43101329.588 8  32571337.375 7  17001375.522    17001379.508        2313.712
      1790.806
 88  4  2  4 40 59.0800000  0  4G 6G 9G11G13
  -1057482.808 8 -11341466.197 8  16082882.233    16082885.078       -1595.852
     -1248.896
 -23104409.606 8 -18094478.453 6  15644690.555    15644692.531        1333.344
      1025.107
 -14924654.026 8 -11640799.908 8  16010004.766    16010009.577        -745.315
      -589.315
 -43170214.889 8  32517660.551 7  16988267.556    16988270.165        2301.048
      1785.071
 88  4  2  4 41 29.0800000  0  4G 6G 9G11G13
  -1008710.920 9 -11303462.152 8  16092163.679    16092166.333       -1633.882
     -1269.190
 -23143678.445 8 -18125077.542 8  15637218.533    15637220.564        1306.925
      1017.116
 -14901787.894 8 -11622982.133 7  16014355.212    16014359.985        -761.854
      -588.570
 -43238666.589 9  32464321.592 7  16975241.467    16975245.355        2269.853
      1778.174
 88  4  2  4 41 59.0800000  0  4G 6G 9G11G13
   -959390.898 8 -11265030.978 8  16101548.977    16101552.685       -1629.281
     -1283.960
 -23182431.986 8 -18155275.092 7  15629842.120    15629844.951        1296.606
      1018.824
 -14878485.290 9 -11604824.258 7  16018790.540    16018793.848        -789.812
      -618.446
 -43306682.405 8  32411322.288 7  16962297.966    16962300.985        2267.325
      1741.003
 88  4  2  4 42 29.0800000  0  4G 6G 9G11G13
   -909523.209 9 -11226173.056 7  16111038.740    16111041.471       -1670.046
     -1281.767
 -23220668.165 9 -18185069.512 7  15622567.656    15622570.572        1259.358
       988.532
 -14854748.483 8 -11586328.026 7  16023306.992    16023311.802        -781.327
      -610.113
 -43374261.357 8  32358663.399 6  16949438.193    16949442.870        2230.563
      1744.992
 88  4  2  4 42 59.0800000  0  4G 6G 9G11G13
   -859108.868 9 -11186889.145 8  16120630.933    16120635.575       -1691.082
     -1312.886
 -23258384.782 7 -18214459.070 7  15615389.029    15615393.048        1249.590
       974.968
 -14830580.394 8 -11567495.747 7  16027907.141    16027908.978        -820.801
      -617.557
 -43441403.030 9  32306345.247 7  16936661.578    16936665.983        2240.659
      1761.328
 88  4  2  4 43 29.0800000  0  4G 6G 9G11G13
   -808148.912 9 -11147180.114 7  16130329.191    16130332.633       -1694.184
     -1328.457
 -23295580.381 8 -18243442.662 7  15608310.936    15608314.369        1236.209
       959.700
 -14805983.088 8 -11548329.005 7  16032586.764    16032591.696        -825.473
      -636.739
 -43508106.851 8  32254368.259 6  16923968.979    16923972.690        2209.463
      1712.103
 88  4  2  4 43 59.0800000  0  4G 6G 9G11G13
   -756644.101 9 -11107046.518 8  16140131.088    16140134.672       -1725.627
     -1354.760
 -23332252.561 9 -18272018.387 7  15601332.203    15601335.925        1209.120
       937.064
 -14780958.511 9 -11528829.332 8  16037349.219    16037353.056        -846.350
      -662.483
 -43574372.462 9  32202732.767 7  16911358.975    16911362.360        2200.819
      1734.820
 88  4  2  4 44 29.0800000  0  4G 6G 9G11G13
   -704594.995 9 -11066488.780 8  16150035.468    16150037.392       -1748.529
     -1360.875
 -23368399.195 7 -18300184.578 6  15594454.361    15594457.339        1218.163
       931.285
 -14755508.716 8 -11508998.310 8  16042191.313    16042196.368        -836.231
      -665.944
 -43640199.076 9  32151439.340 7  16898832.657    16898835.985        2195.484
      1697.513
 88  4  2  4 44 59.0800000  0  4G 6G 9G11G13
   -652000.851 8 -11025506.346 7  16160043.523    16160045.438       -1735.794
     -1383.909
 -23404016.721 9 -18327938.491 7  15587675.851    15587679.470        1173.387
       926.214
 -14729634.308 9 -11488836.432 7  16047114.685    16047119.140        -855.337
      -687.319
 -43705584.738 9  32100489.497 8  16886390.263    16886394.074        2168.977
      1680.002
 88  4  2  4 45 29.0800000  0  4G 6G 9G11G13
   -598863.140 8 -10984100.345 8  16170155.605    16170157.134       -1788.640
     -1383.350
 -23439103.515 8 -18355278.834 7  15581000.522    15581002.038        1161.593
       899.681
 -14703338.388 9 -11468346.084 7  16052120.087    16052123.689        -869.683
      -688.767
 -43770529.936 7  32049882.877 6  16874031.369    16874036.008        2175.763
      1675.789
 88  4  2  4 45 59.0800000  0  4G 6G 9G11G13
   -545181.442 9 -10942270.466 9  16180371.423    16180373.586       -1801.160
     -1393.161
 -23473656.302 9 -18382203.090 8  15574424.395    15574426.583        1143.810
       903.304
 -14676621.779 9 -11447527.947 8  16057204.067    16057207.273        -886.772
      -726.248
 -43835033.149 8  31999620.645 8  16861756.429    16861761.498        2135.596
      1678.996
 88  4  2  4 46 29.0800000  0  4G 6G 9G11G13
   -490957.343 8 -10900017.933 9  16190688.199    16190693.046       -1801.758
     -1424.429
 -23507673.925 8 -18408710.335 7  15567951.823    15567954.543        1130.166
       872.080
 -14649487.619 8 -11426384.446 8  16062368.310    16062370.308        -897.817
      -703.730
 -43899094.199 9  31949702.988 7  16849565.509    16849569.178        2115.070
      1640.408
 88  4  2  4 46 59.0800000  0  4G 6G 9G11G13
   -436190.634 8 -10857342.582 8  16201111.003    16201115.133       -1840.896
     -1427.778
 -23541153.094 8 -18434797.985 7  15561579.757    15561583.065        1114.528
       850.735
 -14621936.946 8 -11404916.385 7  16067610.285    16067614.502        -909.930
      -710.136
 -43962711.618 9  31900131.000 7  16837459.497    16837464.283        2124.129
      1654.488
 88  4  2  4 47 29.0800000  0  4G 6G 9G11G13
   -380882.723 9 -10814245.516 8  16211635.538    16211638.794       -1848.025
     -1449.781
 -23574092.312 8 -18460464.902 7  15555311.953    15555314.571        1093.587
       850.356
 -14593972.565 8 -11383125.955 8  16072931.466    16072935.781        -936.301
      -720.370
 -44025885.319 9  31850904.769 7  16825437.455    16825441.287        2098.731
      1643.478
 88  4  2  4 47 59.0800000  0  4G 6G 9G11G13
   -325034.832 8 -10770727.702 8  16222263.563    16222267.211       -1876.948
     -1455.374
 -23606489.947 8 -18485709.807 7  15549146.458    15549149.792        1068.819
       833.784
 -14565596.801 8 -11361014.959 8  16078332.059    16078335.573        -948.542
      -735.047
 -44088614.848 9  31802024.647 7  16813501.454    16813504.033        2082.216
      1624.836
 88  4  2  4 48 29.0800000  0  4G 6G 9G11G13
   -268647.816 9 -10726789.787 8  16232992.933    16232996.156       -1887.937
     -1472.704
 -23638343.777 8 -18510530.961 7  15543085.999    15543087.912        1042.193
       829.497
 -14536811.977 8 -11338585.214 7  16083808.754    16083812.569        -956.484
      -745.244
 -44150900.421 8  31753490.459 7  16801648.763    16801653.677        2060.630
      1617.697
 88  4  2  4 48 59.0800000  0  4G 6G 9G11G13
   -211721.204 9 -10682431.407 7  16243825.966    16243829.807       -1904.077
     -1468.783
 -23669650.437 8 -18534925.771 7  15537128.271    15537130.687        1038.237
       816.796
 -14507618.570 7 -11315837.098 8  16089364.080    16089368.633        -986.292
      -777.823
 -44212740.071 8  31705303.761 8  16789880.184    16789883.988        2050.494
      1582.657
 88  4  2  4 49 29.0800000  0  4G 6G 9G11G13
   -154254.298 8 -10637651.997 7  16254761.531    16254765.173       -1914.946
     -1514.945
 -23700406.327 8 -18558891.377 7  15531275.898    15531278.358        1011.818
       783.813
 -14478017.172 9 -11292771.058 8  16094997.865    16095000.111        -990.790
      -757.721
 -44274131.561 9  31657466.256 7  16778198.532    16778201.221        2048.301
      1602.119
 88  4  2  4 49 59.0800000  0  4G 6G 9G11G13
    -96250.208 9 -10592454.037 9  16265799.555    16265803.080       -1947.713
     -1503.450
 -23730611.622 8 -18582427.982 7  15525527.794    15525531.200         996.547
       778.332
 -14448012.574 9 -11269390.860 7  16100707.391    16100710.367       -1017.911
      -778.575
 -44335077.098 8  31609976.251 8  16766601.254    16766605.359        2012.791
      1574.958
 88  4  2  4 50 29.0800000  0  4G 6G 9G11G13
    -37711.015 9 -10546839.104 8  16276940.010    16276942.879       -1955.743
     -1536.812
 -23760265.465 8 -18605534.871 7  15519883.707    15519889.228         976.069
       765.029
 -14417608.114 8 -11245699.071 8  16106492.642    16106496.955       -1008.094
      -812.272
 -44395577.005 8  31562833.477 8  16755088.392    16755093.411        2006.372
      1560.592
 88  4  2  4 50 59.0800000  0  4G 6G 9G11G13
     21363.384 9 -10500807.107 8  16288181.032    16288184.115       -1970.950
     -1534.183
 -23789364.426 8 -18628209.387 6  15514348.135    15514349.563         960.814
       764.973
 -14386805.011 8 -11221696.642 8  16112354.860    16112358.424       -1042.791
      -810.215
 -44455629.804 9  31516039.117 7  16743661.186    16743664.136        2003.844
      1543.864
 88  4  2  4 51 29.0800000  0  4G 6G 9G11G13
     80975.350 9 -10454356.249 8  16299523.401    16299527.331       -2001.516
     -1541.416
 -23817903.598 8 -18650447.704 8  15508917.225    15508920.398         925.615
       741.746
 -14355601.846 8 -11197382.501 7  16118292.712    16118295.467       -1043.317
      -795.128
 -44515231.716 8  31469596.100 7  16732318.418    16732322.521        1990.359
      1548.438
 88  4  2  4 51 59.0800000  0  4G 6G 9G11G13
    141122.571 8 -10407488.298 8  16310970.045    16310972.931       -2017.369
     -1566.781
 -23845882.389 8 -18672249.359 8  15503593.113    15503594.374         954.499
       732.288
 -14324001.972 8 -11172759.204 8  16124304.753    16124309.605       -1063.189
      -829.348
 -44574384.184 9  31423503.288 8  16721062.667    16721066.388        1962.952
      1544.647
 88  4  2  4 52 29.0800000  0  4G 6G 9G11G13
    201800.535 9 -10360206.796 7  16322516.389    16322519.871       -2041.659
     -1578.363
 -23873301.993 8 -18693615.281 7  15498375.381    15498377.518         908.981
       681.696
 -14292011.093 9 -11147831.241 8  16130393.632    16130395.967       -1072.798
      -843.788
 -44633090.424 9  31377758.195 7  16709890.779    16709895.668        1946.022
      1525.956
 88  4  2  4 52 59.0800000  0  4G 6G 9G11G13
    263011.061 8 -10312510.308 8  16334164.701    16334169.104       -2049.896
     -1580.147
 -23900157.609 8 -18714541.732 8  15493264.719    15493267.523         893.192
       695.018
 -14259628.712 9 -11122598.219 7  16136555.021    16136559.452       -1092.543
      -856.645
 -44691346.744 9  31332363.692 7  16698804.642    16698809.479        1926.923
      1516.064
 88  4  2  4 53 29.0800000  0  4G 6G 9G11G13
    324755.617 9 -10264397.675 7  16345913.897    16345917.886       -2062.272
     -1612.347
 -23926444.940 8 -18735025.369 7  15488262.025    15488264.960         868.471
       670.138
 -14226854.270 9 -11097059.686 9  16142792.059    16142795.660       -1101.633
      -860.702
 -44749149.985 8  31287322.218 7  16687806.176    16687808.368        1917.083
      1515.461
 88  4  2  4 53 59.0800000  0  4G 6G 9G11G13
    387030.850 9 -10215871.540 8  16357764.859    16357768.119       -2082.439
     -1626.185
 -23952164.284 8 -18755066.416 8  15483368.033    15483370.010         853.336
       642.953
 -14193692.636 9 -11071219.460 8  16149102.898    16149106.167       -1114.424
      -843.851
 -44806502.590 8  31242631.901 8  16676891.764    16676896.252        1905.321
      1473.220
 88  4  2  4 54 29.0800000  0  4G 6G 9G11G13
    449834.523 9 -10166933.641 7  16369716.102    16369720.540       -2106.626
     -1630.659
 -23977315.012 8 -18774664.390 6  15478581.354    15478583.370         828.894
       650.720
 -14160147.266 9 -11045080.196 7  16155485.478    16155490.894       -1119.041
      -866.891
 -44863405.254 7  31198292.197 7  16666062.685    16666067.761        1877.124
      1460.774
 88  4  2  4 54 59.0800000  0  4G 6G 9G11G13
    513165.899 9 -10117584.524 7  16381768.338    16381771.389       -2114.688
     -1648.119
 -24001894.771 8 -18793817.447 7  15473904.465    15473905.992         803.560
       639.081
 -14126219.421 8 -11018642.911 8  16161941.109    16161945.475       -1137.175
      -878.014
 -44919857.013 8  31154303.829 7  16655320.555    16655325.479        1866.877
      1470.355
 88  4  2  4 55 29.0800000  0  4G 6G 9G11G13
    577025.053 9 -10067824.175 8  16393919.758    16393922.844       -2129.576
     -1655.259
 -24025900.303 8 -18812523.061 7  15469335.966    15469338.532         828.233
       611.461
 -14091910.242 9 -10991908.484 8  16168470.203    16168475.194       -1149.272
      -914.054
 -44975856.906 9  31110667.577 8  16644664.391    16644668.929        1859.030
      1442.735
 88  4  2  4 55 59.0800000  0  4G 6G 9G11G13
    641411.415 8 -10017653.001 8  16406171.251    16406175.756       -2154.177
     -1681.928
 -24049329.280 7 -18830779.406 7  15464877.926    15464880.399         760.331
       603.775
 -14057221.504 9 -10964878.297 8  16175071.187    16175075.663       -1149.519
      -901.142
 -45031403.811 9  31067384.287 7  16634093.487    16634098.266        1846.502
      1424.075
 88  4  2  4 56 29.0800000  0  4G 6G 9G11G13
    706324.023 9  -9967071.759 7  16418524.271    16418527.552       -2170.747
     -1703.012
 -24072179.744 7 -18848584.960 7  15460528.680    15460532.426         765.291
       606.596
 -14022155.327 9 -10937554.000 9  16181745.068    16181748.113       -1166.282
      -921.896
 -45086497.541 8  31024454.154 8  16623610.024    16623613.963        1827.866
      1429.419
 88  4  2  4 56 59.0800000  0  4G 6G 9G11G13
    771760.001 9  -9916082.704 8  16430976.688    16430980.189       -2193.737
     -1703.298
 -24094451.601 8 -18865939.651 7  15456291.823    15456296.118         745.188
       566.250
 -13986715.850 9 -10909938.823 8  16188489.825    16188492.895       -1193.163
      -925.338
 -45141139.381 8  30981876.117 7  16613211.378    16613215.502        1818.313
      1418.066
 88  4  2  4 57 29.0800000  0  4G 6G 9G11G13
    837719.392 9  -9864685.796 8  16443528.067    16443531.924       -2195.444
     -1719.621
 -24116141.830 8 -18882841.136 8  15452164.038    15452165.842         697.812
       538.188
 -13950903.606 7 -10882033.178 8  16195304.553    16195307.237       -1200.236
      -934.845
 -45195328.054 8  30939651.209 7  16602900.059    16602904.234        1796.718
      1416.295
 88  4  2  4 57 59.0800000  0  4G 6G 9G11G13
    904200.676 9  -9812882.212 7  16456178.772    16456182.074       -2243.027
     -1726.630
 -24137248.804 7 -18899288.136 8  15448148.205    15448150.335         674.024
       539.468
 -13914721.269 9 -10853839.151 8  16202189.012    16202192.557       -1195.930
      -951.448
 -45249063.430 8  30897779.504 8  16592674.966    16592680.517        1797.101
      1383.176
 88  4  2  4 58 29.0800000  0  4G 6G 9G11G13
    971202.589 9  -9760672.943 8  16468929.424    16468932.127       -2235.045
     -1744.383
 -24157770.598 7 -18915279.131 7  15444241.065    15444244.557         684.399
       521.268
 -13878170.872 9 -10825358.316 8  16209143.897    16209148.436       -1212.860
      -959.626
 -45302344.896 8  30856261.483 7  16582536.013    16582540.707        1772.715
      1374.955
 88  4  2  4 58 59.0800000  0  4G 6G 9G11G13
   1038725.274 9  -9708057.893 8  16481778.130    16481782.719       -2259.677
     -1755.145
 -24177704.315 9 -18930811.894 8  15440449.084    15440451.958         647.948
       517.925
 -13841253.538 9 -10796591.554 7  16216170.556    16216172.282       -1240.914
      -968.232
 -45355172.180 8  30815097.391 7  16572482.570    16572487.051        1752.237
      1369.269
 88  4  2  4 59 29.0800000  0  4G 6G 9G11G13
   1106767.488 9  -9655038.009 8  16494725.761    16494729.422       -2275.076
     -1778.540
 -24197049.080 7 -18945885.755 7  15436767.398    15436770.964         649.870
       487.546
 -13803972.518 8 -10767541.403 8  16223263.303    16223267.463       -1250.475
      -973.016
 -45407545.189 8  30774287.286 7  16562515.938    16562521.042        1716.058
      1345.533
 88  4  2  4 59 59.0800000  0  4G 6G 9G11G13
   1175325.432 9  -9601616.251 8  16507772.253    16507775.730       -2285.331
     -1796.604
 -24215803.341 8 -18960499.451 7  15433199.394    15433201.824         615.812
       491.927
 -13766329.967 9 -10738209.540 8  16230427.203    16230430.089       -1258.345
      -986.718
 -45459464.004 9  30733831.088 7  16552636.436    16552642.537        1722.461
      1334.087
 88  4  2  5  0 29.0800000  0  4G 6G 9G11G13
   1244398.417 9  -9547793.174 9  16520917.456    16520920.083       -2314.589
     -1784.978
 -24233966.703 8 -18974652.711 7  15429742.686    15429744.559         595.421
       464.561
 -13728329.602 9 -10708598.874 7  16237659.124    16237662.279       -1295.059
      -996.865
 -45510930.061 9  30693727.686 7  16542843.246    16542848.250        1704.901
      1337.517
 88  4  2  5  0 59.0800000  0  4G 6G 9G11G13
   1313986.712 9  -9493568.540 7  16534158.633    16534162.453       -2329.676
     -1832.830
 -24251534.813 7 -18988342.176 7  15426399.069    15426401.827         567.463
       470.073
 -13689971.017 9 -10678709.075 7  16244956.904    16244961.407       -1279.055
      -997.387
 -45561940.314 9  30653979.457 7  16533135.940    16533140.319        1694.734
      1333.236
 88  4  2  5  1 29.0800000  0  4G 6G 9G11G13
   1384090.276 9  -9438942.403 8  16547499.761    16547501.460       -2350.864
     -1825.877
 -24268505.832 7 -19001566.331 6  15423171.165    15423170.851         559.999
       425.290
 -13651256.128 9 -10648541.628 9  16252324.696    16252329.360       -1291.343
      -984.866
 -45612494.602 9  30614586.528 7  16523516.550    16523521.428        1676.353
      1311.512
 88  4  2  5  1 59.0800000  0  4G 6G 9G11G13
   1454705.332 9  -9383917.712 8  16560936.696    16560940.335       -2351.367
     -1831.929
 -24284879.699 8 -19014325.184 7  15420053.453    15420056.696         520.837
       424.383
 -13612188.737 8 -10618099.491 8  16259758.814    16259762.863       -1308.472
     -1012.443
 -45662594.222 8  30575547.890 6  16513982.443    16513986.276        1656.960
      1296.407
 88  4  2  5  2 29.0800000  0  4G 6G 9G11G13
   1525830.807 9  -9328495.267 7  16574471.946    16574474.261       -2375.545
     -1854.591
 -24300654.877 7 -19026617.549 6  15417051.790    15417054.568         531.196
       402.237
 -13572771.270 8 -10587384.588 8  16267260.666    16267263.583       -1310.761
     -1038.243
 -45712239.318 9  30536863.413 8  16504535.123    16504539.099        1649.815
      1291.262
 88  4  2  5  2 59.0800000  0  4G 6G 9G11G13
   1597465.450 8  -9272676.083 8  16588103.148    16588106.447       -2384.173
     -1868.994
 -24315829.405 7 -19038441.847 7  15414164.139    15414165.009         496.252
       393.438
 -13533005.867 9 -10556398.539 8  16274826.404    16274830.751       -1326.574
     -1050.086
 -45761429.846 9  30498533.156 7  16495175.459    16495178.168        1643.252
      1271.726
 88  4  2  5  3 29.0800000  0  4G 6G 9G11G13
   1669607.487 8  -9216461.529 7  16601831.157    16601834.555       -2413.893
     -1878.930
 -24330402.126 7 -19049797.209 7  15411390.887    15411394.083         505.805
       358.194
 -13492894.762 9 -10525143.143 8  16282459.713    16282463.738       -1336.056
     -1060.823
 -45810165.810 8  30460557.105 8  16485899.655    16485903.909        1631.521
      1261.634
 88  4  2  5  3 59.0800000  0  4G 6G 9G11G13
   1742255.815 9  -9159852.459 8  16615656.881    16615659.509       -2439.858
     -1894.011
 -24344371.072 8 -19060682.117 7  15408733.295    15408735.871         452.385
       350.209
 -13452439.917 8 -10493619.891 8  16290157.768    16290162.665       -1337.794
     -1044.052
 -45858446.926 8  30422935.482 7  16476713.092    16476716.236        1612.048
      1252.724
 88  4  2  5  4 29.0800000  0  4G 6G 9G11G13
   1815411.032 9  -9102848.432 7  16629577.054    16629580.905       -2437.920
     -1903.313
 -24357732.764 8 -19071093.830 7  15406190.067    15406193.831         454.347
       335.370
 -13411641.419 9 -10461828.850 7  16297920.915    16297925.710       -1366.334
     -1063.334
 -45906271.027 8  30385669.964 8  16467611.741    16467615.569        1598.500
      1247.703
 88  4  2  5  4 59.0800000  0  4G 6G 9G11G13
   1889072.118 8  -9045450.191 8  16643594.566    16643598.746       -2482.824
     -1922.526
 -24370485.211 7 -19081030.794 7  15403764.286    15403766.891         413.239
       303.941
 -13370501.237 9 -10429771.562 8  16305750.152    16305753.951       -1384.324
     -1061.352
 -45953637.729 9  30348760.864 8  16458598.526    16458602.759        1574.569
      1222.413
 88  4  2  5  5 29.0800000  0  4G 6G 9G11G13
   1963234.471 8  -8987661.366 7  16657706.272    16657711.670       -2481.038
     -1948.214
 -24382629.951 7 -19090494.233 7  15401452.998    15401455.446         382.275
       289.544
 -13329024.679 8 -10397452.163 7  16313642.987    16313647.849       -1389.627
     -1060.699
 -46000550.237 9  30312205.679 7  16449671.766    16449675.668        1553.500
      1209.824
 88  4  2  5  5 59.0800000  0  4G 6G 9G11G13
   2037895.532 9  -8929483.925 7  16671914.632    16671916.831       -2504.020
     -1947.394
 -24394166.594 8 -19099483.839 7  15399256.996    15399259.883         366.063
       302.133
 -13287215.046 9 -10364873.238 8  16321599.139    16321603.727       -1398.590
     -1093.110
 -46047009.843 9  30276003.412 7  16440830.145    16440834.396        1553.883
      1194.184
 88  4  2  5  6 29.0800000  0  4G 6G 9G11G13
   2113055.698 8  -8870917.586 7  16686217.359    16686219.595       -2516.515
     -1962.798
 -24405091.602 6 -19107996.821 7  15397177.263    15397180.367         350.617
       277.905
 -13245072.379 8 -10332034.788 8  16329618.844    16329622.602       -1423.702
     -1108.893
 -46093014.310 9  30240155.765 8  16432076.131    16432080.982        1517.863
      1187.802
 88  4  2  5  6 59.0800000  0  4G 6G 9G11G13
   2188716.094 8  -8811961.455 8  16700614.663    16700617.801       -2528.429
     -1970.434
 -24415400.854 8 -19116030.012 6  15395217.565    15395220.714         341.621
       256.884
 -13202596.346 9 -10298936.597 8  16337702.221    16337705.449       -1434.499
     -1106.762
 -46138561.772 9  30204664.272 8  16423408.515    16423412.343        1516.938
      1182.657
 88  4  2  5  7 29.0800000  0  4G 6G 9G11G13
   2264873.578 8  -8752617.986 8  16715106.551    16715110.834       -2546.459
     -1997.185
 -24425094.800 7 -19123583.749 7  15393372.048    15393374.220         311.582
       263.595
 -13159791.226 9 -10265581.946 8  16345846.237    16345850.757       -1418.574
     -1128.951
 -46183653.274 8  30169528.044 7  16414828.000    16414831.037        1496.914
      1190.331
 88  4  2  5  7 59.0800000  0  4G 6G 9G11G13
   2341525.710 9  -8692889.057 7  16729694.074    16729696.622       -2555.175
     -1993.251
 -24434172.933 7 -19130657.626 6  15391644.876    15391646.162         294.764
       238.877
 -13116659.918 9 -10231973.134 7  16354055.149    16354058.681       -1421.270
     -1120.035
 -46228289.677 9  30134746.449 8  16406333.602    16406336.968        1476.739
      1152.104
 88  4  2  5  8 29.0800000  0  4G 6G 9G11G13
   2418670.612 8  -8632776.185 8  16744373.339    16744377.021       -2582.814
     -2011.209
 -24442634.011 8 -19137250.674 7  15390034.088    15390037.079         277.221
       211.020
 -13073204.669 9 -10198111.904 8  16362325.036    16362328.343       -1466.141
     -1136.781
 -46272471.408 9  30100319.137 7  16397926.572    16397930.433        1457.976
      1152.769
 88  4  2  5  8 59.0800000  0  4G 6G 9G11G13
   2496304.949 8  -8572281.914 8  16759146.551    16759149.738       -2586.084
     -2034.840
 -24450478.248 8 -19143363.061 7  15388541.958    15388544.221         273.959
       191.465
 -13029429.598 9 -10164001.454 9  16370654.368    16370657.382       -1457.864
     -1140.366
 -46316200.742 8  30066244.356 7  16389605.610    16389608.017        1458.629
      1138.048
 88  4  2  5  9 29.0800000  0  4G 6G 9G11G13
   2574428.996 8  -8511406.055 8  16774013.254    16774015.099       -2615.158
     -2027.781
 -24457702.596 8 -19148992.446 7  15387167.707    15387168.047         237.548
       198.555
 -12985334.841 9 -10129641.895 8  16379044.933    16379049.492       -1463.047
     -1136.489
 -46359475.232 9  30032523.989 7  16381370.295    16381373.833        1433.279
      1139.962
 88  4  2  5  9 59.0800000  0  4G 6G 9G11G13
   2653042.529 9  -8450148.791 8  16788973.179    16788976.480       -2611.147
     -2069.582
 -24464304.202 7 -19154136.556 6  15385911.444    15385913.085         198.753
       184.245
 -12940921.678 9 -10095034.235 7  16387496.862    16387500.062       -1477.305
     -1154.316
 -46402294.182 8  29999158.585 7  16373222.502    16373225.428        1429.164
      1115.859
 88  4  2  5 10 29.0800000  0  4G 6G 9G11G13
   2732142.597 9  -8388512.407 8  16804024.604    16804028.740       -2650.556
     -2041.060
 -24470283.146 8 -19158795.482 7  15384772.722    15384776.687         203.944
       148.031
 -12896193.432 8 -10060181.074 8  16396008.996    16396011.053       -1482.090
     -1161.835
 -46444659.492 9  29966146.678 7  16365160.160    16365164.036        1407.912
      1083.901
 88  4  2  5 10 59.0800000  0  4G 6G 9G11G13
   2811728.426 9  -8326497.498 7  16819169.897    16819173.765       -2667.725
     -2078.101
 -24475637.364 8 -19162967.602 7  15383754.114    15383756.648         178.131
       129.116
 -12851151.580 9 -10025083.526 8  16404580.025    16404584.126       -1482.736
     -1156.043
 -46486569.252 8  29933489.730 8  16357185.928    16357188.724        1386.932
      1091.022
 88  4  2  5 11 29.0800000  0  4G 6G 9G11G13
   2891798.159 9  -8264105.521 8  16834407.006    16834410.831       -2668.634
     -2090.000
 -24480365.685 8 -19166652.017 6  15382855.042    15382857.118         162.597
       118.441
 -12805798.049 9  -9989743.105 8  16413210.509    16413213.710       -1517.297
     -1195.060
 -46528024.356 9  29901187.080 7  16349296.210    16349298.662        1363.224
      1073.947
 88  4  2  5 11 59.0800000  0  4G 6G 9G11G13
   2972349.146 8  -8201338.527 8  16849735.554    16849739.547       -2689.679
     -2111.717
 -24484467.896 7 -19169848.547 7  15382073.540    15382075.601         139.184
       102.751
 -12760136.241 9  -9954162.477 8  16421899.106    16421902.768       -1525.510
     -1168.098
 -46569026.705 9  29869237.201 7  16341493.727    16341496.771        1354.660
      1065.223
 88  4  2  5 12 29.0800000  0  4G 6G 9G11G13
   3053379.360 8  -8138198.130 8  16865154.532    16865158.115       -2722.437
     -2107.305
 -24487943.072 6 -19172556.474 6  15381412.869    15381415.988         132.917
        92.163
 -12714168.850 9  -9918343.722 8  16430645.669    16430649.637       -1523.501
     -1208.531
 -46609576.162 9  29837640.243 6  16333776.907    16333782.579        1345.561
      1019.110
 88  4  2  5 12 59.0800000  0  4G 6G 9G11G13
   3134887.347 9  -8074685.450 8  16880664.585    16880667.761       -2731.273
     -2119.497
 -24490789.662 7 -19174774.613 7  15380870.725    15380873.758          94.337
        69.302
 -12667897.534 9  -9882288.152 7  16439452.183    16439455.097       -1544.210
     -1207.357
 -46649672.085 8  29806396.665 7  16326147.663    16326152.035        1327.898
      1035.888
 88  4  2  5 13 29.0800000  0  4G 6G 9G11G13
   3216870.230 8  -8010802.708 7  16896265.701    16896268.018       -2738.506
     -2124.145
 -24493007.873 7 -19176503.087 6  15380448.784    15380450.998          68.276
        72.782
 -12621325.828 8  -9845998.517 8  16448313.939    16448317.661       -1554.338
     -1215.789
 -46689316.889 8  29775504.630 7  16318603.705    16318606.916        1308.727
      1011.902
 88  4  2  5 13 59.0800000  0  4G 6G 9G11G13
   3299328.255 8  -7946549.719 7  16911958.416    16911960.566       -2768.378
     -2141.748
 -24494594.472 7 -19177739.417 6  15380145.091    15380149.658          57.527
        25.017
 -12574453.796 9  -9809474.847 8  16457232.802    16457236.879       -1576.419
     -1215.814
 -46728508.473 9  29744965.765 7  16311145.031    16311149.842        1303.743
      1007.230
 88  4  2  5 14 29.0800000  0  4G 6G 9G11G13
   3382260.531 9  -7881927.198 8  16927738.170    16927741.347       -2749.901
     -2146.514
 -24495547.341 8 -19178481.907 7  15379965.924    15379969.286          27.831
        14.298
 -12527282.664 8  -9772718.128 8  16466209.689    16466212.632       -1570.805
     -1222.264
 -46767245.934 9  29714780.731 7  16303772.973    16303777.253        1285.060
      1013.711
 88  4  2  5 14 59.0800000  0  4G 6G 9G11G13
   3465663.477 8  -7816937.914 7  16943609.737    16943614.779       -2785.961
     -2180.659
 -24495867.191 8 -19178731.161 7  15379905.203    15379907.778           0.949
        -1.336
 -12479816.674 9  -9735731.654 7  16475242.349    16475245.979       -1580.087
     -1225.066
 -46805531.734 8  29684947.658 7  16296488.012    16296491.403        1271.240
       998.276
 88  4  2  5 15 29.0800000  0  4G 6G 9G11G13
   3549534.476 8  -7751583.917 8  16959569.956    16959574.009       -2806.312
     -2188.184
 -24495553.947 7 -19178487.071 6  15379963.624    15379966.298         -20.406
       -10.271
 -12432058.752 9  -9698517.685 7  16484329.903    16484334.021       -1593.436
     -1252.102
 -46843366.873 9  29655465.746 8  16289288.196    16289293.817        1247.293
       987.650
 88  4  2  5 15 59.0800000  0  4G 6G 9G11G13
   3633872.871 9  -7685865.707 8  16975619.433    16975623.720       -2798.696
     -2195.075
 -24494605.291 7 -19177747.877 6  15380144.700    15380147.503         -41.913
       -26.123
 -12384010.084 9  -9661077.155 7  16493473.229    16493477.790       -1593.348
     -1258.658
 -46880750.584 9  29626335.605 7  16282174.847    16282178.715        1243.226
       964.988
 88  4  2  5 16 29.0800000  0  4G 6G 9G11G13
   3718677.072 9  -7619784.531 8  16991757.502    16991759.936       -2835.601
     -2197.815
 -24493020.093 8 -19176512.665 7  15380446.461    15380449.338         -48.285
       -45.553
 -12335672.409 9  -9623411.417 8  16502672.261    16502676.210       -1625.453
     -1252.550
 -46917683.288 9  29597556.898 7  16275145.996    16275150.490        1236.392
       955.239
 88  4  2  5 16 59.0800000  0  4G 6G 9G11G13
   3803944.837 8  -7553342.157 7  17007982.373    17007985.046       -2853.496
     -2206.484
 -24490797.540 7 -19174780.816 7  15380869.649    15380872.112         -86.586
       -71.490
 -12287048.272 9  -9585522.482 8  16511924.704    16511927.448       -1629.791
     -1249.486
 -46954165.330 9  29569129.342 7  16268203.740    16268207.516        1197.413
       952.008
 88  4  2  5 17 29.0800000  0  4G 6G 9G11G13
   3889672.588 9  -7486541.355 8  17024296.122    17024299.564       -2859.724
     -2232.010
 -24487938.433 7 -19172552.939 7  15381412.818    15381416.776        -124.942
       -69.731
 -12238141.708 9  -9547413.485 8  16521230.807    16521234.846       -1623.611
     -1277.361
 -46990198.412 9  29541051.627 8  16261346.905    16261351.393        1192.996
       933.907
 88  4  2  5 17 59.0800000  0  4G 6G 9G11G13
   3975859.098 8  -7419383.056 7  17040696.924    17040699.926       -2886.191
     -2234.638
 -24484441.425 7 -19169827.996 7  15382078.209    15382081.063        -132.175
       -66.922
 -12188954.046 9  -9509085.433 7  16530591.552    16530595.511       -1645.556
     -1288.559
 -47025783.124 8  29513323.295 7  16254575.816    16254578.812        1165.955
       893.909
 88  4  2  5 18 29.0800000  0  4G 6G 9G11G13
   4062504.052 8  -7351867.532 8  17057185.214    17057188.297       -2898.639
     -2247.694
 -24480303.962 8 -19166604.015 7  15382866.078    15382868.410        -163.849
      -127.706
 -12139485.937 8  -9470538.859 8  16540005.244    16540008.587       -1647.861
     -1278.884
 -47060918.065 8  29485945.434 6  16247889.583    16247893.457        1165.699
       913.737
 88  4  2  5 18 59.0800000  0  4G 6G 9G11G13
   4149604.049 9  -7283997.429 8  17073759.851    17073762.340       -2905.010
     -2260.575
 -24475526.649 7 -19162881.437 7  15383775.040    15383778.620        -168.554
      -146.962
 -12089741.441 9  -9431776.922 7  16549471.205    16549475.350       -1663.961
     -1302.558
 -47095604.965 9  29458916.694 8  16241289.449    16241291.940        1145.724
       884.818
 88  4  2  5 19 29.0800000  0  4G 6G 9G11G13
   4237157.860 8  -7215773.715 8  17090420.424    17090423.006       -2915.281
     -2262.917
 -24470107.500 7 -19158658.735 7  15384805.946    15384808.508        -189.383
      -156.910
 -12039721.488 9  -9392800.327 7  16558989.362    16558992.740       -1663.275
     -1293.679
 -47129843.116 9  29432237.630 6  16234774.097    16234776.758        1125.883
       883.755
 88  4  2  5 19 59.0800000  0  4G 6G 9G11G13
   4325162.751 8  -7147198.507 8  17107167.537    17107169.861       -2947.537
     -2285.908
 -24464046.946 8 -19153936.223 6  15385959.226    15385962.860        -197.445
      -160.055
 -11989429.075 9  -9353611.441 7  16568559.832    16568562.911       -1678.530
     -1310.785
 -47163633.986 8  29405907.105 7  16228343.180    16228346.892        1125.612
       876.355
 88  4  2  5 20 29.0800000  0  4G 6G 9G11G13
   4413618.357 9  -7078272.084 7  17123999.702    17124002.678       -2951.373
     -2294.937
 -24457342.338 7 -19148711.866 7  15387234.449    15387237.427        -225.180
      -200.065
 -11938865.189 9  -9314211.007 8  16578182.278    16578184.334       -1676.321
     -1317.478
 -47196977.286 9  29379925.325 7  16221997.823    16222001.713        1126.059
       856.800
 88  4  2  5 20 59.0800000  0  4G 6G 9G11G13
   4502521.744 8  -7008996.741 8  17140917.549    17140921.151       -2955.201
     -2317.493
 -24449994.162 7 -19142986.033 7  15388633.606    15388635.766        -247.779
      -185.867
 -11888032.583 9  -9274601.178 7  16587855.287    16587858.782       -1691.162
     -1332.186
 -47229873.813 8  29354291.672 6  16215738.171    16215743.062        1096.586
       857.341
 88  4  2  5 21 29.0800000  0  4G 6G 9G11G13
   4591868.206 9  -6939376.143 7  17157919.753    17157922.678       -2976.851
     -2341.341
 -24442004.323 7 -19136760.181 7  15390154.580    15390155.869        -284.868
      -236.919
 -11836936.302 9  -9234785.899 7  16597578.073    16597581.973       -1698.977
     -1315.819
 -47262326.747 9  29329003.688 7  16209562.120    16209566.924        1069.218
       851.003
 88  4  2  5 21 59.0800000  0  4G 6G 9G11G13
   4681658.280 8  -6869409.887 8  17175006.590    17175009.258       -3014.578
     -2338.719
 -24433369.456 8 -19130031.717 7  15391798.065    15391800.971        -287.125
      -237.478
 -11785576.196 9  -9194765.033 8  16607351.332    16607356.224       -1728.226
     -1325.176
 -47294334.149 8  29304062.877 7  16203471.834    16203474.947        1063.380
       840.942
 88  4  2  5 22 29.0800000  0  4G 6G 9G11G13
   4771890.137 8  -6799099.375 8  17192176.480    17192181.198       -3022.281
     -2349.009
 -24424088.669 8 -19122799.950 6  15393563.748    15393564.447        -307.962
      -240.175
 -11733954.079 9  -9154540.008 7  16617176.388    16617178.557       -1710.595
     -1326.432
 -47325896.292 8  29279469.007 7  16197467.088    16197469.908        1043.460
       808.587
 88  4  2  5 22 59.0800000  0  4G 6G 9G11G13
   4862561.368 8  -6728446.485 9  17209430.764    17209434.402       -3031.085
     -2383.533
 -24414161.483 7 -19115064.488 7  15395453.123    15395455.912        -365.696
      -279.701
 -11682072.222 9  -9114112.607 7  16627048.211    16627052.276       -1733.960
     -1343.575
 -47357013.676 8  29255221.713 8  16191544.119    16191548.612        1030.733
       797.682
 88  4  2  5 23 29.0800000  0  4G 6G 9G11G13
   4953669.411 9  -6657453.234 8  17226768.268    17226772.300       -3037.616
     -2391.617
 -24403588.058 7 -19106825.456 6  15397465.494    15397468.456        -360.553
      -285.312
 -11629933.295 9  -9073484.857 8  16636969.361    16636974.184       -1739.989
     -1359.129
 -47387687.998 8  29231319.650 7  16185707.602    16185711.538        1027.169
       795.632
 88  4  2  5 23 59.0800000  0  4G 6G 9G11G13
   5045213.367 8  -6586120.320 8  17244188.823    17244192.453       -3048.166
     -2388.336
 -24392366.512 8 -19098081.407 7  15399600.038    15399603.990        -364.619
      -305.339
 -11577538.438 9  -9032657.709 9  16646939.876    16646943.180       -1736.823
     -1370.500
 -47417918.437 9  29207763.478 7  16179954.499    16179959.894         991.811
       792.811
 88  4  2  5 24 29.0800000  0  4G 6G 9G11G13
   5137190.083 9  -6514450.168 8  17261691.863    17261694.686       -3087.942
     -2385.571
 -24380497.533 8 -19088832.857 6  15401858.366    15401861.185        -404.515
      -326.864
 -11524890.953 9  -8991633.691 7  16656959.203    16656961.485       -1744.622
     -1354.574
 -47447706.633 9  29184551.906 8  16174285.707    16174289.617         988.956
       794.644
 88  4  2  5 24 59.0800000  0  4G 6G 9G11G13
   5229596.278 9  -6442445.367 7  17279276.272    17279278.701       -3088.253
     -2401.646
 -24367981.493 7 -19079080.101 6  15404240.578    15404243.427        -406.214
      -339.136
 -11471993.782 9  -8950415.112 8  16667023.923    16667028.076       -1761.854
     -1380.697
 -47477054.382 9  29161683.544 8  16168701.637    16168704.826         975.264
       751.433
 88  4  2  5 25 29.0800000  0  4G 6G 9G11G13
   5322431.021 8  -6370106.637 8  17296941.782    17296944.807       -3108.922
     -2412.042
 -24354816.787 7 -19068821.902 6  15406746.310    15406747.994        -446.971
      -329.884
 -11418848.227 9  -8909003.002 8  16677138.077    16677141.556       -1775.283
     -1386.047
 -47505961.232 8  29139158.751 8  16163200.303    16163205.119         972.895
       757.330
 88  4  2  5 25 59.0800000  0  4G 6G 9G11G13
   5415691.830 9  -6297435.896 8  17314688.517    17314691.326       -3103.532
     -2410.625
 -24341003.296 7 -19058058.141 7  15409374.694    15409377.481        -476.787
      -356.653
 -11365456.666 9  -8867399.193 7  16687296.991    16687302.173       -1787.699
     -1396.691
 -47534428.276 8  29116976.647 8  16157783.047    16157785.745         948.869
       739.055
 88  4  2  5 26 29.0800000  0  4G 6G 9G11G13
   5509376.024 8  -6224435.258 8  17332515.806    17332520.264       -3134.951
     -2444.323
 -24326540.956 8 -19046788.818 7  15412126.045    15412129.007        -492.385
      -385.808
 -11311821.682 8  -8825605.706 8  16697504.143    16697508.214       -1802.205
     -1387.078
 -47562456.451 9  29095136.514 7  16152450.574    16152453.339         924.539
       716.232
 88  4  2  5 26 59.0800000  0  4G 6G 9G11G13
   5603481.747 8  -6151106.144 7  17350424.016    17350426.207       -3143.738
     -2458.620
 -24311429.173 7 -19035013.414 7  15415002.582    15415004.479        -535.749
      -373.399
 -11257945.455 9  -8783624.217 8  16707756.221    16707760.649       -1812.021
     -1398.543
 -47590046.303 9  29073637.947 8  16147199.538    16147203.166         909.420
       707.141
 88  4  2  5 27 29.0800000  0  4G 6G 9G11G13
   5698006.434 8  -6077450.574 7  17368410.880    17368414.896       -3168.595
     -2462.417
 -24295667.883 7 -19022731.889 8  15418001.065    15418003.411        -529.075
      -411.116
 -11203830.167 9  -8741456.464 8  16718055.109    16718058.202       -1804.182
     -1407.826
 -47617198.483 9  29052480.411 7  16142032.738    16142036.832         882.187
       711.453
 88  4  2  5 27 59.0800000  0  4G 6G 9G11G13
   5792948.527 8  -6003469.756 8  17386477.887    17386481.962       -3182.893
     -2474.602
 -24279256.137 8 -19009943.531 7  15421123.667    15421127.167        -573.460
      -415.938
 -11149477.504 9  -8699103.751 7  16728397.077    16728401.021       -1819.772
     -1413.102
 -47643912.906 8  29031663.998 7  16136949.774    16136953.650         883.575
       680.645
 88  4  2  5 28 29.0800000  0  4G 6G 9G11G13
   5888308.254 8  -5929163.506 8  17404624.672    17404627.012       -3177.685
     -2479.182
 -24262191.186 7 -18996646.171 6  15424369.757    15424374.634        -598.125
      -454.221
 -11094887.015 9  -8656565.705 8  16738785.179    16738789.983       -1810.881
     -1421.360
 -47670188.338 8  29011189.641 7  16131949.759    16131954.477         876.589
       685.834
 88  4  2  5 28 59.0800000  0  4G 6G 9G11G13
   5984081.159 8  -5854535.289 8  17422850.143    17422853.408       -3191.784
     -2505.938
 -24244475.004 7 -18982841.360 7  15427743.046    15427746.538        -572.862
      -457.751
 -11040062.871 9  -8613845.593 9  16749217.873    16749222.168       -1839.006
     -1436.608
 -47696027.900 9  28991054.949 6  16127032.118    16127036.827         856.502
       661.383
 88  4  2  5 29 29.0800000  0  4G 6G 9G11G13
   6080261.508 8  -5779589.594 7  17441152.277    17441154.950       -3206.856
     -2524.064
 -24226110.657 8 -18968531.504 6  15431237.485    15431240.042        -647.510
      -478.318
 -10985010.948 9  -8570947.988 8  16759694.344    16759696.930       -1843.615
     -1450.129
 -47721435.978 8  28971256.457 6  16122197.415    16122201.774         832.794
       665.012
 88  4  2  5 29 59.0800000  0  4G 6G 9G11G13
   6176848.133 9  -5704327.311 7  17459531.874    17459534.784       -3209.344
     -2512.320
 -24207096.877 7 -18953715.569 7  15434854.837    15434859.490        -634.320
      -513.445
 -10929732.150 8  -8527873.606 8  16770213.150    16770217.360       -1842.068
     -1436.994
 -47746411.709 8  28951794.857 7  16117445.179    16117446.161         833.886
       638.404
 88  4  2  5 30 29.0800000  0  4G 6G 9G11G13
   6273841.663 9  -5628747.969 8  17477988.717    17477993.751       -3247.612
     -2514.607
 -24187430.516 8 -18938391.145 7  15438598.799    15438601.220        -654.144
      -532.838
 -10874226.022 9  -8484622.067 8  16780775.276    16780779.877       -1843.440
     -1430.481
 -47770953.179 9  28932671.650 7  16112774.425    16112777.369         801.694
       627.667
 88  4  2  5 30 59.0800000  0  4G 6G 9G11G13
   6371240.208 9  -5552853.034 8  17496523.550    17496526.915       -3241.560
     -2536.287
 -24167111.365 8 -18922558.050 7  15442465.342    15442467.730        -698.402
      -549.398
 -10818494.278 9  -8441194.742 8  16791381.394    16791385.249       -1854.189
     -1467.081
 -47795060.689 9  28913886.578 7  16108186.326    16108191.236         787.667
       606.670
 88  4  2  5 31 29.0800000  0  4G 6G 9G11G13
   6469038.741 9  -5476646.403 7  17515132.738    17515137.193       -3261.400
     -2553.840
 -24146141.591 7 -18906217.982 6  15446454.864    15446458.157        -712.373
      -565.355
 -10762541.351 9  -8397595.047 7  16802028.907    16802031.956       -1866.582
     -1456.331
 -47818737.606 9  28895437.055 8  16103680.614    16103684.931         788.377
       617.818
 88  4  2  5 31 59.0800000  0  4G 6G 9G11G13
   6567233.233 8  -5400131.257 8  17533819.620    17533824.058       -3285.315
     -2569.220
 -24124523.092 8 -18889372.405 6  15450569.097    15450571.957        -729.335
      -564.883
 -10706371.393 9  -8353826.252 7  16812718.010    16812722.428       -1867.084
     -1467.031
 -47841987.157 9  28877320.529 8  16099256.677    16099261.223         772.851
       603.582
 88  4  2  5 32 29.0800000  0  4G 6G 9G11G13
   6665825.967 8  -5323305.772 8  17552581.173    17552585.115       -3278.027
     -2554.940
 -24102250.612 7 -18872017.231 7  15454807.962    15454809.692        -733.019
      -584.226
 -10649981.552 9  -8309886.126 8  16823447.655    16823452.127       -1888.862
     -1460.413
 -47864805.346 9  28859540.144 6  16094914.948    16094918.727         767.205
       591.857
 88  4  2  5 32 59.0800000  0  4G 6G 9G11G13
   6764813.082 9  -5246172.976 9  17571418.437    17571420.714       -3288.290
     -2562.950
 -24079326.054 7 -18854153.958 6  15459169.961    15459172.193        -775.514
      -615.332
 -10593375.803 9  -8265777.745 7  16834220.105    16834223.883       -1902.227
     -1472.387
 -47887194.380 8  28842094.143 7  16090654.080    16090657.867         741.910
       592.304
 88  4  2  5 33 29.0800000  0  4G 6G 9G11G13
   6864189.978 8  -5168736.455 7  17590327.584    17590333.276       -3303.911
     -2580.541
 -24055751.581 7 -18835784.260 6  15463655.764    15463657.779        -786.080
      -602.060
 -10536558.100 9  -8221504.211 8  16845032.610    16845036.331       -1900.257
     -1472.418
 -47909157.429 9  28824980.106 7  16086474.038    16086476.738         740.866
       565.492
 88  4  2  5 33 59.0800000  0  4G 6G 9G11G13
   6963955.199 9  -5090997.358 7  17609313.522    17609316.630       -3325.506
     -2601.177
 -24031526.286 7 -18816907.420 7  15468265.345    15468268.205        -825.131
      -629.668
 -10479529.645 9  -8177066.449 8  16855884.410    16855887.144       -1916.924
     -1489.680
 -47930694.353 9  28808198.090 8  16082376.306    16082380.583         712.860
       546.956
 88  4  2  5 34 29.0800000  0  4G 6G 9G11G13
   7064108.184 8  -5012956.076 7  17628372.390    17628374.630       -3346.455
     -2610.566
 -24006648.489 8 -18797522.137 7  15473000.701    15473004.078        -846.693
      -658.928
 -10422291.065 9  -8132464.969 7  16866776.285    16866779.902       -1891.677
     -1493.632
 -47951804.196 9  28791748.877 7  16078358.885    16078362.286         690.603
       566.250
 88  4  2  5 34 59.0800000  0  4G 6G 9G11G13
   7164644.460 8  -4934616.154 8  17647502.438    17647506.398       -3361.598
     -2614.885
 -23981120.010 8 -18777629.839 7  15477857.342    15477861.166        -842.092
      -679.272
 -10364846.058 9  -8087702.621 8  16877707.357    16877710.256       -1905.026
     -1485.001
 -47972490.597 8  28775629.626 7  16074423.166    16074426.376         684.280
       531.098
 88  4  2  5 35 29.0800000  0  4G 6G 9G11G13
   7265562.671 8  -4855978.609 8  17666707.388    17666711.370       -3346.638
     -2628.605
 -23954940.216 7 -18757229.997 7  15482839.368    15482843.075        -878.391
      -689.388
 -10307196.144 9  -8042780.623 8  16888677.587    16888681.847       -1912.011
     -1496.907
 -47992752.688 9  28759840.992 7  16070567.408    16070571.107         664.192
       543.395
 88  4  2  5 35 59.0800000  0  4G 6G 9G11G13
   7366860.418 8  -4777045.314 7  17685984.226    17685987.252       -3361.733
     -2645.071
 -23928109.228 8 -18736322.741 7  15487945.224    15487948.513        -897.059
      -692.980
 -10249343.071 9  -7997700.292 8  16899688.020    16899690.303       -1943.327
     -1506.986
 -48012591.580 9  28744382.133 7  16066792.014    16066794.973         658.714
       532.627
 88  4  2  5 36 29.0800000  0  4G 6G 9G11G13
   7468534.386 9  -4697818.883 8  17705331.699    17705334.623       -3415.289
     -2642.064
 -23900627.887 7 -18714908.732 6  15493174.541    15493178.288        -944.850
      -732.531
 -10191289.800 8  -7952463.987 8  16910735.047    16910738.162       -1936.748
     -1510.614
 -48032009.089 8  28729251.608 7  16063096.676    16063100.459         659.328
       500.701
 88  4  2  5 36 59.0800000  0  4G 6G 9G11G13
   7570582.993 8  -4618300.511 8  17724750.906    17724754.475       -3426.804
     -2639.945
 -23872495.614 8 -18692987.494 7  15498528.571    15498531.530        -954.889
      -730.816
 -10133037.564 9  -7907072.624 8  16921820.264    16921823.377       -1949.953
     -1514.069
 -48051005.822 9  28714448.963 6  16059481.300    16059486.680         630.293
       497.942
 88  4  2  5 37 29.0800000  0  4G 6G 9G11G13
   7673004.066 8  -4538491.897 8  17744240.683    17744244.945       -3433.551
     -2662.973
 -23843712.368 8 -18670559.002 6  15504006.487    15504009.788        -978.916
      -738.142
 -10074588.421 9  -7861527.838 8  16932942.040    16932945.926       -1948.957
     -1512.845
 -48069582.278 9  28699973.809 7  16055947.020    16055950.127         620.756
       478.163
 88  4  2  5 37 59.0800000  0  4G 6G 9G11G13
   7775792.867 8  -4458396.752 8  17763800.530    17763804.986       -3428.519
     -2672.996
 -23814280.706 7 -18647625.244 7  15509605.397    15509608.231        -971.691
      -762.997
 -10015946.206 9  -7815832.617 8  16944100.502    16944104.559       -1950.974
     -1513.516
 -48087741.206 8  28685824.010 7  16052492.115    16052494.162         591.944
       456.216
 88  4  2  5 38 29.0800000  0  4G 6G 9G11G13
   7878947.917 9  -4378016.221 8  17783430.291    17783434.387       -3456.230
     -2694.570
 -23784199.783 7 -18624185.585 8  15515331.018    15515333.793       -1027.647
      -799.031
  -9957112.287 9  -7769988.007 8  16955296.242    16955300.206       -1967.345
     -1520.134
 -48105482.816 9  28671999.392 8  16049115.376    16049118.957         577.957
       460.696
 88  4  2  5 38 59.0800000  0  4G 6G 9G11G13
   7982467.214 9  -4297351.859 9  17803129.999    17803134.308       -3456.971
     -2682.049
 -23753469.442 8 -18600239.877 7  15521177.285    15521182.076       -1033.174
      -793.966
  -9898088.118 9  -7723995.146 8  16966528.770    16966532.500       -1966.636
     -1527.590
 -48122807.778 9  28658499.438 7  16045818.002    16045821.683         576.650
       447.063
 88  4  2  5 39 29.0800000  0  4G 6G 9G11G13
   8086347.987 9  -4216405.824 7  17822897.609    17822900.789       -3481.819
     -2703.785
 -23722090.404 9 -18575788.713 6  15527150.557    15527151.556       -1064.983
      -815.292
  -9838875.861 9  -7677855.740 8  16977796.762    16977800.927       -1979.801
     -1534.332
 -48139718.145 9  28645322.534 6  16042599.540    16042604.929         584.026
       417.125
 88  4  2  5 39 59.0800000  0  4G 6G 9G11G13
   8190588.303 9  -4135179.633 8  17842734.242    17842738.283       -3473.709
     -2697.509
 -23690062.219 7 -18550831.687 7  15533243.620    15533248.331       -1052.272
      -836.500
  -9779477.189 9  -7631571.050 8  16989099.748    16989103.972       -1978.900
     -1544.424
 -48156213.612 9  28632468.930 7  16039460.911    16039465.438         545.558
       436.841
 88  4  2  5 40 29.0800000  0  4G 6G 9G11G13
   8295184.892 8  -4053675.820 8  17862638.691    17862642.051       -3504.108
     -2716.126
 -23657386.288 8 -18525369.941 6  15539462.854    15539466.240       -1114.193
      -847.678
  -9719894.724 9  -7585143.156 9  17000437.672    17000441.705       -1997.313
     -1535.525
 -48172296.006 9  28619937.205 7  16036401.585    16036404.650         529.067
       409.395
 88  4  2  5 40 59.0800000  0  4G 6G 9G11G13
   8400132.699 9  -3971898.346 8  17882608.407    17882613.525       -3511.157
     -2729.566
 -23624065.566 8 -18499405.743 6  15545803.212    15545806.102       -1114.002
      -873.583
  -9660133.065 9  -7538575.635 8  17011810.222    17011813.723       -1993.206
     -1553.732
 -48187968.795 9  28607724.644 7  16033418.832    16033422.775         521.363
       419.921
 88  4  2  5 41 29.0800000  0  4G 6G 9G11G13
   8505432.819 8  -3889846.332 8  17902647.414    17902651.001       -3515.367
     -2731.791
 -23590096.647 8 -18472936.478 8  15552266.974    15552270.496       -1137.183
      -904.012
  -9600190.722 9  -7491867.332 7  17023217.103    17023220.612       -1988.517
     -1562.009
 -48203229.953 9  28595832.848 7  16030514.279    16030518.836         492.377
       408.134
 88  4  2  5 41 59.0800000  0  4G 6G 9G11G13
   8611082.991 9  -3807521.553 8  17922752.101    17922756.561       -3522.943
     -2740.913
 -23555479.872 6 -18445962.380 7  15558855.055    15558857.067       -1169.280
      -870.352
  -9540069.116 9  -7445019.323 8  17034657.423    17034661.244       -2000.439
     -1549.867
 -48218079.796 8  28584261.562 7  16027687.975    16027690.837         506.404
       415.404
 88  4  2  5 42 29.0800000  0  4G 6G 9G11G13
   8717078.642 9  -3724927.562 7  17942922.919    17942926.252       -3531.444
     -2757.864
 -23520217.927 7 -18418485.556 6  15565564.709    15565568.317       -1186.656
      -938.772
  -9479772.380 9  -7398034.852 8  17046131.028    17046134.698       -2014.123
     -1551.843
 -48232521.327 9  28573008.418 7  16024941.044    16024944.111         477.409
       395.265
 88  4  2  5 42 59.0800000  0  4G 6G 9G11G13
   8823418.237 8  -3642065.576 9  17963157.629    17963161.526       -3546.810
     -2753.949
 -23484309.967 7 -18390505.334 7  15572397.846    15572401.798       -1197.047
      -949.628
  -9419301.521 8  -7350914.706 8  17057638.892    17057642.889       -2021.428
     -1582.906
 -48246555.332 9  28562072.832 7  16022269.653    16022272.958         453.414
       358.442
 88  4  2  5 43 29.0800000  0  4G 6G 9G11G13
   8930096.817 8  -3558939.444 7  17983458.465    17983462.348       -3565.159
     -2779.861
 -23447759.088 8 -18362024.149 7  15579353.645    15579354.347       -1214.885
      -954.568
  -9358660.811 9  -7303662.216 8  17069177.774    17069182.191       -2022.536
     -1579.600
 -48260184.927 9  28551452.382 7  16019676.497    16019679.422         448.972
       334.531
 88  4  2  5 43 59.0800000  0  4G 6G 9G11G13
   9037112.408 9  -3475550.699 8  18003824.346    18003826.201       -3547.201
     -2767.775
 -23410565.370 7 -18333042.041 7  15586430.476    15586433.665       -1254.972
      -970.556
  -9297851.599 9  -7256278.411 8  17080750.486    17080753.320       -2029.346
     -1570.801
 -48273410.706 9  28541146.584 8  16017159.025    16017163.336         442.457
       340.441
 88  4  2  5 44 29.0800000  0  4G 6G 9G11G13
   9144463.969 7  -3391900.149 7  18024251.434    18024255.626       -3572.296
     -2801.634
 -23372727.849 8 -18303558.274 7  15593631.299    15593634.293       -1256.256
     -1001.289
  -9236874.021 9  -7208763.413 8  17092353.318    17092357.620       -2034.585
     -1593.239
 -48286231.905 8  28531156.041 7  16014719.716    16014723.235         412.155
       326.634
 88  4  2  5 44 59.0800000  0  4G 6G 9G11G13
   9252147.874 9  -3307990.654 8  18044742.208    18044746.034       -3612.200
     -2806.487
 -23334248.209 8 -18273574.146 7  15600953.561    15600956.222       -1302.882
     -1019.931
  -9175731.206 9  -7161119.673 8  17103988.533    17103992.463       -2029.498
     -1587.392
 -48298651.354 9  28521478.567 7  16012356.318    16012359.906         414.324
       325.403
 88  4  2  5 45 29.0800000  0  4G 6G 9G11G13
   9360161.975 8  -3223823.844 9  18065297.101    18065300.966       -3616.785
     -2825.053
 -23295126.653 8 -18243089.853 7  15608398.212    15608401.088       -1314.150
     -1019.284
  -9114424.944 8  -7113348.566 8  17115655.948    17115659.899       -2062.248
     -1602.547
 -48310669.452 8  28512113.818 7  16010069.532    16010073.852         390.528
       310.410
 88  4  2  5 45 59.0800000  0  4G 6G 9G11G13
   9468503.695 7  -3139401.744 7  18085913.121    18085916.853       -3613.157
     -2823.382
 -23255363.775 8 -18212105.798 7  15615963.353    15615968.320       -1309.318
     -1041.412
  -9052957.071 9  -7065451.527 8  17127351.175    17127355.364       -2040.646
     -1600.279
 -48322287.547 9  28503060.781 7  16007857.981    16007862.351         394.117
       292.862
 88  4  2  5 46 29.0800000  0  4G 6G 9G11G13
   9577170.296 8  -3054726.505 7  18106591.882    18106596.137       -3623.252
     -2834.996
 -23214960.460 8 -18180622.694 7  15623653.735    15623656.980       -1359.660
     -1054.603
  -8991329.624 9  -7017430.146 7  17139078.909    17139083.889       -2065.470
     -1600.839
 -48333506.619 9  28494318.636 7  16005722.950    16005727.384         377.347
       286.207
 88  4  2  5 46 59.0800000  0  4G 6G 9G11G13
   9686158.613 8  -2969800.582 8  18127331.722    18127335.436       -3644.624
     -2842.502
 -23173918.228 8 -18148641.753 7  15631463.903    15631466.621       -1386.836
     -1085.082
  -8929545.058 9  -6969286.320 8  17150836.946    17150840.891       -2063.341
     -1612.632
 -48344329.073 9  28485885.584 7  16003663.446    16003667.700         355.497
       262.787
 88  4  2  5 47 29.0800000  0  4G 6G 9G11G13
   9795465.356 9  -2884626.513 8  18148132.611    18148135.437       -3649.687
     -2835.642
 -23132238.337 7 -18116163.945 6  15639393.892    15639399.329       -1400.600
     -1096.006
  -8867605.621 8  -6921021.829 8  17162623.543    17162626.821       -2059.888
     -1601.988
 -48354756.047 9  28477760.665 8  16001679.936    16001683.622         353.049
       247.234
 88  4  2  5 47 59.0800000  0  4G 6G 9G11G13
   9905087.967 8  -2799206.323 8  18168993.218    18168997.010       -3656.705
     -2857.887
 -23089921.422 7 -18083189.732 6  15647447.805    15647449.875       -1435.065
     -1094.745
  -8805513.177 9  -6872638.106 8  17174439.125    17174442.967       -2087.280
     -1621.611
 -48364788.955 9  28469942.820 7  15999770.399    15999773.509         326.973
       264.720
 88  4  2  5 48 29.0800000  0  4G 6G 9G11G13
  10015024.111 8  -2713541.840 8  18189912.060    18189916.298       -3675.788
     -2862.964
 -23046968.291 7 -18049719.777 7  15655620.850    15655623.610       -1435.528
     -1106.793
  -8743269.511 8  -6824136.555 9  17186283.708    17186287.525       -2062.288
     -1617.672
 -48374428.657 8  28462431.364 7  15997936.433    15997939.320         328.910
       234.353
 88  4  2  5 48 59.0800000  0  4G 6G 9G11G13
  10125272.839 8  -2627633.763 8  18210891.753    18210896.588       -3706.082
     -2871.141
 -23003377.689 8 -18015753.085 7  15663916.675    15663919.409       -1445.145
     -1140.434
  -8680874.633 9  -6775517.177 8  17198156.839    17198160.288       -2078.213
     -1608.643
 -48383674.759 9  28455226.612 7  15996176.636    15996180.613         297.946
       239.156
 88  4  2  5 49 29.0800000  0  4G 6G 9G11G13
  10235830.333 8  -2541485.085 9  18231931.244    18231936.677       -3695.357
     -2893.082
 -22959152.027 8 -17981291.547 7  15672332.381    15672335.028       -1488.174
     -1164.246
  -8618331.789 9  -6726782.494 8  17210057.978    17210062.187       -2095.557
     -1637.568
 -48392528.938 9  28448327.265 7  15994491.979    15994494.518         292.420
       228.506
 88  4  2  5 49 59.0800000  0  4G 6G 9G11G13
  10346691.127 9  -2455100.078 8  18253026.951    18253032.358       -3694.767
     -2884.401
 -22914294.946 9 -17946337.979 7  15680868.197    15680870.340       -1490.112
     -1154.652
  -8555645.501 9  -6677936.045 8  17221987.316    17221990.299       -2092.758
     -1617.684
 -48400996.336 8  28441729.310 7  15992879.977    15992884.998         283.456
       211.859
 88  4  2  5 50 29.0800000  0  4G 6G 9G11G13
  10457854.251 8  -2368479.484 8  18274181.796    18274183.898       -3696.449
     -2877.877
 -22868805.691 8 -17910891.841 7  15689524.375    15689527.035       -1522.671
     -1183.639
  -8492815.639 9  -6628977.704 8  17233943.280    17233946.425       -2079.824
     -1634.287
 -48409076.140 8  28435433.364 8  15991343.824    15991346.985         263.369
       212.257
 88  4  2  5 50 59.0800000  0  4G 6G 9G11G13
  10569318.532 8  -2281624.233 8  18295392.033    18295395.631       -3718.729
     -2901.060
 -22822683.749 8 -17874952.674 7  15698301.521    15698303.094       -1532.241
     -1192.096
  -8429842.764 9  -6579907.932 8  17245926.142    17245930.811       -2088.899
     -1641.992
 -48416767.895 9  28429439.797 7  15989878.960    15989883.404         246.089
       179.429
 88  4  2  5 51 29.0800000  0  4G 6G 9G11G13
  10681080.278 9  -2194537.202 8  18316659.570    18316663.591       -3734.949
     -2907.200
 -22775931.090 8 -17838522.053 6  15707198.132    15707200.488       -1583.332
     -1205.791
  -8366729.509 8  -6530728.774 8  17257936.916    17257940.775       -2106.211
     -1646.603
 -48424073.927 8  28423746.788 7  15988489.113    15988493.547         242.277
       180.200
 88  4  2  5 51 59.0800000  0  4G 6G 9G11G13
  10793135.928 8  -2107221.140 8  18337982.006    18337987.286       -3749.072
     -2919.807
 -22728549.614 7 -17801601.426 7  15716214.444    15716217.437       -1582.519
     -1251.649
  -8303478.886 9  -6481442.579 9  17269972.864    17269976.882       -2112.455
     -1649.840
 -48430996.719 9  28418352.415 7  15987171.410    15987175.857         230.810
       197.437
 88  4  2  5 52 29.0800000  0  4G 6G 9G11G13
  10905482.526 8  -2019678.381 7  18359361.404    18359366.829       -3753.904
     -2935.379
 -22680540.543 8 -17764191.772 6  15725350.156    15725354.161       -1597.686
     -1244.223
  -8240092.639 8  -6432050.705 9  17282035.932    17282039.206       -2091.371
     -1641.974
 -48437537.768 9  28413255.503 7  15985927.381    15985931.330         203.657
       180.256
 88  4  2  5 52 59.0800000  0  4G 6G 9G11G13
  11018117.138 9  -1931911.172 8  18380796.704    18380799.984       -3756.424
     -2948.950
 -22631905.400 7 -17726294.285 7  15734604.890    15734608.809       -1634.097
     -1273.080
  -8176573.100 8  -6382554.958 7  17294121.829    17294126.783       -2125.621
     -1658.459
 -48443698.574 9  28408454.891 7  15984754.538    15984758.487         192.876
       157.004
 88  4  2  5 53 29.0800000  0  4G 6G 9G11G13
  11131039.341 8  -1843919.889 8  18402284.166    18402288.013       -3766.089
     -2941.034
 -22582643.000 7 -17687907.998 7  15743979.993    15743981.665       -1633.906
     -1268.942
  -8112919.484 8  -6332954.746 8  17306234.563    17306238.395       -2114.728
     -1664.493
 -48449478.667 8  28403950.926 8  15983654.217    15983658.096         200.914
       151.623
 88  4  2  5 53 59.0800000  0  4G 6G 9G11G13
  11244244.632 7  -1755708.002 8  18423826.365    18423830.062       -3760.507
     -2942.239
 -22532756.280 8 -17649035.252 7  15753472.622    15753475.430       -1659.153
     -1314.551
  -8049135.642 8  -6283253.042 8  17318372.919    17318376.913       -2129.711
     -1663.722
 -48454880.227 9  28399741.924 7  15982626.912    15982631.351         186.353
       127.457
 88  4  2  5 54 29.0800000  0  4G 6G 9G11G13
  11357730.722 8  -1667277.297 9  18445422.061    18445426.811       -3817.404
     -2952.778
 -22482246.045 8 -17609676.652 8  15763084.368    15763086.185       -1697.709
     -1323.580
  -7985222.823 8  -6233450.859 7  17330534.808    17330539.475       -2134.424
     -1654.432
 -48459904.699 9  28395826.759 8  15981670.785    15981674.651         178.945
       121.610
 88  4  2  5 54 59.0800000  0  4G 6G 9G11G13
  11471492.347 8  -1578631.912 9  18467069.582    18467073.816       -3803.736
     -2948.509
 -22431115.846 8 -17569834.966 7  15772815.393    15772817.138       -1714.837
     -1332.304
  -7921185.149 9  -6183551.358 8  17342721.799    17342724.587       -2125.365
     -1674.143
 -48464555.726 9  28392202.598 7  15980785.479    15980790.017         146.170
       120.237
 88  4  2  5 55 29.0800000  0  4G 6G 9G11G13
  11585528.169 9  -1489772.871 7  18488770.407    18488773.293       -3797.054
     -2950.684
 -22379365.516 7 -17529510.032 6  15782662.728    15782665.789       -1741.902
     -1354.909
  -7857023.203 9  -6133555.045 8  17354929.852    17354934.545       -2118.244
     -1686.819
 -48468833.287 9  28388869.439 7  15979971.802    15979975.937         128.969
       108.294
 88  4  2  5 55 59.0800000  0  4G 6G 9G11G13
  11699836.809 9  -1400701.224 8  18510522.251    18510526.859       -3808.951
     -2977.496
 -22326995.007 8 -17488701.862 7  15792628.395    15792632.114       -1780.546
     -1377.186
  -7792737.253 9  -6083462.099 8  17367164.330    17367167.052       -2134.879
     -1666.705
 -48472737.129 9  28385827.492 7  15979228.333    15979232.585         115.907
        99.582
 88  4  2  5 56 29.0800000  0  4G 6G 9G11G13
  11814414.564 8  -1311419.887 8  18532325.854    18532330.605       -3820.291
     -2976.539
 -22274006.288 8 -17447411.976 7  15802711.425    15802713.829       -1761.464
     -1385.158
  -7728329.788 8  -6033274.473 7  17379420.549    17379424.357       -2137.183
     -1662.312
 -48476269.820 9  28383074.755 6  15978556.245    15978561.072         108.292
        95.506
 88  4  2  5 56 59.0800000  0  4G 6G 9G11G13
  11929259.554 8  -1221930.318 7  18554180.127    18554184.438       -3839.278
     -2970.897
 -22220400.197 8 -17405640.998 6  15812912.764    15812916.343       -1776.551
     -1402.662
  -7663801.932 9  -5982993.027 8  17391699.499    17391703.816       -2141.163
     -1680.835
 -48479431.852 9  28380610.847 7  15977954.266    15977957.800         108.850
        90.137
 88  4  2  5 57 29.0800000  0  4G 6G 9G11G13
  12044368.480 8  -1132235.064 7  18576085.657    18576088.570       -3866.048
     -2994.994
 -22166178.339 8 -17363390.217 7  15823230.606    15823233.872       -1805.067
     -1438.143
  -7599155.730 9  -5932619.360 7  17404000.870    17404004.812       -2164.807
     -1675.162
 -48482225.392 8  28378434.059 8  15977423.095    15977426.502          78.101
        79.481
 88  4  2  5 57 59.0800000  0  4G 6G 9G11G13
  12159736.971 8  -1042337.571 8  18598038.178    18598041.692       -3840.753
     -2995.131
 -22111343.979 8 -17320662.160 7  15833664.785    15833668.606       -1823.624
     -1439.411
  -7534394.794 8  -5882156.285 8  17416324.642    17416328.908       -2174.105
     -1691.404
 -48484653.407 8  28376542.108 8  15976961.442    15976965.828          75.996
        60.821
 88  4  2  5 58 29.0800000  0  4G 6G 9G11G13
  12275361.292 8   -952240.727 8  18620040.818    18620044.722       -3853.368
     -2986.624
 -22055899.152 7 -17277458.414 7  15844214.802    15844219.125       -1832.579
     -1449.508
  -7469521.644 8  -5831605.779 8  17428668.729    17428673.241       -2156.130
     -1700.688
 -48486717.865 9  28374933.453 7  15976568.982    15976571.728          57.344
        52.258
 88  4  2  5 58 59.0800000  0  4G 6G 9G11G13
  12391241.137 9   -861944.773 7  18642092.271    18642097.933       -3878.942
     -3014.947
 -21999843.025 9 -17233778.334 8  15854883.706    15854886.924       -1871.079
     -1452.329
  -7404535.701 8  -5780967.371 7  17441035.803    17441040.595       -2182.932
     -1679.375
 -48488417.875 9  28373608.793 7  15976244.562    15976248.188          55.119
        27.626
 88  4  2  5 59 29.0800000  0  4G 6G 9G11G13
  12507373.809 7   -771451.810 7  18664191.329    18664195.388       -3863.552
     -3004.545
 -21943176.711 9 -17189622.794 7  15865665.901    15865668.865       -1888.320
     -1479.775
  -7339438.238 9  -5730242.090 8  17453423.837    17453428.295       -2167.318
     -1683.277
 -48489754.940 9  28372566.927 8  15975990.003    15975994.592          45.733
        39.830
 88  4  2  5 59 59.0800000  0  4G 6G 9G11G13
  12623755.377 8   -680764.904 8  18686337.952    18686342.531       -3855.721
     -3021.366
 -21885903.089 8 -17144993.998 7  15876565.215    15876567.504       -1925.392
     -1502.300
  -7274232.353 9  -5679432.306 8  17465831.462    17465836.491       -2178.475
     -1684.663
 -48490731.377 9  28371806.074 7  15975804.720    15975808.241          25.909
        14.031
 88  4  2  6  0 29.0800000  0  4G 6G 9G11G13
  12740380.607 7   -589888.126 7  18708531.827    18708534.982       -3875.011
     -3021.856
 -21828025.982 8 -17099894.973 7  15887578.995    15887582.516       -1929.667
     -1519.457
  -7208921.891 9  -5628541.040 9  17478260.208    17478264.458       -2169.535
     -1687.620
 -48491351.283 9  28371323.048 7  15975686.656    15975690.989          13.804
        26.757
 88  4  2  6  0 59.0800000  0  4G 6G 9G11G13
  12857249.799 8   -498821.251 7  18730770.918    18730773.941       -3896.454
     -3037.074
 -21769543.916 9 -17054324.558 7  15898708.622    15898710.451       -1958.135
     -1512.361
  -7143505.539 9  -5577567.267 8  17490708.851    17490712.143       -2190.133
     -1703.708
 -48491612.894 9  28371119.196 8  15975636.291    15975639.896           6.531
        11.048
 88  4  2  6  1 29.0800000  0  4G 6G 9G11G13
  12974359.555 7   -407566.933 7  18753056.036    18753061.649       -3902.610
     -3038.808
 -21710458.834 8 -17008284.255 7  15909949.941    15909955.380       -1978.860
     -1553.440
  -7077985.636 9  -5526512.797 8  17503176.606    17503180.487       -2180.325
     -1706.106
 -48491518.043 8  28371193.108 8  15975655.049    15975658.062         -26.188
        -5.816
 88  4  2  6  1 59.0800000  0  4G 6G 9G11G13
  13091706.539 8   -316127.758 8  18775386.545    18775390.150       -3910.018
     -3062.861
 -21650773.050 8 -16961775.865 6  15921309.635    15921312.408       -2005.264
     -1553.601
  -7012363.892 8  -5475378.980 8  17515663.539    17515667.370       -2183.570
     -1706.784
 -48491069.158 9  28371542.897 7  15975740.595    15975744.077         -22.607
       -22.034
 88  4  2  6  2 29.0800000  0  4G 6G 9G11G13
  13209288.265 7   -224505.667 7  18797761.069    18797765.217       -3920.002
     -3059.437
 -21590487.705 7 -16914800.305 7  15932781.500    15932785.261       -2019.274
     -1564.395
  -6946641.911 9  -5424167.039 7  17528170.598    17528174.033       -2183.092
     -1698.227
 -48490266.799 8  28372168.124 7  15975893.181    15975896.402         -41.156
       -35.456
 88  4  2  6  2 59.0800000  0  4G 6G 9G11G13
  13327100.898 7   -132703.681 8  18820180.139    18820184.629       -3920.018
     -3067.981
 -21529605.524 8 -16867359.658 7  15944365.637    15944368.312       -2031.340
     -1574.262
  -6880822.330 9  -5372879.057 8  17540695.951    17540699.154       -2207.709
     -1701.713
 -48489114.487 9  28373066.045 7  15976112.309    15976116.752         -35.566
       -27.353
 88  4  2  6  3 29.0800000  0  4G 6G 9G11G13
  13445142.000 7    -40723.625 8  18842644.028    18842648.187       -3937.067
     -3084.554
 -21468127.856 8 -16819455.000 7  15956064.682    15956068.660       -2044.266
     -1602.013
  -6814906.716 8  -5321516.245 8  17553238.333    17553241.819       -2200.938
     -1716.061
 -48487612.879 9  28374236.127 8  15976398.197    15976401.957         -49.297
       -36.382
 88  4  2  6  3 59.0800000  0  4G 6G 9G11G13
  13563409.725 8     51433.009 8  18865148.633    18865152.852       -3968.965
     -3064.738
 -21406055.018 8 -16771086.572 7  15967876.990    15967880.984       -2075.143
     -1620.306
  -6748895.250 9  -5270078.733 8  17565800.655    17565803.858       -2183.195
     -1719.646
 -48485761.539 8  28375678.745 7  15976749.879    15976752.956         -55.454
       -47.610
 88  4  2  6  4 29.0800000  0  4G 6G 9G11G13
  13681901.213 9    143764.002 8  18887697.454    18887702.105       -3960.337
     -3083.677
 -21343389.097 8 -16722255.991 7  15979802.038    15979804.813       -2099.241
     -1637.127
  -6682789.773 8  -5218567.982 8  17578380.670    17578384.728       -2203.546
     -1713.526
 -48483562.536 9  28377392.263 8  15977168.352    15977172.243         -77.654
       -54.377
 88  4  2  6  4 59.0800000  0  4G 6G 9G11G13
  13800612.247 8    236266.074 8  18910287.377    18910292.013       -3966.325
     -3085.138
 -21280133.093 8 -16672965.626 8  15991839.196    15991841.558       -2116.051
     -1651.201
  -6616593.044 9  -5166986.116 7  17590977.442    17590981.536       -2209.391
     -1723.760
 -48481019.140 9  28379374.136 7  15977651.858    15977656.931         -94.504
       -75.323
 88  4  2  6  5 29.0800000  0  4G 6G 9G11G13
  13919539.193 9    328936.390 8  18932918.801    18932923.237       -3954.858
     -3097.932
 -21216289.686 7 -16623217.529 8  16003987.921    16003991.785       -2132.781
     -1671.384
  -6550307.632 8  -5115335.155 8  17603590.558    17603592.994       -2200.316
     -1717.086
 -48478133.851 9  28381622.427 8  15978201.445    15978205.830        -104.336
       -81.444
 88  4  2  6  5 59.0800000  0  4G 6G 9G11G13
  14038679.290 9    421772.795 8  18955589.825    18955594.583       -3979.515
     -3104.668
 -21151860.325 9 -16573012.843 7  16016248.596    16016252.973       -2153.929
     -1676.392
  -6483934.723 7  -5063616.000 8  17616220.969    17616224.026       -2212.142
     -1731.017
 -48474907.398 9  28384136.547 7  15978815.435    15978819.882        -116.617
       -90.249
 88  4  2  6  6 29.0800000  0  4G 6G 9G11G13
  14158031.114 9    514774.185 8  18978301.190    18978306.257       -3973.917
     -3084.373
 -21086845.462 8 -16522351.921 7  16028621.390    16028624.135       -2173.722
     -1684.433
  -6417474.759 8  -5011829.014 8  17628868.234    17628872.600       -2221.464
     -1731.794
 -48471340.216 9  28386916.169 8  15979495.341    15979499.464        -114.910
       -81.301
 88  4  2  6  6 59.0800000  0  4G 6G 9G11G13
  14277591.409 8    607938.028 9  19001054.266    19001056.939       -3983.566
     -3109.670
 -21021247.465 7 -16471236.626 8  16041102.619    16041107.188       -2181.656
     -1731.546
  -6350929.509 9  -4959975.562 9  17641530.850    17641534.764       -2209.383
     -1721.827
 -48467434.156 8  28389959.868 7  15980237.813    15980242.140        -134.982
      -107.865
 88  4  2  6  7 29.0800000  0  4G 6G 9G11G13
  14397356.183 9    701261.200 8  19023845.859    19023847.693       -3989.897
     -3108.402
 -20955069.217 9 -16419669.184 7  16053696.844    16053699.487       -2226.305
     -1715.178
  -6284301.709 9  -4908057.823 8  17654210.811    17654213.229       -2206.616
     -1708.312
 -48463191.556 9  28393265.809 6  15981045.097    15981048.008        -150.133
      -105.007
 88  4  2  6  7 59.0800000  0  4G 6G 9G11G13
  14517322.918 9    794741.724 8  19046673.235    19046676.725       -4013.199
     -3112.609
 -20888312.396 8 -16367650.905 6  16066401.436    16066404.285       -2239.670
     -1750.398
  -6217592.684 8  -4856076.769 8  17666903.786    17666908.318       -2224.718
     -1737.355
 -48458613.936 9  28396832.788 7  15981915.919    15981919.545        -156.513
      -110.419
 88  4  2  6  8 29.0800000  0  4G 6G 9G11G13
  14637489.804 8    888378.244 8  19069539.704    19069544.341       -4001.923
     -3107.277
 -20820977.567 9 -16315182.219 7  16079214.157    16079217.188       -2272.325
     -1757.998
  -6150802.868 9  -4804032.759 8  17679614.263    17679616.677       -2203.674
     -1730.421
 -48453701.435 9  28400660.706 8  15982851.127    15982854.731        -163.371
      -135.827
 88  4  2  6  8 59.0800000  0  4G 6G 9G11G13
  14757853.866 9    982168.375 8  19092443.646    19092448.456       -4012.577
     -3137.265
 -20753067.084 9 -16262264.979 7  16092137.108    16092139.699       -2270.363
     -1778.379
  -6083933.717 9  -4751926.924 8  17692339.124    17692342.084       -2253.338
     -1742.507
 -48448456.078 8  28404748.010 7  15983849.393    15983851.742        -183.027
      -132.832
 88  4  2  6  9 29.0800000  0  4G 6G 9G11G13
  14878411.432 8   1076109.295 8  19115385.924    19115390.274       -4010.280
     -3121.563
 -20684583.600 8 -16208901.238 7  16105168.618    16105172.622       -2304.725
     -1788.818
  -6016987.904 8  -4699761.372 8  17705077.622    17705081.196       -2211.225
     -1741.749
 -48442879.986 9  28409093.030 8  15984908.714    15984913.625        -177.996
      -158.104
 88  4  2  6  9 59.0800000  0  4G 6G 9G11G13
  14999158.025 8   1170197.510 8  19138362.663    19138366.780       -4036.157
     -3140.546
 -20615530.653 8 -16155093.779 8  16118309.751    16118311.722       -2328.217
     -1800.960
  -5949968.179 9  -4647538.226 8  17717831.070    17717834.551       -2223.426
     -1740.742
 -48436976.905 8  28413692.835 7  15986033.857    15986036.745        -191.807
      -158.278
 88  4  2  6 10 29.0800000  0  4G 6G 9G11G13
  15120091.186 8   1264431.122 8  19161375.842    19161379.872       -4043.246
     -3145.007
 -20545909.629 8 -16100843.647 8  16131557.375    16131560.482       -2314.740
     -1819.974
  -5882875.513 9  -4595258.226 8  17730598.208    17730602.832       -2220.276
     -1732.111
 -48430747.819 8  28418546.686 7  15987218.621    15987222.996        -212.971
      -163.895
 88  4  2  6 10 59.0800000  0  4G 6G 9G11G13
  15241210.419 8   1358809.708 8  19184423.857    19184429.229       -4038.637
     -3137.980
 -20475720.494 8 -16046150.826 7  16144914.692    16144917.712       -2343.312
     -1831.314
  -5815709.098 9  -4542920.763 8  17743380.290    17743383.627       -2227.006
     -1739.667
 -48424191.320 9  28423655.655 8  15988466.576    15988469.801        -230.531
      -167.722
 88  4  2  6 11 29.0800000  0  4G 6G 9G11G13
  15362511.608 7   1453330.085 7  19207505.630    19207511.407       -4052.416
     -3149.693
 -20404966.493 8 -15991017.860 7  16158377.616    16158382.334       -2380.624
     -1836.558
  -5748471.664 8  -4490527.959 8  17756174.822    17756178.677       -2236.966
     -1723.113
 -48417310.429 9  28429017.386 8  15989775.469    15989779.440        -235.650
      -184.164
 88  4  2  6 11 59.0800000  0  4G 6G 9G11G13
  15483991.064 7   1547989.353 7  19230623.600    19230627.863       -4052.879
     -3175.691
 -20333650.329 9 -15935446.863 7  16171949.282    16171951.985       -2386.175
     -1857.182
  -5681165.758 8  -4438081.808 8  17768982.422    17768986.886       -2246.001
     -1740.692
 -48410107.784 9  28434629.842 8  15991146.380    15991150.878        -227.453
      -190.595
 88  4  2  6 12 29.0800000  0  4G 6G 9G11G13
  15605644.808 7   1642784.436 7  19253774.003    19253778.415       -4039.689
     -3158.653
 -20261775.290 9 -15879440.347 6  16185626.660    16185629.851       -2404.715
     -1868.199
  -5613793.785 8  -4385584.178 8  17781803.458    17781807.073       -2244.726
     -1743.619
 -48402585.937 9  28440491.016 8  15992578.109    15992581.835        -264.996
      -195.386
 88  4  2  6 12 59.0800000  0  4G 6G 9G11G13
  15727469.843 8   1737713.014 6  19276955.264    19276960.551       -4040.176
     -3172.348
 -20189343.567 8 -15823000.064 7  16199409.136    16199412.768       -2418.551
     -1875.419
  -5546357.119 8  -4333036.125 8  17794635.734    17794638.645       -2255.650
     -1745.663
 -48394746.586 9  28446599.608 7  15994069.713    15994073.922        -261.902
      -206.354
 88  4  2  6 13 29.0800000  0  4G 6G 9G11G13
  15849466.325 8   1832775.145 7  19300171.402    19300174.969       -4079.952
     -3160.536
 -20116354.252 9 -15766125.289 7  16213299.613    16213303.505       -2451.580
     -1916.493
  -5478854.092 8  -4280436.375 8  17807481.549    17807485.046       -2257.046
     -1735.721
 -48386588.333 9  28452956.687 7  15995622.292    15995625.491        -274.557
      -200.177
 88  4  2  6 13 59.0800000  0  4G 6G 9G11G13
  15971630.256 7   1927967.766 7  19323418.575    19323423.329       -4064.314
     -3177.605
 -20042810.702 8 -15708818.640 6  16227294.939    16227296.081       -2467.378
     -1904.475
  -5411287.479 7  -4227787.072 8  17820339.018    17820342.931       -2260.451
     -1750.560
 -48378113.273 9  28459560.634 8  15997235.045    15997239.610        -286.670
      -228.997
 88  4  2  6 14 29.0800000  0  4G 6G 9G11G13
  16093957.784 8   2023287.921 7  19346696.495    19346701.729       -4069.824
     -3176.598
 -19968715.810 9 -15651082.382 7  16241394.211    16241395.398       -2468.191
     -1920.103
  -5343659.316 9  -4175089.806 7  17833208.310    17833211.581       -2259.406
     -1759.526
 -48369324.269 9  28466409.227 7  15998906.873    15998911.041        -303.544
      -238.019
 88  4  2  6 14 59.0800000  0  4G 6G 9G11G13
  16216445.218 9   2118732.631 7  19370006.487    19370009.275       -4081.690
     -3185.577
 -19894072.742 9 -15592918.969 6  16255598.145    16255600.562       -2502.999
     -1949.289
  -5275971.933 8  -4122346.402 8  17846088.345    17846092.641       -2246.711
     -1753.971
 -48360224.059 9  28473500.293 7  16000638.626    16000642.868        -314.469
      -243.282
 88  4  2  6 15 29.0800000  0  4G 6G 9G11G13
  16339089.556 9   2214299.616 8  19393343.700    19393348.826       -4068.110
     -3192.468
 -19818883.701 8 -15534330.120 7  16269906.551    16269909.138       -2523.684
     -1949.401
  -5208226.509 8  -4069557.768 8  17858980.077    17858984.157       -2274.845
     -1769.885
 -48350814.327 9  28480832.552 7  16002429.476    16002433.667        -310.155
      -251.677
 88  4  2  6 15 59.0800000  0  4G 6G 9G11G13
  16461889.750 9   2309988.062 7  19416712.121    19416716.887       -4094.146
     -3197.377
 -19743149.367 8 -15475316.387 8  16284318.219    16284320.693       -2533.262
     -1966.302
  -5140423.099 8  -4016723.952 8  17871882.613    17871886.432       -2246.424
     -1768.219
 -48341095.000 9  28488406.059 7  16004279.443    16004283.998        -319.788
      -252.143
 88  4  2  6 16 29.0800000  0  4G 6G 9G11G13
  16584843.652 9   2405796.264 7  19440109.435    19440113.512       -4093.213
     -3216.702
 -19666870.914 8 -15415878.653 7  16298834.140    16298835.198       -2555.207
     -1983.011
  -5072562.083 8  -3963845.244 9  17884795.760    17884801.076       -2271.647
     -1766.517
 -48331066.448 9  28496220.528 7  16006187.545    16006190.836        -342.371
      -275.177
 88  4  2  6 16 59.0800000  0  4G 6G 9G11G13
  16707945.673 9   2501719.883 8  19463535.574    19463539.564       -4089.178
     -3193.077
 -19590053.657 9 -15356021.059 7  16313450.231    16313454.033       -2583.404
     -1992.854
  -5004647.584 7  -3910924.865 8  17897720.991    17897725.080       -2257.484
     -1776.745
 -48320732.884 8  28504272.649 7  16008153.925    16008156.465        -354.994
      -277.489
 88  4  2  6 17 29.0800000  0  3G 9G11G13
 -19512701.746 8 -15295746.872 7  16328170.620    16328174.293       -2587.431
     -2015.627
  -4936683.039 8  -3857965.490 9  17910652.895    17910657.370       -2257.843
     -1760.421
 -48310098.643 9  28512559.093 8  16010177.613    16010181.944        -349.500
      -271.853
 88  4  2  6 17 59.0800000  0  4G 3G 9G11G13
 -88668774.621 8   2865326.256 7                                      2107.965
     -3201.422
 -19434815.080 8 -15235055.982 7  16342992.079    16342994.621       -2603.914
     -2023.929
  -4868667.160 8  -3804966.110 9  17923595.877    17923600.890       -2256.759
     -1777.434
 -48299162.452 9  28521080.790 8  16012259.093    16012264.052        -371.613
      -275.351
 88  4  2  6 18 29.0800000  0  4G 3G 9G11G13
 -88731272.110 9 112371491.843 7  18337092.961    18337096.438        2072.288
      1613.769
 -19356393.649 8 -15173948.400 6  16357915.605    16357918.616       -2610.956
     -2031.093
  -4800599.229 8  -3751926.180 7  17936547.335    17936553.005       -2285.825
     -1766.374
 -48287924.081 8  28529837.961 7  16014397.323    16014400.769        -368.662
      -291.228
 88  4  2  6 18 59.0800000  0  4G 3G 9G11G13
 -88793529.404 9 112322979.692 8  18325244.968    18325250.340        2086.155
      1631.622
 -19277441.538 8 -15112427.293 6  16372938.550    16372943.160       -2645.604
     -2060.652
  -4732481.854 9  -3698847.702 9  17949510.651    17949515.186       -2287.332
     -1766.156
 -48276386.018 8  28538828.683 7  16016593.038    16016596.471        -373.176
      -309.602
 88  4  2  6 19 29.0800000  0  4G 3G 9G11G13
 -88855546.531 9 112274654.673 7  18313444.103    18313448.956        2067.272
      1596.209
 -19197962.465 8 -15050495.569 8  16388064.054    16388067.351       -2656.753
     -2066.661
  -4664318.291 8  -3645733.253 8  17962482.699    17962486.131       -2246.536
     -1773.072
 -48264551.330 8  28548050.512 8  16018845.270    16018849.459        -399.324
      -314.318
 88  4  2  6 19 59.0800000  0  4G 3G 9G11G13
 -88917323.322 8 112226516.938 7  18301688.255    18301692.441        2050.957
      1592.723
 -19117958.777 7 -14988155.054 7  16403288.278    16403292.365       -2677.199
     -2080.978
  -4596109.560 8  -3592583.599 8  17975462.818    17975466.102       -2268.513
     -1787.526
 -48252422.069 9  28557501.888 8  16021152.478    16021157.397        -410.392
      -324.415
 88  4  2  6 20 29.0800000  0  4G 3G 9G11G13
 -88978859.816 8 112178566.435 7  18289978.560    18289983.172        2066.403
      1578.531
 -19037432.716 9 -14925407.495 6  16418612.273    16418614.678       -2689.304
     -2111.593
  -4527856.513 9  -3539399.418 8  17988450.682    17988454.977       -2260.929
     -1766.771
 -48239999.646 9  28567181.689 7  16023516.062    16023521.596        -417.083
      -324.788
 88  4  2  6 20 59.0800000  0  4G 3G 9G11G13
 -89040157.577 9 112130801.988 7  18278313.862    18278318.093        2034.370
      1613.919
 -18956387.704 8 -14862255.553 7  16434034.538    16434036.922       -2704.543
     -2117.832
  -4459561.170 8  -3486182.278 8  18001446.089    18001449.575       -2293.345
     -1765.056
 -48227286.541 9  28577088.025 7  16025936.669    16025939.944        -414.786
      -337.800
 88  4  2  6 21 29.0800000  0  4G 3G 9G11G13
 -89101214.164 9 112083225.432 7  18266694.985    18266698.863        2018.645
      1573.256
 -18874823.763 9 -14798699.265 7  16449554.916    16449558.142       -2724.064
     -2132.484
  -4391222.800 9  -3432931.602 8  18014451.536    18014454.394       -2278.624
     -1768.965
 -48214281.615 8  28587221.742 7  16028411.388    16028415.694        -429.993
      -350.712
 88  4  2  6 21 59.0800000  0  4G 3G 9G11G13
 -89162029.597 9 112035836.819 7  18255122.891    18255125.174        2018.445
      1566.874
 -18792743.754 8 -14734740.821 7  16465174.328    16465177.988       -2749.909
     -2134.590
  -4322842.904 8  -3379648.587 7  18027462.545    18027467.438       -2283.258
     -1783.313
 -48200987.213 8  28597581.011 7  16030940.816    16030945.052        -442.904
      -371.876
 88  4  2  6 22 29.0800000  0  4G 3G 9G11G13
 -89222606.208 8 111988634.291 7  18243594.903    18243598.451        2016.244
      1567.483
 -18710152.393 9 -14670383.945 8  16480890.621    16480894.592       -2754.757
     -2153.729
  -4254425.087 8  -3326335.996 8  18040482.343    18040486.395       -2298.202
     -1765.591
 -48187407.289 9  28608162.776 7  16033525.444    16033529.406        -453.470
      -365.582
 88  4  2  6 22 59.0800000  0  4G 3G 9G11G13
 -89282944.158 9 111941617.710 6  18232113.749    18232117.398        2018.581
      1575.058
 -18627052.249 8 -14605630.616 7  16496704.460    16496707.465       -2776.487
     -2165.696
  -4185970.524 7  -3272994.792 8  18053509.092    18053513.478       -2283.297
     -1768.437
 -48173543.188 9  28618965.983 8  16036163.661    16036167.822        -461.739
      -360.058
 88  4  2  6 23 29.0800000  0  4G 3G 9G11G13
 -89343042.082 9 111894788.174 7  18220676.319    18220679.138        2008.701
      1569.428
 -18543444.222 8 -14540481.527 7  16512614.864    16512618.184       -2799.773
     -2184.307
  -4117478.413 8  -3219624.318 8  18066543.034    18066547.047       -2277.109
     -1781.610
 -48159394.876 9  28629990.658 8  16038855.943    16038857.986        -475.351
      -380.377
 88  4  2  6 23 59.0800000  0  4G 3G 9G11G13
 -89402899.565 8 111848146.010 7  18209286.289    18209290.986        2012.935
      1548.220
 -18459329.510 8 -14474937.622 8  16528620.178    16528624.242       -2800.522
     -2183.151
  -4048949.246 8  -3166224.984 8  18079582.784    18079586.876       -2298.624
     -1773.047
 -48144963.228 9  28641236.090 8  16041601.460    16041605.834        -485.575
      -368.260
 88  4  2  6 24 29.0800000  0  4G 3G 9G11G13
 -89462518.006 9 111801690.107 7  18197940.911    18197944.195        1988.438
      1542.733
 -18374712.585 8 -14409002.370 7  16544722.117    16544725.894       -2830.139
     -2208.565
  -3980385.604 8  -3112798.773 8  18092631.021    18092634.054       -2285.435
     -1782.262
 -48130251.106 9  28652700.080 8  16044401.644    16044405.162        -480.495
      -371.454
 88  4  2  6 24 59.0800000  0  4G 3G 9G11G13
 -89521899.076 8 111755419.172 8  18186641.776    18186646.142        1970.192
      1527.870
 -18289597.390 9 -14342678.871 8  16560921.033    16560923.894       -2848.560
     -2225.951
  -3911790.505 8  -3059348.058 7  18105684.040    18105687.711       -2278.640
     -1777.006
 -48115261.872 9  28664380.019 8  16047253.885    16047256.988        -491.603
      -388.219
 88  4  2  6 25 29.0800000  0  4G 3G 9G11G13
 -89581042.651 9 111709333.284 6  18175385.702    18175390.356        1975.296
      1525.534
 -18203986.062 9 -14275968.768 7  16577211.776    16577214.012       -2861.470
     -2230.792
  -3843164.299 8  -3005873.106 8  18118742.832    18118746.432       -2275.514
     -1775.315
 -48099996.236 9  28676275.330 7  16050158.526    16050162.129        -510.773
      -400.367
 88  4  2  6 25 59.0800000  0  4G 3G 9G11G13
 -89639949.051 8 111663432.221 6  18164177.680    18164180.322        1969.499
      1515.436
 -18117881.507 8 -14208874.344 7  16593596.482    16593600.808       -2876.103
     -2238.093
  -3774508.466 9  -2952375.073 9  18131808.098    18131811.815       -2301.742
     -1785.133
 -48084456.964 9  28688383.855 7  16053116.320    16053118.518        -530.271
      -405.897
 88  4  2  6 26 29.0800000  0  4G 3G 9G11G13
 -89698616.573 9 111617717.274 7  18153013.734    18153015.595        1956.947
      1521.538
 -18031284.700 9 -14141396.318 6  16610076.005    16610079.953       -2896.948
     -2260.631
  -3705822.559 8  -2898853.587 8  18144877.256    18144882.007       -2288.178
     -1777.963
 -48068643.635 9  28700705.931 8  16056124.493    16056128.026        -527.336
      -425.054
 88  4  2  6 26 59.0800000  0  4G 3G 9G11G13
 -89757046.481 8 111572187.516 7  18141894.014    18141897.606        1931.604
      1540.080
 -17944198.703 9 -14073537.126 7  16626646.833    16626649.838       -2905.130
     -2265.546
  -3637108.033 8  -2845309.824 8  18157954.385    18157958.486       -2307.229
     -1786.115
 -48052558.299 9  28713239.971 7  16059185.822    16059189.241        -527.711
      -425.122
 88  4  2  6 27 29.0800000  0  4G 3G 9G11G13
 -89815240.074 8 111526841.859 8  18130820.435    18130825.138        1930.297
      1499.374
 -17856627.022 9 -14005299.471 6  16643311.147    16643315.134       -2922.881
     -2270.945
  -3568367.162 7  -2791745.510 8  18171035.071    18171039.046       -2301.367
     -1786.606
 -48036203.219 9  28725984.192 8  16062297.368    16062302.456        -554.768
      -419.412
 88  4  2  6 27 59.0800000  0  4G 3G 9G11G13
 -89873198.236 8 111481679.699 7  18119791.166    18119793.925        1925.975
      1504.649
 -17768573.594 8 -13936686.420 7  16660068.472    16660073.279       -2943.287
     -2294.943
  -3499602.091 8  -2738162.344 8  18184120.262    18184125.443       -2272.915
     -1785.170
 -48019581.493 9  28738936.191 7  16065460.691    16065463.866        -546.172
      -436.233
 88  4  2  6 28 29.0800000  0  4G 3G 9G11G13
 -89930921.286 8 111436700.703 7  18108806.609    18108810.452        1917.530
      1496.186
 -17680040.733 9 -13867699.811 8  16676915.136    16676918.874       -2956.556
     -2303.239
  -3430813.483 8  -2684560.834 8  18197211.637    18197214.835       -2296.973
     -1797.082
 -48002693.984 9  28752095.282 8  16068674.756    16068678.816        -575.358
      -444.801
 88  4  2  6 28 59.0800000  0  4G 3G 9G11G13
 -89988407.232 8 111391906.484 7  18097867.307    18097869.812        1915.927
      1490.699
 -17591029.083 8 -13798340.094 7  16693853.568    16693855.485       -2971.843
     -2303.369
  -3362000.398 8  -2630940.252 7  18210305.418    18210309.009       -2294.972
     -1792.515
 -47985540.933 9  28765461.309 8  16071938.531    16071942.167        -554.186
      -462.511
 88  4  2  6 29 29.0800000  0  4G 3G 9G11G13
 -90045655.444 8 111347297.515 7  18086972.348    18086978.049        1903.208
      1483.056
 -17501541.072 9 -13728609.197 6  16710881.838    16710885.834       -2995.862
     -2317.648
  -3293163.762 8  -2577301.319 8  18223404.383    18223409.222       -2285.108
     -1785.481
 -47968123.098 8  28779033.641 8  16075253.079    16075256.680        -585.126
      -449.977
 88  4  2  6 29 59.0800000  0  4G 3G 9G11G13
 -90102669.007 9 111302871.366 8  18076124.581    18076127.463        1887.594
      1477.215
 -17411581.624 8 -13658510.947 7  16728001.276    16728003.879       -2993.845
     -2350.438
  -3224306.868 8  -2523646.604 8  18236506.972    18236510.888       -2308.488
     -1778.000
 -47950444.633 9  28792809.082 7  16078617.719    16078619.757        -610.716
      -442.676
 88  4  2  6 30 29.0800000  0  4G 3G 9G11G13
 -90159449.049 9 111258627.202 7  18065319.677    18065323.571        1889.213
      1470.362
 -17321154.584 9 -13588048.337 7  16745209.118    16745213.654       -3028.740
     -2362.388
  -3155431.861 8  -2469977.770 8  18249613.665    18249617.495       -2314.948
     -1781.424
 -47932508.061 9  28806785.622 6  16082031.162    16082033.808        -587.208
      -474.398
 88  4  2  6 30 59.0800000  0  4G 3G 9G11G13
 -90215996.059 8 111214564.627 7  18054558.622    18054562.600        1893.599
      1478.607
 -17230262.335 8 -13517223.232 6  16762504.873    16762508.815       -3031.810
     -2372.056
  -3086539.366 9  -2416295.318 9  18262723.188    18262728.315       -2301.838
     -1792.086
 -47914315.012 9  28820962.034 7  16085492.832    16085497.049        -604.608
      -468.619
 88  4  2  6 31 29.0800000  0  4G 3G 9G11G13
 -90272306.767 8 111170686.180 7  18043843.045    18043847.512        1883.200
      1451.795
 -17138904.614 9 -13446035.427 7  16779890.917    16779891.896       -3066.993
     -2358.902
  -3017627.227 8  -2362597.558 8  18275837.282    18275841.060       -2302.444
     -1810.218
 -47895863.126 8  28835340.123 8  16089004.227    16089007.517        -615.796
      -495.587
 88  4  2  6 31 59.0800000  0  4G 3G 9G11G13
 -90328382.456 8 111126990.868 7  18033172.418    18033175.737        1874.875
      1456.629
 -17047085.162 9 -13374487.821 7  16797364.083    16797366.795       -3057.472
     -2366.364
  -2948697.824 8  -2308886.334 8  18288953.471    18288957.967       -2292.213
     -1772.109
 -47877155.624 9  28849917.397 8  16092563.279    16092567.054        -620.796
      -487.024
 88  4  2  6 32 29.0800000  0  4G 3G 9G11G13
 -90384225.950 8 111083476.479 8  18022545.504    18022548.537        1865.999
      1463.607
 -16954809.066 9 -13302584.392 7  16814922.215    16814925.186       -3084.457
     -2396.855
  -2879754.206 9  -2255164.019 8  18302073.686    18302077.720       -2314.597
     -1804.974
 -47858196.045 9  28864691.088 8  16096171.680    16096175.586        -625.070
      -500.943
 88  4  2  6 32 59.0800000  0  4G 3G 9G11G13
 -90439837.897 8 111040142.498 7  18011962.042    18011966.079        1859.397
      1445.935
 -16862080.248 9 -13230328.202 7  16832568.308    16832570.137       -3088.484
     -2412.974
  -2810797.920 8  -2201431.850 8  18315195.650    18315199.354       -2297.101
     -1791.179
 -47838987.319 8  28879658.946 8  16099827.585    16099832.177        -654.352
      -526.289
 88  4  2  6 33 29.0800000  0  4G 3G 9G11G13
 -90495216.263 8 110996990.567 7  18001424.529    18001427.841        1848.942
      1440.883
 -16768898.501 8 -13157719.060 8  16850299.581    16850303.017       -3113.867
     -2416.112
  -2741827.842 8  -2147688.940 9  18328320.003    18328323.979       -2286.703
     -1793.975
 -47819528.679 8  28894821.518 8  16103529.582    16103534.232        -640.070
      -522.697
 88  4  2  6 33 59.0800000  0  4G 3G 9G11G13
 -90550362.459 8 110954019.545 7  17990929.949    17990934.149        1858.352
      1443.543
 -16675268.028 8 -13084760.282 7  16868116.931    16868120.338       -3138.300
     -2433.790
  -2672845.732 8  -2093936.645 7  18341448.172    18341451.269       -2291.854
     -1793.335
 -47799822.184 8  28910177.233 8  16107279.461    16107283.453        -647.629
      -522.492
 88  4  2  6 34 29.0800000  0  4G 3G 9G11G13
 -90605277.729 9 110911228.432 7  17980480.353    17980485.191        1840.450
      1425.243
 -16581192.369 8 -13011454.610 8  16886018.177    16886022.731       -3147.941
     -2452.164
  -2603853.193 8  -2040176.233 8  18354576.162    18354579.536       -2317.157
     -1776.061
 -47779870.636 9  28925723.898 7  16111077.235    16111080.151        -668.403
      -524.673
 88  4  2  6 34 59.0800000  0  4G 3G 9G11G13
 -90659960.627 8 110868618.408 7  17970075.761    17970077.910        1831.925
      1407.006
 -16486672.817 8 -12937803.038 8  16904005.121    16904008.266       -3140.955
     -2453.277
  -2534849.811 8  -1986407.372 8  18367705.986    18367710.030       -2308.879
     -1799.238
 -47759673.833 9  28941461.656 8  16114920.293    16114924.182        -666.576
      -525.270
 88  4  2  6 35 29.0800000  0  4G 3G 9G11G13
 -90714411.753 8 110826188.996 7  17959712.313    17959717.097        1802.396
      1409.640
 -16391712.449 8 -12863807.954 7  16922075.831    16922079.509       -3170.580
     -2459.900
  -2465836.586 8  -1932630.844 8  18380839.462    18380843.498       -2318.552
     -1799.425
 -47739233.804 9  28957388.964 7  16118809.941    16118812.714        -688.610
      -542.662
 88  4  2  6 35 59.0800000  0  4G 3G 9G11G13
 -90768632.933 9 110783938.752 8  17949395.416    17949398.640        1823.584
      1396.710
 -16296315.212 8 -12789472.472 7  16940229.367    16940232.301       -3177.789
     -2480.046
  -2396816.012 8  -1878848.586 8  18393974.370    18393977.601       -2304.166
     -1784.450
 -47718553.233 9  28973503.690 7  16122744.802    16122747.576        -684.208
      -539.002
 88  4  2  6 36 29.0800000  0  4G 3G 9G11G13
 -90822625.081 8 110741866.984 7  17939120.402    17939125.058        1793.536
      1400.127
 -16200485.073 8 -12714799.653 8  16958465.062    16958468.796       -3196.234
     -2482.059
  -2327789.526 8  -1825061.721 8  18407109.808    18407113.560       -2314.294
     -1789.794
 -47697633.754 9  28989804.579 7  16126726.485    16126729.059        -697.948
      -547.969
 88  4  2  6 36 59.0800000  0  4G 3G 9G11G13
 -90876387.782 9 110699974.007 7  17928890.116    17928894.514        1788.449
      1404.564
 -16104224.073 9 -12639791.107 8  16976782.708    16976787.875       -3205.197
     -2496.537
  -2258757.172 7  -1771270.290 7  18420245.544    18420249.631       -2323.042
     -1787.973
 -47676476.928 9  29006290.416 7  16130751.647    16130756.362        -736.528
      -553.201
 88  4  2  6 37 29.0800000  0  4G 3G 9G11G13
 -90929920.563 8 110658260.182 8  17918702.914    17918709.033        1804.669
      1393.913
 -16007534.142 8 -12564448.343 7  16995182.943    16995186.249       -3232.270
     -2521.224
  -2189719.288 8  -1717474.546 8  18433382.362    18433386.592       -2299.533
     -1792.490
 -47655083.592 9  29022960.552 8  16134822.429    16134826.045        -707.222
      -553.114
 88  4  2  6 37 59.0800000  0  4G 3G 9G11G13
 -90983225.101 8 110616724.210 7  17908560.368    17908564.514        1772.221
      1395.840
 -15910419.397 9 -12488774.533 8  17013663.798    17013666.654       -3228.123
     -2524.586
  -2120677.910 7  -1663676.095 8  18446521.025    18446524.949       -2290.913
     -1792.528
 -47633456.151 9  29039813.091 8  16138939.114    16138941.570        -743.441
      -568.195
 88  4  2  6 38 29.0800000  0  4G 3G 9G11G13
 -91036301.436 9 110575366.053 7  17898460.092    17898462.675        1762.835
      1383.499
 -15812883.179 8 -12412772.310 7  17032224.525    17032227.065       -3254.662
     -2532.024
  -2051634.001 8  -1609875.653 8  18459659.671    18459663.771       -2289.733
     -1794.783
 -47611596.679 9  29056846.453 8  16143098.496    16143101.943        -733.138
      -577.708
 88  4  2  6 38 59.0800000  0  4G 3G 9G11G13
 -91089150.457 8 110534185.018 7  17888402.515    17888406.473        1756.950
      1364.752
 -15714928.597 9 -12336444.083 7  17050864.278    17050866.680       -3272.261
     -2566.659
  -1982588.764 8  -1556074.190 8  18472799.115    18472802.932       -2314.485
     -1793.118
 -47589506.529 9  29074059.570 8  16147301.755    16147304.385        -734.526
      -571.594
 88  4  2  6 39 29.0800000  0  4G 3G 9G11G13
 -91141772.306 9 110493181.034 7  17878388.882    17878393.339        1751.862
      1364.572
 -15616558.312 9 -12259791.931 7  17069583.777    17069587.083       -3280.754
     -2556.935
  -1913542.335 8  -1502271.781 8  18485938.208    18485941.863       -2294.398
     -1798.462
 -47567186.819 9  29091451.545 8  16151548.803    16151552.734        -745.411
      -584.804
 88  4  2  6 39 59.0800000  0  4G 3G 9G11G13
 -91194165.945 8 110452354.838 7  17868418.180    17868421.835        1748.832
      1363.273
 -15517773.910 9 -12182817.098 7  17088381.212    17088383.729       -3293.752
     -2571.724
  -1844494.291 8  -1448468.117 8  18499076.212    18499080.431       -2309.836
     -1783.449
 -47544638.608 8  29109021.575 7  16155839.306    16155844.288        -744.390
      -607.298
 88  4  2  6 40 29.0800000  0  4G 3G 9G11G13
 -91246334.366 8 110411704.140 7  17858491.897    17858494.708        1750.515
      1358.029
 -15418580.652 8 -12105523.670 8  17107257.919    17107259.745       -3303.911
     -2581.678
  -1775447.949 7  -1394665.789 8  18512215.877    18512220.939       -2279.653
     -1789.564
 -47521865.164 9  29126767.103 8  16160173.730    16160177.362        -765.387
      -589.464
 88  4  2  6 40 59.0800000  0  4G 3G 9G11G13
 -91298277.963 9 110371228.625 7  17848608.317    17848610.548        1731.273
      1345.583
 -15318981.584 9 -12027914.033 7  17126209.688    17126213.323       -3333.967
     -2584.294
  -1706404.272 8  -1340865.539 9  18525354.374    18525359.156       -2291.049
     -1791.384
 -47498868.431 9  29144686.657 7  16164549.202    16164554.006        -771.567
      -592.546
 88  4  2  6 41 29.0800000  0  4G 3G 9G11G13
 -91349995.019 9 110330929.627 7  17838765.709    17838770.354        1716.480
      1325.984
 -15218978.073 9 -11949989.233 7  17145239.404    17145244.379       -3356.303
     -2607.720
  -1637362.041 8  -1287066.416 8  18538492.910    18538497.420       -2328.289
     -1787.836
 -47475647.790 9  29162780.653 8  16168968.081    16168972.372        -774.358
      -615.413
 88  4  2  6 41 59.0800000  0  4G 3G 9G11G13
 -91401486.717 8 110290806.272 8  17828965.984    17828970.749        1721.504
      1348.739
 -15118573.591 9 -11871751.997 7  17164346.682    17164349.342       -3349.796
     -2613.039
  -1568322.805 7  -1233269.634 9  18551630.009    18551635.291       -2305.618
     -1792.782
 -47452205.327 9  29181047.510 8  16173428.573    16173432.116        -788.042
      -606.086
 88  4  2  6 42 29.0800000  0  4G 3G 9G11G13
 -91452754.265 9 110250857.554 7  17819211.516    17819215.418        1713.051
      1316.316
 -15017771.758 8 -11793205.129 7  17183528.360    17183532.210       -3375.832
     -2618.849
  -1499287.939 8  -1179476.238 8  18564767.506    18564772.252       -2287.029
     -1794.634
 -47428543.583 9  29199485.235 8  16177932.458    16177936.131        -799.836
      -618.887
 88  4  2  6 42 59.0800000  0  4G 3G 9G11G13
 -91503798.911 9 110211082.532 8  17809496.928    17809502.088        1691.887
      1312.028
 -14916576.664 9 -11714351.830 7  17202785.264    17202788.698       -3377.730
     -2635.614
  -1430258.969 7  -1125687.457 8  18577903.736    18577908.248       -2300.841
     -1787.426
 -47404665.402 9  29218091.604 8  16182475.761    16182479.777        -807.691
      -616.550
 88  4  2  6 43 29.0800000  0  4G 3G 9G11G13
 -91554622.086 9 110171480.087 6  17799825.373    17799830.108        1677.135
      1311.811
 -14814992.280 8 -11635195.202 7  17222115.869    17222119.451       -3405.576
     -2637.888
  -1361237.901 8  -1071904.816 9  18591037.939    18591041.851       -2297.380
     -1787.364
 -47380572.751 8  29236865.109 8  16187060.872    16187064.762        -809.485
      -641.660
 88  4  2  6 43 59.0800000  0  4G 3G 9G11G13
 -91605220.852 9 110132052.496 6  17790197.926    17790200.378        1676.592
      1316.825
 -14713018.151 9 -11555734.863 7  17241520.960    17241523.993       -3406.374
     -2659.425
  -1292222.113 7  -1018126.293 8  18604171.404    18604175.702       -2297.396
     -1800.941
 -47356263.636 9  29255807.266 8  16191685.863    16191690.111        -815.450
      -642.661
 88  4  2  6 44 29.0800000  0  4G 3G 9G11G13
 -91655597.396 8 110092798.054 6  17780610.940    17780613.717        1682.693
      1312.556
 -14610659.423 8 -11475974.846 8  17260999.412    17261001.794       -3422.052
     -2663.153
  -1223213.913 8   -964353.689 8  18617303.628    18617306.215       -2298.401
     -1803.719
 -47331741.432 9  29274915.484 8  16196352.916    16196357.191        -821.048
      -636.223
 88  4  2  6 44 59.0800000  0  4G 3G 9G11G13
 -91705753.189 9 110053715.643 7  17771066.688    17771069.706        1668.076
      1308.716
 -14507920.566 8 -11395918.612 8  17280550.603    17280553.893       -3423.949
     -2670.821
  -1154215.173 8   -910588.448 9  18630432.552    18630436.981       -2302.827
     -1783.157
 -47307009.134 9  29294187.410 8  16201059.419    16201061.705        -833.049
      -648.551
 88  4  2  6 45 29.0800000  0  4G 3G 9G11G13
 -91755687.551 9 110014805.776 7  17761564.998    17761569.088        1660.413
      1307.480
 -14404802.341 9 -11315566.767 8  17300172.296    17300175.113       -3433.032
     -2677.942
  -1085225.335 7   -856830.159 9  18643561.055    18643565.318       -2282.484
     -1781.647
 -47282066.010 9  29313623.616 8  16205805.570    16205809.602        -832.331
      -652.497
 88  4  2  6 45 59.0800000  0  4G 3G 9G11G13
 -91805400.548 9 109976068.375 7  17752104.092    17752109.416        1662.901
      1294.350
 -14301308.350 9 -11234922.127 7  17319866.576    17319869.253       -3458.765
     -2681.347
  -1016244.997 8   -803079.250 8  18656687.506    18656693.651       -2271.727
     -1799.754
 -47256914.549 9  29333222.148 8  16210592.630    16210596.105        -834.923
      -661.551
 88  4  2  6 46 29.0800000  0  4G 3G 9G11G13
 -91854892.938 9 109937502.906 7  17742686.210    17742689.812        1646.992
      1265.947
 -14197441.684 8 -11153987.080 7  17339632.661    17339636.439       -3475.831
     -2710.204
   -947274.805 8   -749336.268 8  18669812.336    18669817.299       -2307.388
     -1789.091
 -47231555.641 9  29352982.338 8  16215417.787    16215422.561        -849.229
      -657.816
 88  4  2  6 46 59.0800000  0  4G 3G 9G11G13
 -91904167.587 9 109899107.097 7  17733310.059    17733313.816        1644.567
      1277.082
 -14093207.509 8 -11072765.662 8  17359466.570    17359470.582       -3470.081
     -2713.864
   -878317.856 8   -695603.594 9  18682934.308    18682938.464       -2292.324
     -1774.912
 -47205993.187 8  29372901.137 7  16220282.711    16220285.525        -865.975
      -665.130
 88  4  2  6 47 29.0800000  0  4G 3G 9G11G13
 -91953223.813 9 109860881.486 7  17723974.948    17723978.854        1627.423
      1270.191
 -13988608.728 8 -10991260.156 7  17379372.015    17379375.736       -3498.749
     -2729.517
   -809374.188 8   -641881.268 9  18696053.788    18696058.474       -2295.315
     -1778.255
 -47180228.827 9  29392977.257 7  16225184.943    16225189.247        -864.763
      -677.986
 88  4  2  6 47 59.0800000  0  4G 3G 9G11G13
 -92002061.798 8 109822825.929 7  17714679.839    17714685.010        1611.139
      1262.535
 -13883647.435 8 -10909472.150 7  17399344.850    17399349.363       -3508.406
     -2731.207
   -740443.708 8   -588169.230 7  18709171.909    18709174.948       -2304.501
     -1790.782
 -47154262.602 9  29413210.687 8  16230125.824    16230129.571        -864.077
      -686.219
 88  4  2  6 48 29.0800000  0  3G 3G 9G13
 -92050681.264 8 109784940.641 8  17705428.764    17705430.508        1620.828
      1252.860
 -13778325.927 8 -10827403.474 7  17419387.373    17419391.336       -3510.192
     -2725.099
 -47128095.344 9  29433600.761 7  16235106.590    16235109.620        -901.023
      -707.116
 88  4  2  6 48 59.0800000  0  3G 3G 9G13
 -92099083.779 8 109747224.422 7  17696218.226    17696221.923        1611.091
      1263.225
 -13672648.797 8 -10745057.677 8  17439496.340    17439500.554       -3534.179
     -2751.526
 -47101729.722 8  29454145.398 8  16240122.465    16240125.912        -873.599
      -690.003
 88  4  2  6 49 29.0800000  0  3G 3G 9G13
 -92147270.910 8 109709676.022 8  17687048.017    17687052.348        1606.522
      1252.407
 -13566619.993 8 -10662437.858 7  17459674.225    17459675.739       -3548.788
     -2748.605
 -47075168.287 9  29474842.624 7  16245176.704    16245179.964        -886.007
      -693.172
 88  4  2  6 49 59.0800000  0  3G 3G 9G13
 -92195243.218 9 109672295.009 8  17677921.181    17677924.358        1604.536
      1252.003
 -13460243.185 9 -10579546.855 7  17479915.905    17479920.412       -3543.804
     -2757.249
 -47048412.758 8  29495691.074 8  16250268.852    16250272.555        -895.488
      -697.019
 88  4  2  6 50 29.0800000  0  3G 3G 9G13
 -92243000.441 9 109635081.611 7  17668831.798    17668835.804        1588.484
      1240.197
 -13353520.156 9 -10496386.092 7  17500225.602    17500229.321       -3561.682
     -2773.815
 -47021463.521 9  29516690.496 8  16255396.440    16255399.616        -894.005
      -713.125
 88  4  2  6 50 59.0800000  0  3G 3G 9G13
 -92290541.364 9 109598036.756 7  17659784.339    17659788.108        1580.446
      1225.961
 -13246453.004 8 -10412957.148 8  17520600.456    17520602.566       -3580.239
     -2789.995
 -46994320.329 9  29537841.040 7  16260560.853    16260565.330        -888.726
      -702.611
 88  4  2  6 51 29.0800000  0  3G 3G 9G13
 -92337867.782 8 109561159.053 8  17650778.258    17650783.477        1577.575
      1230.081
 -13139045.198 8 -10329262.780 7  17541037.743    17541042.030       -3573.740
     -2795.656
 -46966985.708 9  29559140.755 7  16265764.164    16265765.878        -915.329
      -717.015
 88  4  2  6 51 59.0800000  0  3G 3G 9G13
 -92384978.909 9 109524449.109 8  17641813.086    17641818.457        1565.310
      1214.702
 -13031299.168 8 -10245304.858 7  17561542.104    17561546.726       -3587.703
     -2805.666
 -46939460.456 8  29580589.003 8  16271001.511    16271003.825        -915.751
      -713.392
 88  4  2  6 52 29.0800000  0  3G 3G 9G13
 -92431878.906 8 109487903.670 7  17632891.324    17632890.885        1529.721
      1185.919
 -12923222.331 9 -10161089.165 7  17582107.594    17582112.768       -3599.154
     -2821.878
 -46911750.061 9  29602181.513 8  16276275.257    16276278.626        -931.931
      -695.869
 88  4  2  6 52 59.0800000  0  3G 3G 9G13
 -92478569.422 9 109451521.467 7  17624004.407    17624009.447        1541.563
      1209.644
 -12814818.496 8 -10076618.661 7  17602736.876    17602741.227       -3608.069
     -2819.517
 -46883856.274 9  29623916.935 8  16281581.511    16281586.462        -923.606
      -733.736
 88  4  2  6 53 29.0800000  0  3G 3G 9G13
 -92525046.676 8 109415305.433 8  17615159.793    17615162.986        1547.256
      1210.837
 -12706086.447 8  -9991892.407 8  17623427.193    17623431.149       -3620.804
     -2822.611
 -46855775.887 9  29645797.760 7  16286926.241    16286929.299        -936.421
      -730.095
 88  4  2  6 53 59.0800000  0  3G 3G 9G13
 -92571312.077 7 109379254.489 7  17606355.987    17606359.056        1557.344
      1195.768
 -12597030.154 8  -9906913.512 8  17644181.723    17644184.531       -3636.929
     -2812.433
 -46827511.501 9  29667821.956 7  16292304.695    16292309.301        -944.323
      -748.183
 88  4  2  6 54 29.0800000  0  3G 3G 9G13
 -92617368.470 8 109343366.424 8  17597591.469    17597595.643        1537.017
      1197.887
 -12487654.867 8  -9821686.030 7  17664994.149    17664997.237       -3652.534
     -2830.248
 -46799066.841 8  29689986.625 8  16297717.095    16297720.467        -952.776
      -727.522
 88  4  2  6 54 59.0800000  0  3G 3G 9G13
 -92663214.754 7 109307642.068 7  17588867.429    17588870.525        1527.153
      1199.248
 -12377962.661 8  -9736211.609 7  17685868.380    17685871.349       -3670.182
     -2859.422
 -46770441.255 9  29712292.287 7  16303164.396    16303167.287        -959.865
      -735.743
 88  4  2  6 55 29.0800000  0  3G 3G 9G13
 -92708851.335 8 109272081.110 7  17580182.609    17580186.896        1524.585
      1200.714
 -12267956.828 9  -9650492.805 8  17706801.074    17706805.591       -3660.692
     -2868.308
 -46741636.833 9  29734737.273 8  16308646.490    16308649.955        -948.318
      -748.463
 88  4  2  6 55 59.0800000  0  3G 3G 9G13
 -92754279.907 8 109236682.241 7  17571537.483    17571541.489        1508.876
      1165.613
 -12157641.614 8  -9564532.909 8  17727793.731    17727797.020       -3679.456
     -2857.707
 -46712656.278 9  29757319.531 8  16314161.422    16314163.657        -964.060
      -752.191
 88  4  2  6 56 29.0800000  0  3G 3G 9G13
 -92799501.531 8 109201444.621 8  17562932.072    17562937.212        1511.412
      1182.272
 -12047020.661 8  -9478334.797 7  17748844.479    17748847.449       -3692.813
     -2889.671
 -46683501.088 9  29780037.859 8  16319708.564    16319712.598        -976.938
      -757.423
 88  4  2  6 56 59.0800000  0  3G 3G 9G13
 -92844515.903 8 109166368.515 6  17554365.561    17554370.153        1505.407
      1163.071
 -11936096.495 8  -9391900.391 8  17769950.981    17769955.948       -3695.763
     -2899.606
 -46654172.068 9  29802891.638 7  16325290.579    16325292.682        -971.197
      -753.434
 88  4  2  6 57 29.0800000  0  3G 3G 9G13
 -92889323.081 8 109131453.856 7  17545839.641    17545844.846        1496.858
      1167.353
 -11824871.524 9  -9305231.615 7  17791118.344    17791121.109       -3729.559
     -2887.048
 -46624670.215 9  29825880.086 7  16330903.441    16330908.002        -993.047
      -749.693
 88  4  2  6 57 59.0800000  0  3G 3G 9G13
 -92933922.535 9 109096701.054 7  17537353.390    17537356.699        1480.878
      1158.218
 -11713347.909 8  -9218330.121 7  17812339.520    17812342.604       -3722.039
     -2908.001
 -46594994.857 9  29849003.746 8  16336551.838    16336554.914        -992.664
      -772.367
 88  4  2  6 58 29.0800000  0  3G 3G 9G13
 -92978316.316 7 109062108.521 7  17528906.475    17528909.726        1457.553
      1167.794
 -11601530.348 8  -9131199.586 6  17833616.808    17833623.730       -3714.431
     -2926.301
 -46565149.385 9  29872259.948 8  16342230.671    16342233.225       -1007.935
      -786.367
 88  4  2  6 58 59.0800000  0  3G 3G 9G13
 -93022507.833 9 109027673.591 7  17520497.198    17520500.320        1461.062
      1143.131
 -11489424.886 8  -9043844.703 7  17854952.282    17854955.318       -3740.085
     -2897.761
 -46535137.997 9  29895645.434 8  16347940.177    16347945.164        -995.535
      -775.971
 88  4  2  6 59 29.0800000  0  3G 3G 9G13
 -93066498.034 8 108993395.533 7  17512124.632    17512128.581        1474.211
      1154.067
 -11377035.373 8  -8956268.492 7  17876339.313    17876343.341       -3761.687
     -2936.423
 -46504962.162 9  29919159.082 7  16353683.792    16353686.339       -1004.673
      -780.998
 88  4  2  6 59 59.0800000  0  3G 3G 9G13
 -93110284.941 7 108959275.879 7  17503793.510    17503798.189        1440.767
      1126.056
 -11264362.473 8  -8868471.462 8  17897777.885    17897782.970       -3755.252
     -2919.565
 -46474620.847 9  29942801.660 8  16359457.652    16359461.567       -1009.689
      -805.232
 88  4  2  7  0 29.0800000  0  3G 3G 9G13
 -93153867.435 8 108925315.516 7  17495499.826    17495504.054        1445.966
      1149.618
 -11151407.413 8  -8780454.542 7  17919275.074    17919278.858       -3792.851
     -2951.927
 -46444113.664 9  29966573.476 7  16365262.628    16365266.673       -1011.778
      -795.961
 88  4  2  7  0 59.0800000  0  3G 3G 9G13
 -93197245.246 8 108891514.637 8  17487245.593    17487249.461        1442.338
      1116.940
 -11038172.679 8  -8692219.711 8  17940821.541    17940823.679       -3770.658
     -2944.246
 -46413440.881 8  29990474.343 8  16371099.075    16371102.527       -1031.762
      -785.895
 88  4  2  7  1 29.0800000  0  3G 3G 9G13
 -93240423.255 8 108857869.454 8  17479026.724    17479031.857        1442.936
      1097.373
 -10924666.094 7  -8603773.050 7  17962421.715    17962426.860       -3785.084
     -2960.974
 -46382608.618 9  30014499.487 8  16376966.047    16376971.319       -1034.123
      -801.156
 88  4  2  7  1 59.0800000  0  3G 3G 9G13
 -93283403.597 9 108824378.285 7  17470849.096    17470852.482        1430.233
      1125.813
 -10810892.388 8  -8515118.237 8  17984071.063    17984074.874       -3798.625
     -2957.401
 -46351619.595 9  30038646.769 8  16382863.875    16382867.588       -1030.925
      -798.658
 88  4  2  7  2 29.0800000  0  3G 3G 9G13
 -93326184.601 8 108791042.459 7  17462708.442    17462711.564        1420.600
      1097.373
 -10696853.133 9  -8426256.487 7  18005772.924    18005775.331       -3815.235
     -2958.581
 -46320472.925 9  30062916.902 8  16388791.536    16388793.933       -1044.529
      -812.881
 88  4  2  7  2 59.0800000  0  3G 3G 9G13
 -93368766.152 9 108757862.056 8  17454604.547    17454609.128        1436.190
      1107.495
 -10582550.271 8  -8337189.344 8  18027524.400    18027526.954       -3800.251
     -2968.946
 -46289169.679 9  30087309.054 8  16394747.220    16394750.931       -1044.736
      -800.839
 88  4  2  7  3 29.0800000  0  3G 3G 9G13
 -93411148.394 8 108724836.957 7  17446539.607    17446542.037        1418.686
      1092.868
 -10467986.986 8  -8247919.291 8  18049325.981    18049328.693       -3829.469
     -2985.319
 -46257709.746 9  30111823.260 8  16400734.385    16400738.421       -1051.052
      -815.683
 88  4  2  7  3 59.0800000  0  3G 3G 9G13
 -93453332.330 9 108691966.373 8  17438513.085    17438516.655        1406.342
      1095.124
 -10353166.172 8  -8158448.545 8  18071174.279    18071179.952       -3814.103
     -2973.681
 -46226094.822 9  30136458.287 7  16406750.931    16406752.838       -1057.440
      -812.353
 88  4  2  7  4 29.0800000  0  3G 3G 9G13
 -93495319.220 9 108659249.339 7  17430523.439    17430526.459        1399.220
      1083.069
 -10238092.185 8  -8068780.517 8  18093071.015    18093074.341       -3821.104
     -2974.607
 -46194327.592 9  30161211.952 8  16412794.950    16412799.967       -1044.553
      -831.522
 88  4  2  7  4 59.0800000  0  3G 3G 9G13
 -93537109.142 9 108626685.787 8  17422570.087    17422575.335        1412.849
      1072.462
 -10122768.063 8  -7978917.590 8  18115016.327    18115019.766       -3845.912
     -2992.571
 -46162408.759 9  30186083.776 8  16418870.042    16418872.659       -1071.100
      -819.691
 88  4  2  7  5 29.0800000  0  3G 3G 9G13
 -93578703.767 8 108594274.396 8  17414655.658    17414659.043        1383.009
      1073.953
 -10007197.536 8  -7888862.665 8  18137009.219    18137013.390       -3852.196
     -3002.109
 -46130339.842 9  30211072.540 8  16424971.921    16424975.325       -1080.940
      -828.708
 88  4  2  7  5 59.0800000  0  3G 3G 9G13
 -93620103.704 9 108562014.735 7  17406775.996    17406780.459        1392.642
      1088.295
  -9891384.382 8  -7798618.672 7  18159046.614    18159050.646       -3851.295
     -3030.481
 -46098122.367 9  30236177.072 8  16431102.887    16431106.464       -1079.744
      -838.364
 88  4  2  7  6 29.0800000  0  3G 3G 9G13
 -93661310.414 8 108529905.625 8  17398937.194    17398939.451        1348.791
      1078.005
  -9775332.718 8  -7708188.845 8  18181131.484    18181136.701       -3866.829
     -3022.863
 -46065758.954 9  30261395.311 7  16437261.731    16437263.794       -1068.651
      -847.566
 88  4  2  7  6 59.0800000  0  3G 3G 9G13
 -93702323.444 9 108497947.436 6  17391129.807    17391135.925        1393.319
      1057.592
  -9659044.903 9  -7617574.979 8  18203261.397    18203264.295       -3871.702
     -3020.651
 -46033249.431 9  30286727.406 8  16443448.019    16443451.724       -1087.670
      -837.997
 88  4  2  7  7 29.0800000  0  3G 3G 9G13
 -93743144.667 9 108466138.704 8  17383362.376    17383368.134        1376.709
      1055.014
  -9542525.059 8  -7526780.326 8  18225433.176    18225439.440       -3878.057
     -3036.925
 -46000596.682 9  30312171.118 8  16449660.618    16449664.164       -1095.501
      -840.073
 88  4  2  7  7 59.0800000  0  3G 3G 9G13
 -93783771.423 8 108434481.508 8  17375631.582    17375636.770        1359.755
      1055.492
  -9425773.646 8  -7435805.220 8  18247651.637    18247656.335       -3894.205
     -3017.488
 -45967798.215 9  30337728.356 8  16455903.007    16455906.753       -1103.755
      -845.143
 88  4  2  7  8 29.0800000  0  3G 3G 9G13
 -93824207.340 8 108402973.022 7  17367938.596    17367941.066        1333.432
      1050.018
  -9308796.852 9  -7344654.486 8  18269911.196    18269914.562       -3908.065
     -3030.307
 -45934858.691 8  30363395.524 8  16462170.716    16462173.427       -1096.944
      -855.166
 88  4  2  7  8 59.0800000  0  3G 3G 9G13
 -93864453.979 8 108371612.037 7  17360278.656    17360279.953        1355.537
      1067.454
  -9191598.408 9  -7253331.055 8  18292212.413    18292215.464       -3936.868
     -3049.725
 -45901779.721 9  30389171.343 8  16468465.945    16468468.427       -1096.849
      -854.240
 88  4  2  7  9 29.0800000  0  3G 3G 9G13
 -93904511.425 9 108340398.444 8  17352655.620    17352660.887        1342.268
      1037.789
  -9074181.381 7  -7161837.297 7  18314556.186    18314560.828       -3907.012
     -3045.693
 -45868562.375 9  30415054.980 7  16474786.820    16474788.854       -1098.109
      -871.110
 88  4  2  7  9 59.0800000  0  3G 3G 9G13
 -93944376.678 9 108309334.625 8  17345070.739    17345073.188        1320.330
      1034.844
  -8956545.527 8  -7070173.017 8  18336942.195    18336946.824       -3922.993
     -3064.570
 -45835204.179 9  30441048.376 7  16481134.931    16481137.169       -1112.614
      -858.994
 88  4  2  7 10 29.0800000  0  3G 3G 9G13
 -93984052.457 8 108278418.454 8  17337520.692    17337523.236        1326.446
      1032.669
  -8838696.171 8  -6978342.380 7  18359366.804    18359371.547       -3909.731
     -3049.645
 -45801707.954 9  30467149.335 8  16487508.293    16487512.343       -1116.617
      -876.330
 88  4  2  7 10 59.0800000  0  3G 3G 9G13
 -94023542.460 9 108247647.037 8  17330005.210    17330010.273        1319.955
      1017.128
  -8720639.672 7  -6886350.320 7  18381834.236    18381837.205       -3918.009
     -3065.067
 -45768078.754 9  30493353.898 8  16493907.824    16493913.099       -1111.633
      -882.910
 88  4  2  7 11 29.0800000  0  3G 3G 9G13
 -94062846.174 9 108217020.779 8  17322526.107    17322528.945        1307.906
      1012.120
  -8602378.852 8  -6794199.060 8  18404337.778    18404343.911       -3935.680
     -3085.417
 -45734316.262 9  30519662.343 7  16500331.651    16500336.380       -1120.126
      -876.125
 88  4  2  7 11 59.0800000  0  3G 3G 9G13
 -94101963.624 8 108186539.670 7  17315082.799    17315085.254        1303.193
      1011.051
  -8483915.482 7  -6701889.958 7  18426881.349    18426886.306       -3961.541
     -3080.117
 -45700420.590 9  30546074.536 8  16506782.015    16506786.868       -1121.147
      -883.637
 88  4  2  7 12 29.0800000  0  3G 3G 9G13
 -94140895.486 9 108156203.163 7  17307673.981    17307676.828        1306.503
      1020.434
  -8365253.219 8  -6609425.863 8  18449460.928    18449467.735       -3948.343
     -3106.898
 -45666393.538 9  30572589.129 8  16513258.321    16513261.809       -1130.740
      -897.152
 88  4  2  7 12 59.0800000  0  3G 3G 9G13
 -94179641.139 9 108126011.766 8  17300301.658    17300303.219        1278.337
      1014.960
  -8246393.632 7  -6516808.031 8  18472080.861    18472083.883       -3970.711
     -3076.749
 -45632234.267 9  30599206.755 8  16519759.076    16519762.329       -1147.494
      -894.033
 88  4  2  7 13 29.0800000  0  3G 3G 9G13
 -94218202.787 9 108095963.740 8  17292962.391    17292964.364        1289.868
       994.541
  -8127341.982 7  -6424040.524 7  18494735.100    18494739.958       -3966.724
     -3101.393
 -45597945.698 9  30625925.117 8  16526283.087    16526286.502       -1141.035
      -869.209
 88  4  2  7 13 59.0800000  0  3G 3G 9G13
 -94256581.029 9 108066058.619 8  17285658.723    17285664.074        1291.758
       994.827
  -8008102.212 8  -6331126.466 7  18517424.851    18517428.532       -4006.006
     -3107.843
 -45563529.668 9  30652742.798 8  16532832.317    16532835.960       -1139.791
      -894.151
 88  4  2  7 14 29.0800000  0  3G 3G 9G13
 -94294776.354 9 108036296.058 8  17278391.505    17278395.360        1262.365
       992.596
  -7888676.690 8  -6238067.640 7  18540149.936    18540154.409       -3975.416
     -3104.568
 -45528986.964 9  30679659.200 8  16539406.556    16539410.513       -1148.786
      -901.483
 88  4  2  7 14 59.0800000  0  3G 3G 9G13
 -94332788.542 9 108006676.176 7  17271157.457    17271160.973        1266.671
       985.096
  -7769068.014 8  -6144866.107 8  18562911.013    18562915.940       -3987.114
     -3103.891
 -45494317.685 9  30706674.231 8  16546003.812    16546006.751       -1161.561
      -898.644
 88  4  2  7 15 29.0800000  0  3G 3G 9G13
 -94370618.863 8 107977198.007 7  17263958.981    17263962.945        1269.924
       964.174
  -7649279.977 8  -6051524.812 8  18585706.300    18585711.561       -3982.202
     -3125.148
 -45459523.401 9  30733786.650 8  16552624.366    16552627.815       -1146.617
      -901.359
 88  4  2  7 15 59.0800000  0  3G 3G 9G13
 -94408269.144 8 107947860.143 7  17256793.815    17256799.929        1264.829
       952.151
  -7529317.503 8  -5958047.595 8  18608533.898    18608537.599       -3981.062
     -3121.202
 -45424606.760 9  30760994.420 8  16559269.994    16559272.583       -1176.824
      -908.635
 88  4  2  7 16 29.0800000  0  3G 3G 9G13
 -94445741.628 8 107918660.819 7  17249662.494    17249667.537        1271.503
       975.521
  -7409184.865 7  -5864437.770 7  18631396.905    18631399.830       -4015.104
     -3127.932
 -45389569.792 9  30788295.954 8  16565936.287    16565939.730       -1168.889
      -922.374
 88  4  2  7 16 59.0800000  0  3G 3G 9G13
 -94483034.843 9 107889601.173 6  17242566.986    17242570.142        1238.976
       963.043
  -7288883.101 7  -5770696.162 7  18654287.435    18654292.004       -4032.018
     -3131.753
 -45354411.625 9  30815691.950 8  16572625.965    16572629.837       -1159.009
      -915.918
 88  4  2  7 17 29.0800000  0  3G 3G 9G13
 -94520147.289 9 107860682.396 7  17235502.082    17235507.210        1270.100
       957.892
  -7168414.553 8  -5676824.607 8  18677212.104    18677216.299       -4027.919
     -3119.494
 -45319131.630 9  30843182.851 8  16579339.946    16579343.279       -1181.217
      -919.460
 88  4  2  7 17 59.0800000  0  3G 3G 9G13
 -94557081.752 8 107831902.310 7  17228475.897    17228479.412        1232.229
       971.743
  -7047783.752 9  -5582826.610 9  18700165.929    18700172.346       -4020.694
     -3133.481
 -45283733.012 9  30870766.199 8  16586076.644    16586079.962       -1188.745
      -917.795
 88  4  2  7 18 29.0800000  0  3G 3G 9G13
 -94593840.349 9 107803259.243 8  17221481.371    17221485.785        1220.603
       959.390
  -6926995.076 8  -5488705.589 7  18723154.328    18723156.795       -4021.596
     -3134.475
 -45248217.490 9  30898440.630 8  16592834.748    16592838.883       -1182.605
      -919.541
 88  4  2  7 18 59.0800000  0  3G 3G 9G13
 -94630422.673 8 107774753.567 7  17214519.160    17214524.066        1226.600
       945.732
  -6806051.594 8  -5394463.948 8  18746167.992    18746171.850       -4023.932
     -3153.974
 -45212585.638 8  30926205.719 8  16599614.882    16599618.481       -1187.222
      -924.742
 88  4  2  7 19 29.0800000  0  3G 3G 9G13
 -94666828.781 8 107746385.182 7  17207591.842    17207595.828        1203.394
       950.982
  -6684955.862 8  -5300103.654 7  18769211.967    18769216.926       -4040.200
     -3161.499
 -45176838.428 9  30954060.678 8  16606417.338    16606420.728       -1190.380
      -925.034
 88  4  2  7 19 59.0800000  0  3G 3G 9G13
 -94703058.876 9 107718153.963 8  17200697.039    17200699.489        1199.319
       952.275
  -6563710.590 8  -5205626.832 7  18792284.906    18792288.588       -4055.502
     -3152.520
 -45140975.804 9  30982005.593 7  16613241.462    16613243.965       -1198.027
      -919.839
 88  4  2  7 20 29.0800000  0  3G 3G 9G13
 -94739114.969 9 107690058.313 8  17193836.823    17193840.158        1200.579
       938.654
  -6442319.943 8  -5111036.749 7  18815384.356    18815387.480       -4047.759
     -3146.076
 -45104999.981 9  31010038.708 8  16620087.465    16620090.053       -1209.542
      -932.285
 88  4  2  7 20 59.0800000  0  3G 3G 9G13
 -94774998.102 8 107662097.441 7  17187008.618    17187011.438        1176.385
       934.348
  -6320788.162 8  -5016336.679 7  18838510.261    18838514.119       -4059.378
     -3181.849
 -45068912.838 9  31038158.570 7  16626953.652    16626957.883       -1185.029
      -935.150
 88  4  2  7 21 29.0800000  0  3G 3G 9G13
 -94810710.269 8 107634269.793 7  17180212.348    17180217.160        1186.784
       944.234
  -6199119.393 9  -4921529.868 8  18861664.291    18861667.573       -4059.498
     -3159.392
 -45032716.223 9  31066363.733 8  16633843.809    16633847.014       -1197.908
      -935.206
 88  4  2  7 21 59.0800000  0  3G 3G 9G13
 -94846250.987 8 107606575.749 7  17173449.277    17173451.783        1177.151
       924.853
  -6077316.283 8  -4826618.360 7  18884843.079    18884844.042       -4058.892
     -3159.697
 -44996410.360 9  31094654.015 8  16640751.455    16640754.450       -1213.817
      -926.394
 88  4  2  7 22 29.0800000  0  3G 3G 9G13
 -94881619.453 8 107579015.920 8  17166717.314    17166721.796        1177.111
       924.847
  -5955380.521 7  -4731603.525 7  18908044.293    18908050.280       -4079.250
     -3173.989
 -44959994.949 9  31123029.662 8  16647681.250    16647684.558       -1212.764
      -952.368
 88  4  2  7 22 59.0800000  0  3G 3G 9G13
 -94916816.213 8 107551589.891 8  17160020.912    17160022.986        1168.833
       926.668
  -5833315.391 8  -4636487.863 6  18931273.819    18931278.202       -4082.280
     -3174.498
 -44923470.878 9  31151489.991 8  16654630.846    16654634.990       -1209.861
      -952.784
 88  4  2  7 23 29.0800000  0  3G 3G 9G13
 -94951844.212 9 107524295.367 8  17153354.610    17153357.536        1163.483
       902.962
  -5711126.276 7  -4541275.586 7  18954526.001    18954531.819       -4069.864
     -3186.429
 -44886841.334 9  31180032.477 8  16661602.426    16661606.139       -1213.147
      -939.207
 88  4  2  7 23 59.0800000  0  3G 3G 9G13
 -94986701.746 8 107497133.662 8  17146722.848    17146725.243        1161.250
       898.569
  -5588814.369 7  -4445967.662 7  18977800.474    18977803.357       -4074.306
     -3171.721
 -44850104.742 9  31208658.397 8  16668592.215    16668595.627       -1217.437
      -943.190
 88  4  2  7 24 29.0800000  0  3G 3G 9G13
 -95021391.317 8 107470102.848 7  17140121.347    17140124.096        1156.648
       892.349
  -5466384.325 7  -4350567.664 7  19001098.279    19001103.021       -4078.588
     -3177.891
 -44813263.492 9  31237365.879 8  16675602.732    16675608.049       -1225.156
      -964.255
 88  4  2  7 24 59.0800000  0  3G 3G 9G13
 -95055913.016 8 107443202.844 7  17133551.919    17133555.174        1143.913
       889.304
  -5343839.372 7  -4255078.110 6  19024419.025    19024420.049       -4078.349
     -3183.390
 -44776318.939 9  31266153.849 9  16682633.539    16682637.308       -1232.485
      -958.234
 88  4  2  7 25 29.0800000  0  3G 3G 9G13
 -95090268.498 9 107416432.347 8  17127013.623    17127017.030        1142.327
       881.643
  -5221183.523 7  -4159502.151 7  19047756.974    19047765.501       -4060.646
     -3211.222
 -44739272.530 9  31295021.191 9  16689684.420    16689687.588       -1233.776
      -956.960
 88  4  2  7 25 59.0800000  0  3G 3G 9G13
 -95124457.703 9 107389791.431 7  17120508.945    17120511.976        1132.917
       871.353
  -5098419.090 7  -4063841.595 7  19071119.135    19071122.563       -4099.282
     -3205.387
 -44702124.307 9  31323967.849 8  16696752.940    16696756.425       -1241.862
      -974.166
 88  4  2  7 26 29.0800000  0  3G 3G 9G13
 -95158479.833 8 107363280.690 8  17114031.907    17114036.411        1157.390
       873.428
  -4975548.558 7  -3968098.354 7  19094502.490    19094505.203       -4096.403
     -3195.538
 -44664874.565 9  31352993.622 8  16703840.938    16703845.389       -1245.212
      -975.521
 88  4  2  7 26 59.0800000  0  3G 3G 9G13
 -95192337.711 8 107336897.942 7  17107589.935    17107593.958        1143.722
       882.270
  -4852577.195 8  -3872276.529 7  19117902.626    19117904.920       -4083.620
     -3173.616
 -44627525.834 8  31382096.535 7  16710948.264    16710953.345       -1239.909
      -967.418
 88  4  2  7 27 29.0800000  0  3G 3G 9G13
 -95226031.406 8 107310643.139 7  17101179.649    17101181.169        1115.022
       873.298
  -4729507.460 7  -3776378.074 7  19141321.990    19141326.778       -4099.162
     -3210.209
 -44590078.356 8  31411276.402 9  16718074.725    16718077.707       -1251.049
      -974.663
 88  4  2  7 27 59.0800000  0  3G 3G 9G13
 -95259561.861 9 107284515.517 6  17094798.308    17094798.767        1119.887
       888.590
  -4606342.496 8  -3680405.416 8  19164758.234    19164762.607       -4118.779
     -3223.146
 -44552532.865 9  31440532.627 9  16725217.759    16725221.579       -1244.263
      -966.299
 88  4  2  7 28 29.0800000  0  3G 3G 9G13
 -95292929.029 9 107258515.134 7  17088448.784    17088453.276        1114.767
       872.229
  -4483085.707 7  -3584361.200 8  19188212.899    19188217.157       -4099.975
     -3199.602
 -44514890.502 9  31469864.336 8  16732382.259    16732386.450       -1262.739
      -974.794
 88  4  2  7 28 59.0800000  0  3G 3G 9G13
 -95326134.151 8 107232641.043 7  17082129.864    17082133.270        1098.803
       861.945
  -4359740.501 9  -3488248.082 8  19211686.207    19211689.702       -4115.230
     -3192.083
 -44477152.508 9  31499270.570 8  16739563.439    16739565.927       -1263.353
      -975.794
 88  4  2  7 29 29.0800000  0  3G 3G 9G13
 -95359176.863 9 107206893.485 6  17075842.071    17075845.591        1102.120
       878.505
  -4236308.801 9  -3392067.556 9  19235174.646    19235177.615       -4110.773
     -3211.041
 -44439318.240 9  31528751.812 9  16746762.866    16746766.429       -1260.674
      -985.456
 88  4  2  7 29 59.0800000  0  3G 3G 9G13
 -95392057.324 9 107181272.362 8  17069585.788    17069588.899        1089.114
       858.061
  -4112793.967 8  -3295822.258 7  19258679.250    19258682.717       -4131.163
     -3198.079
 -44401388.552 8  31558307.417 8  16753979.939    16753985.251       -1254.940
     -1002.867
 88  4  2  7 30 29.0800000  0  3G 3G 9G13
 -95424779.333 9 107155774.702 6  17063359.533    17063362.315        1068.396
       843.583
  -3989201.786 8  -3199516.674 6  19282197.740    19282201.478       -4128.189
     -3206.567
 -44363366.943 9  31587934.638 7  16761215.465    16761218.006       -1271.950
      -996.300
 88  4  2  7 30 59.0800000  0  3G 3G 9G13
 -95457343.918 8 107130399.709 8  17057162.816    17057165.004        1073.237
       848.331
  -3865535.902 8  -3103153.685 7  19305730.818    19305732.162       -4118.938
     -3204.915
 -44325254.933 9  31617632.305 7  16768467.373    16768471.032       -1264.310
      -985.152
 88  4  2  7 31 29.0800000  0  3G 3G 9G13
 -95489750.366 9 107105147.939 8  17050993.855    17050997.603        1076.714
       859.105
  -3741798.683 8  -3006735.095 8  19329275.841    19329281.477       -4121.363
     -3210.613
 -44287052.261 8  31647400.615 8  16775737.597    16775742.570       -1269.071
      -998.002
 88  4  2  7 31 59.0800000  0  3G 3G 9G13
 -95521997.603 8 107080020.238 7  17044859.653    17044861.874        1073.380
       839.830
  -3617991.359 7  -2910261.894 7  19352837.454    19352841.530       -4138.133
     -3217.814
 -44248757.559 8  31677240.637 9  16783024.873    16783027.897       -1288.696
      -988.041
 88  4  2  7 32 29.0800000  0  3G 3G 9G13
 -95554085.929 9 107055016.356 8  17038753.120    17038754.597        1063.173
       848.399
  -3494117.046 7  -2813736.481 7  19376409.787    19376412.616       -4149.520
     -3208.848
 -44210371.569 9  31707151.791 7  16790328.965    16790332.300       -1285.522
     -1010.125
 88  4  2  7 32 59.0800000  0  3G 3G 9G13
 -95586017.032 8 107030134.982 7  17032676.089    17032679.130        1053.221
       837.146
  -3370179.794 7  -2717162.031 7  19399992.005    19399998.461       -4114.720
     -3226.433
 -44171896.198 9  31737132.600 8  16797650.482    16797656.030       -1267.476
     -1002.439
 88  4  2  7 33 29.0800000  0  3G 3G 9G13
 -95617792.895 8 107005374.585 7  17026629.407    17026632.457        1073.779
       843.664
  -3246183.962 7  -2620541.932 7  19423588.634    19423592.268       -4123.109
     -3209.345
 -44133333.797 9  31767181.222 9  16804989.294    16804991.529       -1282.532
      -994.578
 88  4  2  7 33 59.0800000  0  3G 3G 9G13
 -95649415.013 8 106980733.975 8  17020611.185    17020614.664        1044.720
       822.860
  -3122133.742 7  -2523879.453 7  19447193.196    19447199.965       -4109.377
     -3220.816
 -44094685.513 8  31797296.763 8  16812343.250    16812346.462       -1283.712
      -998.766
 88  4  2  7 34 29.0800000  0  3G 3G 9G13
 -95680884.045 9 106956212.662 7  17014622.580    17014627.298        1054.377
       803.567
  -2998032.295 8  -2427177.067 7  19470809.156    19470816.099       -4147.479
     -3226.973
 -44055951.939 9  31827478.766 8  16819714.490    16819717.147       -1285.155
      -995.939
 88  4  2  7 34 59.0800000  0  3G 3G 9G13
 -95712197.780 9 106931812.348 7  17008664.489    17008668.523        1033.931
       803.933
  -2873880.935 7  -2330435.779 7  19494434.688    19494440.143       -4109.034
     -3219.778
 -44017131.913 9  31857728.133 8  16827102.618    16827105.972       -1292.930
     -1017.402
 88  4  2  7 35 29.0800000  0  3G 3G 9G13
 -95743357.381 9 106907532.163 7  17002733.922    17002738.669        1047.695
       809.905
  -2749682.531 7  -2233657.847 7  19518068.178    19518075.203       -4135.134
     -3226.222
 -43978226.368 9  31888044.129 8  16834506.309    16834508.339       -1304.621
      -999.493
 88  4  2  7 35 59.0800000  0  3G 3G 9G13
 -95774364.077 9 106883371.100 8  16996834.941    16996837.538        1026.308
       807.581
  -2625440.952 8  -2136846.265 6  19541713.361    19541715.046       -4147.861
     -3214.596
 -43939236.405 9  31918425.920 7  16841925.693    16841929.022       -1306.415
     -1013.033
 88  4  2  7 36 29.0800000  0  3G 3G 9G13
 -95805218.241 8 106859328.907 8  16990962.785    16990965.916        1035.901
       804.927
  -2501159.346 7  -2040003.508 7  19565363.391    19565369.005       -4164.943
     -3232.696
 -43900162.835 9  31948872.857 8  16849360.359    16849364.923       -1300.498
     -1014.282
 88  4  2  7 36 59.0800000  0  3G 3G 9G13
 -95835921.953 9 106835403.941 8  16985120.799    16985124.641        1021.236
       798.179
  -2376842.037 8  -1943132.891 7  19589019.147    19589021.886       -4138.842
     -3230.329
 -43861007.753 9  31979383.301 7  16856810.413    16856815.567       -1294.796
     -1018.781
 88  4  2  7 37 29.0800000  0  3G 3G 9G13
 -95866476.519 9 106811595.200 7  16979305.453    16979307.786        1008.341
       781.079
  -2252493.354 8  -1846237.830 7  19612681.432    19612684.887       -4142.678
     -3229.378
 -43821772.913 8  32009955.903 8  16864277.918    16864281.645       -1310.091
     -1019.210
 88  4  2  7 37 59.0800000  0  3G 3G 9G13
 -95896881.315 9 106787903.162 8  16973521.001    16973523.241        1017.711
       787.131
  -2128115.199 8  -1749319.798 7  19636350.116    19636354.993       -4141.059
     -3215.298
 -43782457.631 9  32040591.184 8  16871759.558    16871763.175       -1322.427
     -1030.811
 88  4  2  7 38 29.0800000  0  3G 3G 9G13
 -95927135.893 8 106764328.171 8  16967764.495    16967767.377         995.750
       782.545
  -2003709.041 9  -1652379.972 8  19660024.987    19660027.845       -4159.097
     -3229.111
 -43743061.229 8  32071289.670 8  16879256.244    16879259.577       -1314.644
     -1019.775
 88  4  2  7 38 59.0800000  0  3G 3G 9G13
 -95957238.523 8 106740871.591 7  16962034.575    16962036.262        1011.172
       791.443
  -1879275.981 9  -1555419.174 7  19683704.184    19683706.158       -4148.978
     -3232.914
 -43703582.216 8  32102052.545 8  16886768.356    16886772.820       -1313.775
     -1021.795
 88  4  2  7 39 29.0800000  0  3G 3G 9G13
 -95987193.010 9 106717530.432 8  16956335.307    16956337.291         984.386
       795.128
  -1754822.793 9  -1458442.680 7  19707385.289    19707391.273       -4135.693
     -3247.063
 -43664024.415 9  32132876.808 8  16894297.494    16894300.037       -1332.244
     -1034.023
 88  4  2  7 39 59.0800000  0  3G 3G 9G13
 -96017003.165 9 106694301.756 8  16950661.011    16950665.576        1007.887
       787.193
  -1630355.856 8  -1361455.495 7  19731069.850    19731073.328       -4135.469
     -3226.228
 -43624391.996 9  32163759.207 8  16901838.280    16901842.374       -1319.102
     -1034.440
 88  4  2  7 40 29.0800000  0  3G 3G 9G13
 -96046666.992 9 106671187.092 8  16945016.496    16945020.328         996.739
       777.139
  -1505875.512 8  -1264457.846 7  19754758.668    19754762.320       -4157.239
     -3220.275
 -43584683.237 8  32194701.101 8  16909393.697    16909398.143       -1329.556
     -1022.540
 88  4  2  7 40 59.0800000  0  3G 3G 9G13
 -96076182.337 9 106648188.118 8  16939400.881    16939403.881         967.720
       768.658
  -1381381.701 8  -1167449.711 7  19778448.205    19778453.965       -4129.090
     -3233.740
 -43544895.538 9  32225704.495 9  16916964.714    16916970.828       -1313.751
     -1045.730
 88  4  2  7 41 29.0800000  0  3G 3G 9G13
 -96105552.205 8 106625302.523 8  16933810.994    16933815.835         964.762
       783.595
  -1256880.197 7  -1070435.598 8  19802142.945    19802145.312       -4159.488
     -3230.024
 -43505031.852 9  32256767.113 8  16924551.669    16924556.519       -1331.247
     -1034.974
 88  4  2  7 41 59.0800000  0  3G 3G 9G13
 -96134778.594 8 106602528.712 7  16928250.248    16928253.686         980.112
       766.489
  -1132375.577 6   -973419.051 5  19825834.505    19825838.090       -4162.758
     -3244.826
 -43465094.135 8  32287887.408 8  16932151.183    16932153.771       -1327.340
     -1021.366
 88  4  2  7 42 29.0800000  0  3G 3G 9G13
 -96163861.267 9 106579866.896 8  16922715.189    16922719.643         977.863
       739.937
  -1007870.466 7   -876402.109 7  19849527.705    19849531.911       -4164.919
     -3241.278
 -43425082.480 9  32319065.302 9  16939765.212    16939768.214       -1326.016
     -1043.046
 88  4  2  7 42 59.0800000  0  3G 3G 9G13
 -96192799.418 9 106557317.702 9  16917210.698    16917211.908         950.464
       762.549
   -883366.452 7   -779386.018 6  19873218.262    19873221.502       -4134.871
     -3216.112
 -43384996.661 9  32350301.001 8  16947393.773    16947397.653       -1346.964
     -1044.090
 88  4  2  7 43 29.0800000  0  3G 3G 9G13
 -96221594.270 9 106534880.161 8  16911729.458    16911733.385         954.507
       752.508
   -758867.423 7   -682373.828 6  19896910.418    19896914.393       -4158.029
     -3230.870
 -43344837.470 9  32381593.877 8  16955035.296    16955040.609       -1334.796
     -1052.335
 88  4  2  7 43 59.0800000  0  3G 3G 9G13
 -96250244.867 9 106512555.022 8  16906277.990    16906280.886         940.432
       743.442
   -634375.185 7   -585366.935 7  19920600.250    19920604.301       -4126.371
     -3223.227
 -43304603.879 9  32412944.719 7  16962691.740    16962696.923       -1345.609
     -1067.043
 88  4  2  7 44 29.0800000  0  3G 3G 9G13
 -96278752.462 9 106490341.327 7  16900851.911    16900855.656         963.143
       731.114
   -509892.537 6   -488367.491 6  19944288.101    19944293.517       -4144.456
     -3232.522
 -43264296.533 8  32444353.034 8  16970363.320    16970365.809       -1337.323
     -1038.211
 88  4  2  7 44 59.0800000  0  3G 3G 9G13
 -96307120.894 8 106468236.063 8  16895453.827    16895457.576         954.387
       743.169
   -385426.685 6   -391381.202 7  19967973.031    19967978.333       -4145.557
     -3231.721
 -43223920.553 9  32475814.836 7  16978046.068    16978049.340       -1359.030
     -1053.789
 88  4  2  7 45 29.0800000  0  3G 3G 9G13
 -96335349.423 9 106446239.816 8  16890082.791    16890085.775         942.386
       724.359
   -260979.427 3   -215182.371 7  19991654.700    19991659.423       -4156.035
     -3231.441
 -43183474.913 8  32507330.933 8  16985741.644    16985745.662       -1344.660
     -1057.816
 88  4  2  7 45 59.0800000  0  3G 3G 9G13
 -96363438.853 9 106424351.946 8  16884737.009    16884741.360         933.008
       726.050
   -136554.010 5   -118227.526 7  20015332.001    20015337.037       -4139.026
     -3242.029
 -43142960.042 9  32538900.944 9  16993452.170    16993455.765       -1351.167
     -1046.836
 88  4  2  7 46 29.0800000  0  3G 3G 9G13
 -96391388.275 9 106402573.192 8  16879419.248    16879422.416         924.985
       726.329
    -12151.645 5    -21290.667 3  20039004.717    20039011.172       -4184.033
     -3240.694
 -43102374.792 9  32570525.813 9  17001175.073    17001178.355       -1336.510
     -1046.414
